[[{"header":{"parameterUnit":"m.s-1","parameterCategory":1,"la1":30.6,"la2":29.2853,"lo1":-89.7004,"lo2":-87.6739,"dy":0.0162,"dx":0.0183,"nx":112,"ny":82,"refTime":"2024-06-15T12:00:00:Z","depth":0,"parameterNumber":2,"parameterNumberName":"U-component_of_WINDS"},"data":[0.0,0.0,0.0,0.0,0.0,0.0,0.0,0.0,0.0,0.0,0.0,0.0,0.0,0.0,0.0,0.0,0.0,0.0,0.0,0.0,0.0,0.0,0.0,0.0,0.0,0.0,0.0,0.0,0.0,0.0,0.0,0.0,0.0,0.0,0.0,0.0,0.0,0.0,0.0,0.0,0.0,0.0,0.0,0.0,0.0,0.0,0.0,0.0,0.0,0.0,0.0,0.0,0.0,0.0,0.0,0.0,0.0,0.0,0.0,0.0,0.0,0.0,0.0,0.0,0.0,0.0,0.0,0.0,0.0,0.0,0.0,0.0,0.0,0.0,0.0,0.0,0.0,0.0,0.0,0.0,0.0,0.0,0.0,0.0,0.0,0.0,0.0,0.0,0.0,0.0,0.0,-4.4948,-5.0068,-5.2417,-5.0949,-5.0574,-4.6976,-3.8804,0.0,0.0,0.0,0.0,0.0,0.0,0.0,0.0,0.0,0.0,0.0,0.0,0.0,0.0,0.0,0.0,0.0,0.0,0.0,0.0,0.0,0.0,0.0,0.0,0.0,0.0,0.0,0.0,0.0,0.0,0.0,0.0,0.0,0.0,0.0,0.0,0.0,0.0,0.0,0.0,0.0,0.0,0.0,0.0,0.0,0.0,0.0,0.0,0.0,0.0,0.0,0.0,0.0,0.0,0.0,0.0,0.0,0.0,0.0,0.0,0.0,0.0,0.0,0.0,0.0,0.0,0.0,0.0,0.0,0.0,0.0,0.0,0.0,0.0,0.0,0.0,0.0,0.0,0.0,0.0,0.0,0.0,0.0,0.0,0.0,0.0,0.0,0.0,0.0,0.0,0.0,0.0,0.0,0.0,0.0,0.0,0.0,0.0,0.0,0.0,0.0,0.0,0.0,0.0,-4.0182,-4.8967,-5.1242,-5.1793,-5.0875,-4.9658,-4.6142,-3.953,0.0,0.0,0.0,0.0,0.0,0.0,0.0,0.0,0.0,0.0,0.0,0.0,0.0,0.0,0.0,0.0,0.0,0.0,0.0,0.0,0.0,0.0,0.0,0.0,0.0,0.0,0.0,0.0,0.0,0.0,0.0,0.0,0.0,0.0,0.0,0.0,0.0,0.0,0.0,0.0,0.0,0.0,0.0,0.0,0.0,0.0,0.0,0.0,0.0,0.0,0.0,0.0,0.0,0.0,0.0,0.0,0.0,0.0,0.0,0.0,0.0,0.0,0.0,0.0,0.0,0.0,0.0,0.0,0.0,0.0,0.0,0.0,0.0,0.0,0.0,0.0,0.0,0.0,0.0,0.0,0.0,0.0,0.0,0.0,0.0,0.0,0.0,0.0,0.0,0.0,0.0,0.0,0.0,0.0,0.0,0.0,0.0,0.0,0.0,0.0,0.0,0.0,0.0,-4.1144,-4.3032,-4.8982,-5.0031,-4.9997,-4.9181,-4.8501,-4.5164,-3.8266,-3.6358,0.0,0.0,0.0,0.0,0.0,0.0,0.0,0.0,0.0,0.0,0.0,0.0,0.0,0.0,0.0,0.0,0.0,0.0,0.0,0.0,0.0,0.0,0.0,0.0,0.0,0.0,0.0,0.0,0.0,0.0,0.0,0.0,0.0,0.0,0.0,0.0,0.0,0.0,0.0,0.0,0.0,0.0,0.0,0.0,0.0,0.0,0.0,0.0,0.0,0.0,0.0,0.0,0.0,0.0,0.0,0.0,0.0,0.0,0.0,0.0,0.0,0.0,0.0,0.0,0.0,0.0,0.0,0.0,0.0,0.0,0.0,0.0,0.0,0.0,0.0,0.0,0.0,0.0,0.0,0.0,0.0,0.0,0.0,0.0,0.0,0.0,0.0,0.0,0.0,0.0,0.0,0.0,0.0,0.0,0.0,0.0,0.0,0.0,0.0,0.0,0.0,0.0,-4.4947,-4.5467,-4.8111,-4.8544,-4.8387,-4.7736,-4.6578,-4.3228,-3.6975,-3.4494,0.0,0.0,0.0,0.0,0.0,0.0,0.0,0.0,0.0,0.0,0.0,0.0,0.0,0.0,0.0,0.0,0.0,0.0,0.0,0.0,0.0,0.0,0.0,0.0,0.0,0.0,0.0,0.0,0.0,0.0,0.0,0.0,0.0,0.0,0.0,0.0,0.0,0.0,0.0,0.0,0.0,0.0,0.0,0.0,0.0,0.0,0.0,0.0,0.0,0.0,0.0,0.0,0.0,0.0,0.0,0.0,0.0,0.0,0.0,0.0,0.0,0.0,0.0,0.0,0.0,0.0,0.0,0.0,0.0,0.0,0.0,0.0,0.0,0.0,0.0,0.0,0.0,0.0,0.0,0.0,0.0,0.0,0.0,0.0,0.0,0.0,0.0,0.0,0.0,0.0,0.0,0.0,0.0,0.0,0.0,0.0,0.0,0.0,0.0,0.0,0.0,0.0,-4.2659,-4.6601,-4.7666,-4.776,-4.7736,-4.77,-4.3243,-3.9351,-3.678,-3.167,0.0,0.0,0.0,0.0,0.0,0.0,0.0,0.0,0.0,0.0,0.0,0.0,0.0,0.0,0.0,0.0,0.0,0.0,0.0,0.0,0.0,0.0,0.0,0.0,0.0,0.0,0.0,0.0,0.0,0.0,0.0,0.0,0.0,0.0,0.0,0.0,0.0,0.0,0.0,0.0,0.0,0.0,0.0,0.0,0.0,0.0,0.0,0.0,0.0,0.0,0.0,0.0,0.0,0.0,0.0,0.0,0.0,0.0,0.0,0.0,0.0,0.0,0.0,0.0,0.0,0.0,0.0,0.0,0.0,0.0,0.0,0.0,0.0,0.0,0.0,0.0,0.0,0.0,0.0,0.0,0.0,0.0,0.0,0.0,0.0,0.0,0.0,0.0,0.0,0.0,0.0,0.0,0.0,0.0,0.0,0.0,0.0,0.0,0.0,0.0,0.0,0.0,-4.2638,-4.4858,0.0,-4.597,-4.5768,-4.5768,-4.3511,-4.0144,-3.5583,0.0,0.0,0.0,0.0,0.0,0.0,0.0,0.0,0.0,0.0,0.0,0.0,0.0,0.0,0.0,0.0,0.0,0.0,0.0,0.0,0.0,0.0,0.0,0.0,0.0,0.0,0.0,0.0,0.0,0.0,0.0,0.0,0.0,0.0,0.0,0.0,0.0,0.0,0.0,0.0,0.0,0.0,0.0,0.0,0.0,0.0,0.0,0.0,0.0,0.0,0.0,0.0,0.0,0.0,0.0,0.0,0.0,0.0,0.0,0.0,0.0,0.0,0.0,0.0,0.0,0.0,0.0,0.0,0.0,0.0,0.0,0.0,0.0,0.0,0.0,0.0,0.0,0.0,0.0,0.0,0.0,0.0,0.0,0.0,0.0,0.0,0.0,0.0,0.0,0.0,0.0,0.0,0.0,0.0,0.0,0.0,0.0,0.0,0.0,0.0,0.0,0.0,-4.0601,-4.207,-4.3642,0.0,-4.4824,-4.4615,-4.4615,-4.2591,-3.9377,-3.4776,0.0,0.0,0.0,0.0,0.0,0.0,0.0,0.0,0.0,0.0,0.0,0.0,0.0,0.0,0.0,0.0,0.0,0.0,0.0,0.0,0.0,0.0,0.0,0.0,0.0,0.0,0.0,0.0,0.0,0.0,0.0,0.0,0.0,0.0,0.0,0.0,0.0,0.0,0.0,0.0,0.0,0.0,0.0,0.0,0.0,0.0,0.0,0.0,0.0,0.0,0.0,0.0,0.0,0.0,0.0,0.0,0.0,0.0,0.0,0.0,0.0,0.0,0.0,0.0,0.0,0.0,0.0,0.0,0.0,0.0,0.0,0.0,0.0,0.0,0.0,0.0,0.0,0.0,0.0,0.0,0.0,0.0,0.0,0.0,0.0,0.0,0.0,0.0,0.0,0.0,0.0,0.0,0.0,0.0,0.0,0.0,0.0,0.0,0.0,0.0,0.0,0.0,-3.7356,-4.0611,-4.3498,-4.4479,-4.4615,-4.4615,-4.4615,-3.9842,-3.6186,0.0,0.0,0.0,0.0,0.0,0.0,0.0,0.0,0.0,0.0,0.0,0.0,0.0,0.0,0.0,0.0,0.0,0.0,0.0,0.0,0.0,0.0,0.0,0.0,0.0,0.0,0.0,0.0,0.0,0.0,0.0,0.0,0.0,0.0,0.0,0.0,0.0,0.0,0.0,0.0,0.0,0.0,0.0,0.0,0.0,0.0,0.0,0.0,0.0,0.0,0.0,0.0,0.0,0.0,0.0,0.0,0.0,0.0,0.0,0.0,0.0,0.0,0.0,0.0,0.0,0.0,0.0,0.0,0.0,0.0,0.0,0.0,0.0,0.0,0.0,0.0,0.0,0.0,0.0,0.0,0.0,0.0,0.0,0.0,0.0,0.0,0.0,0.0,0.0,0.0,0.0,0.0,0.0,0.0,0.0,0.0,0.0,0.0,0.0,0.0,0.0,0.0,0.0,-3.6811,-4.0278,-4.3051,-4.4445,-4.4615,-4.4615,-4.4615,-4.1711,-3.8125,-3.3998,0.0,0.0,0.0,0.0,0.0,0.0,0.0,0.0,0.0,0.0,0.0,0.0,0.0,0.0,0.0,0.0,0.0,0.0,0.0,0.0,0.0,0.0,0.0,0.0,0.0,0.0,0.0,0.0,0.0,0.0,0.0,0.0,0.0,0.0,0.0,0.0,0.0,0.0,0.0,0.0,0.0,0.0,0.0,0.0,0.0,0.0,0.0,0.0,0.0,0.0,0.0,0.0,0.0,0.0,0.0,0.0,0.0,0.0,0.0,0.0,0.0,0.0,0.0,0.0,0.0,0.0,0.0,0.0,0.0,0.0,0.0,0.0,0.0,0.0,0.0,0.0,0.0,0.0,0.0,0.0,0.0,0.0,0.0,0.0,0.0,0.0,0.0,0.0,0.0,0.0,0.0,0.0,0.0,0.0,0.0,0.0,0.0,0.0,0.0,0.0,0.0,0.0,-3.5635,-3.972,-4.2888,-4.4445,-4.4615,-4.4615,-4.4615,-4.2489,-3.9032,-3.3873,0.0,0.0,0.0,0.0,0.0,0.0,0.0,0.0,0.0,0.0,0.0,0.0,0.0,0.0,0.0,0.0,0.0,0.0,0.0,0.0,0.0,0.0,0.0,0.0,0.0,0.0,0.0,0.0,0.0,0.0,0.0,0.0,0.0,0.0,0.0,0.0,0.0,0.0,0.0,0.0,0.0,0.0,0.0,0.0,0.0,0.0,0.0,0.0,0.0,0.0,0.0,0.0,0.0,0.0,0.0,0.0,0.0,0.0,0.0,0.0,0.0,0.0,0.0,0.0,0.0,0.0,0.0,0.0,0.0,0.0,0.0,0.0,0.0,0.0,0.0,0.0,0.0,0.0,0.0,0.0,0.0,0.0,0.0,0.0,0.0,0.0,0.0,0.0,0.0,0.0,0.0,0.0,0.0,0.0,0.0,0.0,0.0,0.0,0.0,0.0,0.0,0.0,-3.4257,-3.9073,-4.2888,-4.4445,-4.4615,-4.4587,-4.4468,-4.2409,-3.9042,-3.4272,0.0,0.0,0.0,0.0,0.0,0.0,0.0,0.0,0.0,0.0,0.0,0.0,0.0,0.0,0.0,0.0,0.0,0.0,0.0,0.0,0.0,0.0,0.0,0.0,0.0,0.0,0.0,0.0,0.0,0.0,0.0,0.0,0.0,0.0,0.0,0.0,0.0,0.0,0.0,0.0,0.0,0.0,0.0,0.0,0.0,0.0,0.0,0.0,0.0,0.0,0.0,0.0,0.0,0.0,0.0,0.0,0.0,0.0,0.0,0.0,-2.8286,0.0,0.0,0.0,0.0,0.0,0.0,0.0,0.0,0.0,0.0,0.0,0.0,0.0,0.0,0.0,0.0,0.0,0.0,0.0,0.0,0.0,0.0,0.0,0.0,0.0,0.0,0.0,0.0,0.0,0.0,0.0,0.0,0.0,0.0,0.0,0.0,0.0,0.0,0.0,0.0,0.0,-3.4435,-3.9073,-4.2888,-4.4445,-4.4615,-4.4327,-4.3621,-4.1598,-3.8827,-3.5273,-3.1549,0.0,0.0,0.0,0.0,0.0,0.0,0.0,0.0,0.0,0.0,0.0,0.0,0.0,0.0,0.0,0.0,0.0,0.0,0.0,0.0,0.0,0.0,0.0,0.0,0.0,0.0,0.0,0.0,0.0,0.0,0.0,0.0,0.0,0.0,0.0,0.0,0.0,0.0,0.0,0.0,0.0,0.0,0.0,0.0,0.0,0.0,0.0,0.0,0.0,0.0,0.0,0.0,0.0,0.0,0.0,0.0,0.0,0.0,0.0,0.0,-2.9862,0.0,0.0,0.0,0.0,0.0,0.0,0.0,0.0,0.0,0.0,0.0,0.0,0.0,0.0,0.0,0.0,0.0,0.0,0.0,0.0,0.0,0.0,0.0,0.0,0.0,0.0,0.0,0.0,0.0,0.0,0.0,0.0,0.0,0.0,0.0,0.0,0.0,0.0,0.0,0.0,-3.5542,-3.9512,-4.2707,-4.3843,-4.3621,-4.3169,-4.2707,-4.1314,-3.9079,-3.5786,-3.2855,0.0,0.0,0.0,0.0,0.0,0.0,0.0,0.0,0.0,0.0,0.0,0.0,0.0,0.0,0.0,0.0,0.0,0.0,0.0,0.0,0.0,0.0,0.0,0.0,0.0,0.0,0.0,0.0,0.0,0.0,0.0,0.0,0.0,0.0,0.0,0.0,0.0,0.0,0.0,0.0,0.0,0.0,0.0,0.0,0.0,0.0,0.0,0.0,0.0,0.0,0.0,0.0,0.0,-3.678,-3.7435,-3.7997,-3.7493,-3.7849,-3.8675,-3.5146,-3.418,-3.4749,-3.1316,0.0,0.0,0.0,0.0,0.0,0.0,0.0,0.0,0.0,0.0,0.0,0.0,0.0,0.0,0.0,0.0,0.0,0.0,0.0,0.0,0.0,0.0,0.0,0.0,-3.7707,-3.7679,-3.1348,0.0,0.0,0.0,0.0,0.0,0.0,0.0,0.0,0.0,0.0,0.0,-3.6791,-3.9885,-4.2258,-4.2979,-4.2426,-4.1949,-4.1788,-4.1119,-3.9377,-3.6259,-3.4344,-3.1675,0.0,0.0,0.0,0.0,0.0,0.0,0.0,0.0,0.0,0.0,0.0,0.0,0.0,0.0,0.0,0.0,0.0,0.0,0.0,0.0,0.0,0.0,0.0,0.0,0.0,0.0,0.0,0.0,0.0,0.0,0.0,0.0,-2.6633,-2.8609,0.0,0.0,0.0,0.0,0.0,0.0,0.0,0.0,0.0,0.0,0.0,0.0,0.0,-3.6291,-3.7616,-3.8338,-3.9023,-3.9721,-4.0383,-4.0745,-4.0835,-4.0761,-4.0845,-4.0965,-4.0371,0.0,-3.6137,-3.4211,0.0,0.0,0.0,0.0,0.0,0.0,0.0,0.0,0.0,0.0,0.0,0.0,0.0,0.0,0.0,0.0,0.0,0.0,0.0,0.0,0.0,0.0,-3.8343,-3.8744,-3.913,-3.9116,0.0,-3.5317,-3.3157,-3.3711,-2.8532,0.0,0.0,0.0,0.0,0.0,0.0,0.0,-3.7221,-3.9632,-4.1371,-4.2077,-4.2078,-4.1691,-4.0961,-4.0271,-3.9067,-3.7312,-3.4842,-3.2704,-3.0998,-2.8463,0.0,0.0,0.0,0.0,0.0,0.0,0.0,0.0,0.0,0.0,0.0,0.0,0.0,0.0,0.0,0.0,0.0,0.0,0.0,0.0,0.0,0.0,0.0,0.0,0.0,0.0,0.0,0.0,0.0,-2.5435,-2.8038,-2.8936,-2.9475,-2.9116,0.0,0.0,0.0,0.0,0.0,0.0,0.0,0.0,0.0,-3.8644,-3.8975,-3.9773,-4.1073,-4.1798,-4.2312,-4.2611,-4.3269,-4.3569,-4.3569,-4.3569,-4.3389,-4.3,-4.2641,-4.1444,-3.9625,-3.7041,-3.4751,-3.2826,0.0,0.0,0.0,0.0,-3.2014,-3.173,-3.4254,-3.4465,0.0,-3.2736,0.0,0.0,0.0,0.0,0.0,0.0,0.0,0.0,0.0,0.0,-3.9385,-3.939,-3.939,-3.9414,-3.94,-3.8058,-3.6414,0.0,-3.1948,-2.891,-2.69,0.0,0.0,0.0,0.0,-3.4929,-3.7818,-3.9721,-4.0917,-4.1233,-4.0826,-4.0378,-3.999,-3.9681,-3.8901,-3.7499,-3.5998,-3.4592,-3.3245,-3.0642,-2.8218,0.0,0.0,0.0,0.0,0.0,0.0,0.0,0.0,0.0,0.0,0.0,0.0,0.0,0.0,0.0,0.0,0.0,0.0,0.0,0.0,0.0,0.0,0.0,0.0,0.0,0.0,0.0,0.0,-2.7739,-3.0043,-3.0552,-3.2198,-3.2317,0.0,0.0,0.0,0.0,0.0,0.0,-3.7678,-3.894,-4.0364,-4.2111,-4.2282,-4.294,-4.4037,-4.4407,-4.4646,-4.4825,-4.5155,-4.5304,-4.5304,-4.5304,-4.5035,-4.4526,-4.4047,-4.3479,-4.268,-3.9649,-3.7674,-3.639,-3.5305,-3.4333,-3.3843,-3.5669,-3.5734,-3.5278,-3.8205,-3.8357,-3.7093,-3.6061,-3.5177,-3.4099,-3.1985,0.0,0.0,0.0,0.0,-3.7682,-3.9051,-3.937,-3.9394,-3.9403,-3.9373,-3.9373,-3.9373,-3.9414,-3.8504,0.0,-3.4385,-3.3186,-3.0501,0.0,0.0,0.0,0.0,-3.6035,-3.8556,-3.9736,-4.0378,-4.0378,-3.9809,-3.9373,-3.9373,-3.926,-3.8661,-3.7494,-3.6836,-3.5968,-3.4771,-3.2677,-3.0761,-2.9116,0.0,0.0,0.0,0.0,0.0,0.0,0.0,0.0,0.0,0.0,0.0,0.0,0.0,0.0,0.0,0.0,0.0,0.0,0.0,0.0,0.0,0.0,0.0,0.0,0.0,0.0,0.0,0.0,0.0,-3.5878,-3.7255,0.0,0.0,0.0,0.0,-3.6148,-3.8038,-3.9745,-4.1093,-4.241,-4.3459,-4.4137,-4.4766,-4.5454,-4.613,-4.5544,-4.5574,-4.616,-4.5603,-4.5304,-4.5304,-4.5304,-4.5274,-4.5244,-4.5214,-4.4825,-4.4047,-4.2013,-4.0397,-3.92,-3.911,-3.8307,-3.7319,-3.8702,-3.9154,-3.9308,-4.0734,-4.0371,-3.9224,-3.9188,-3.7016,-3.4692,-3.5803,-3.3927,0.0,0.0,-3.3649,-3.3033,-3.8074,-3.9421,-3.9415,-3.9409,-3.9373,-3.9373,-3.9373,-3.9414,-3.8852,0.0,-3.5989,-3.5324,-3.5093,0.0,-3.4767,-3.6809,-3.7217,-3.7802,-3.9354,-3.9499,-3.9481,-3.9481,-3.9409,-3.9373,-3.9373,-3.8811,-3.8153,-3.7464,-3.6836,-3.6178,-3.5489,-3.4711,-3.3066,-3.0462,-2.8393,0.0,0.0,0.0,0.0,0.0,0.0,0.0,0.0,0.0,0.0,0.0,0.0,0.0,0.0,0.0,0.0,0.0,0.0,0.0,0.0,0.0,0.0,0.0,0.0,0.0,0.0,0.0,0.0,-3.7584,-3.9655,0.0,-3.8212,-3.9379,-4.0464,-4.0876,-4.2342,-4.3958,-4.5723,-4.6292,-4.683,-4.7489,-4.7772,-4.7967,-4.8207,-4.7549,-4.7339,-4.7578,-4.692,-4.6591,-4.6591,-4.6591,-4.6352,-4.5963,-4.5963,-4.5574,-4.4885,-4.4197,-4.288,-4.1265,-4.0846,-4.0397,-4.0008,-4.0516,-4.0694,-4.0758,-4.1205,-4.1077,-4.0696,-4.068,-3.9589,-3.8394,-3.8871,-3.7872,-3.6787,-3.7752,-3.7321,-3.7022,-3.8901,-3.9373,-3.9373,-3.9373,-3.9373,-3.9373,-3.9373,-3.9421,-3.9247,-3.859,-3.7878,-3.7083,-3.6235,-3.6237,-3.6455,-3.6807,-3.719,-3.7899,-3.9264,-3.9439,-3.9373,-3.9373,-3.9373,-3.9373,-3.9373,-3.8781,-3.7943,-3.6896,-3.6207,-3.537,-3.4262,-3.3963,-3.3006,-3.1182,-2.9654,-2.6926,0.0,0.0,0.0,0.0,0.0,0.0,0.0,0.0,0.0,0.0,0.0,0.0,0.0,0.0,0.0,0.0,0.0,0.0,0.0,0.0,0.0,0.0,0.0,0.0,0.0,0.0,-3.8661,-3.932,-4.1953,-4.3,-4.1235,-4.306,-4.4526,-4.4975,-4.6022,-4.7219,-4.8536,-4.8626,-4.885,-4.9299,-4.9299,-4.9299,-4.9299,-4.888,-4.8626,-4.864,-4.7967,-4.7638,-4.7638,-4.7399,-4.707,-4.6651,-4.6651,-4.6262,-4.5633,-4.5633,-4.4736,-4.3339,-4.2611,-4.2402,-4.2333,-4.2132,-4.2059,-4.2016,-4.1786,-4.176,-4.1674,-4.1471,-4.1123,-4.0738,-4.0716,-4.0329,-3.9792,-3.9453,-3.9393,-3.94,-3.9423,-3.94,-3.9414,-3.9414,-3.9397,-3.9373,-3.9373,-3.9373,-3.9373,-3.9373,-3.905,-3.8482,-3.7614,-3.7823,-3.7853,-3.7225,-3.7674,-3.8332,-3.899,-3.926,-3.9373,-3.9373,-3.9373,-3.9373,-3.9373,-3.8392,-3.7464,-3.6836,-3.5759,-3.4771,-3.3873,-3.3604,-3.2886,-3.154,-3.0043,-2.7829,-2.4926,0.0,0.0,0.0,0.0,0.0,0.0,0.0,0.0,0.0,0.0,0.0,0.0,0.0,0.0,0.0,0.0,0.0,0.0,0.0,0.0,0.0,0.0,0.0,-3.6484,-3.8835,-4.0748,-4.1474,-4.4407,-4.5873,-4.4586,-4.68,-4.8327,-4.8356,-4.897,-4.9359,-4.9359,-4.9359,-4.9359,-4.9359,-4.9359,-4.9359,-4.9359,-4.9359,-4.9329,-4.9329,-4.8626,-4.8327,-4.8297,-4.7638,-4.7339,-4.7339,-4.7309,-4.695,-4.6309,-4.6309,-4.5963,-4.5274,-4.4616,-4.4325,-4.4255,-4.3578,-4.3319,-4.322,-4.2624,-4.2426,-4.2327,-4.1666,-4.143,-4.1411,-4.1431,-4.1096,-4.0547,-3.9732,-3.9488,-3.9504,-3.9501,-3.9504,-3.9521,-3.9454,-3.943,-3.9403,-3.9439,-3.9439,-3.9373,-3.9373,-3.9373,-3.9373,-3.9373,-3.9373,-3.92,-3.8512,-3.899,0.0,-3.8512,-3.902,-3.9373,-3.9379,-3.9379,-3.9379,-3.9379,-3.7614,-3.6716,-3.7315,-3.5489,-3.4444,-3.4474,-3.3814,-3.2886,-3.163,-2.9684,-2.8368,-2.7735,0.0,0.0,0.0,0.0,0.0,0.0,0.0,0.0,0.0,0.0,0.0,0.0,0.0,0.0,0.0,0.0,0.0,0.0,0.0,0.0,0.0,0.0,-3.6794,-3.7907,-4.0681,-4.3341,-4.543,-4.689,-4.7788,-4.7908,-4.861,-4.9194,-4.9628,-4.9883,-5.0182,-5.0661,-5.069,-5.069,-5.069,-5.069,-5.069,-5.069,-5.0212,-4.9972,-4.9972,-4.9314,-4.906,-4.903,-4.8342,-4.8029,-4.7999,-4.7505,-4.7219,-4.704,-4.704,-4.692,-4.6651,-4.5484,-4.5016,-4.4948,-4.4276,-4.3728,-4.329,-4.3091,-4.3061,-4.3021,-4.2823,-4.2347,-4.1814,-4.1831,-4.1733,-4.1566,-4.133,-4.1258,-4.1302,-4.1288,-4.1768,-4.2002,-4.1085,-4.0085,-3.9579,-4.0224,-3.9865,-3.9373,-3.9373,-3.9373,-3.9373,-3.9373,-3.9373,-3.9349,-3.917,-3.929,0.0,-3.917,-3.932,-3.923,-3.8721,-3.8661,-3.8661,-3.8661,-3.7315,-3.6357,-3.6058,-3.4143,-3.3275,-3.3754,-3.3125,-3.3066,-3.3664,-3.1719,-3.0614,0.0,0.0,0.0,0.0,0.0,0.0,0.0,0.0,0.0,0.0,0.0,0.0,0.0,0.0,0.0,0.0,0.0,0.0,0.0,0.0,0.0,0.0,-3.6724,-3.8627,-3.9775,-4.2389,-4.5112,-4.7448,-4.8536,-4.9254,-4.9643,-4.9912,-5.0242,-5.0584,-5.0614,-5.0764,-5.1199,-5.1229,-5.1229,-5.1229,-5.1229,-5.1229,-5.1229,-5.0794,-5.0614,-5.0584,-4.9972,-4.9673,-4.9643,-4.9,-4.8731,-4.8701,-4.8013,-4.7714,-4.7698,-4.7429,-4.7309,0.0,0.0,0.0,0.0,0.0,-4.4299,-4.3728,-4.3728,-4.3519,-4.329,-4.329,-4.2962,-4.2525,-4.2525,-4.2525,-4.2545,-4.253,-4.2563,-4.2535,-4.2533,-4.2655,-4.2666,-4.2303,-4.1332,-4.0621,-4.1145,-4.0568,-3.9925,-3.9858,-3.9619,0.0,-3.9373,-3.9373,-3.932,-3.902,-3.923,-3.932,-3.902,-3.923,-3.926,-3.8871,-3.8811,-3.8811,-3.8811,-3.7614,0.0,0.0,0.0,-3.4233,-3.4322,-3.3694,0.0,0.0,0.0,0.0,0.0,0.0,0.0,0.0,-3.2013,-3.2337,0.0,0.0,0.0,0.0,0.0,0.0,0.0,0.0,0.0,0.0,0.0,0.0,0.0,0.0,0.0,0.0,-3.8283,-4.0723,-4.1673,-4.38,-4.6027,-4.806,-4.9296,-5.0057,-5.0285,-5.0823,-5.1229,-5.1229,-5.1229,-5.1229,-5.1229,0.0,0.0,0.0,0.0,-5.1229,-5.1229,-5.1229,-5.1229,-5.1199,-5.0584,-5.0315,-5.0285,-4.9657,-4.9434,-4.9329,-4.8686,-4.8357,-4.8237,-4.7682,-4.7382,-4.7249,-4.6681,-4.639,-4.6251,-4.565,-4.498,-4.4422,-4.4393,0.0,0.0,-4.3479,-4.3379,-4.329,-4.329,-4.329,-4.329,-4.329,-4.329,-4.329,-4.329,-4.2712,-4.2333,-4.3094,-4.268,-4.2032,-4.2032,-4.1393,-4.071,-4.0546,-4.0038,-3.9619,-3.9559,-3.9433,-3.92,-3.8601,-3.902,-3.92,-3.8571,-3.905,-3.9379,-3.932,0.0,0.0,-3.932,-3.8153,-3.7644,-3.8242,-3.7225,-3.6297,-3.5639,-3.525,-3.528,-3.5818,-3.5818,-3.6387,-3.7524,-3.8093,-3.8123,-3.7524,-3.3425,-3.3066,0.0,0.0,0.0,0.0,0.0,0.0,0.0,0.0,0.0,0.0,0.0,0.0,0.0,0.0,0.0,-3.8257,-3.9645,-4.1054,-4.2654,-4.3797,-4.5363,-4.7932,-4.8431,-4.9238,-5.082,-5.1139,-5.1229,-5.1229,-5.1229,-5.1229,-5.1229,-5.1229,-5.1229,-5.1229,-5.1229,-5.1229,-5.1229,-5.1229,-5.1229,-5.1229,0.0,0.0,-5.0973,-5.0339,-5.0037,-5.0007,-4.9373,-4.879,-4.8298,-4.8186,-4.7795,-4.7309,-4.716,-4.6778,-4.6294,-4.6122,-4.5675,-4.5114,-4.5102,-4.4665,-4.4137,-4.4368,-4.3908,-4.329,-4.329,-4.329,0.0,-4.329,-4.329,-4.329,-4.329,-4.317,-4.308,-4.3279,-4.2809,-4.2329,-4.2329,-4.179,-4.1242,-4.1205,-4.1085,-4.0816,-4.0307,-3.9768,-3.9379,-3.923,-3.9313,-3.9343,-3.923,-3.9313,-3.92,-3.8661,-3.8571,-3.8571,-3.8571,-3.7853,-3.7464,-3.7584,-3.7375,-3.6956,-3.6327,-3.7704,-3.8272,-3.7853,-3.7823,-3.7943,-3.8212,-3.8332,-3.8601,-3.902,-3.8123,-3.7734,0.0,0.0,0.0,0.0,0.0,0.0,0.0,0.0,0.0,0.0,0.0,-3.2432,0.0,0.0,-3.781,-3.9725,-4.0792,-4.1698,-4.2569,-4.3244,-4.4494,-4.6839,-4.8081,-4.9107,-5.0114,-5.0793,-5.1229,-5.1229,-5.1229,-5.1229,-5.1229,-5.1229,-5.1229,-5.1229,-5.1229,-5.1229,-5.1229,-5.1229,-5.1229,-5.1229,-5.1229,-5.1229,-5.1199,-5.0879,-5.0696,-5.0666,-5.0057,-4.9566,-4.9194,-4.8579,-4.7919,-4.7309,-4.7309,-4.7103,-4.6808,-4.68,-4.6373,-4.5773,-4.5819,-4.5364,-4.4766,-4.4738,-4.4037,-4.3309,-4.328,-4.329,-4.329,-4.329,-4.329,-4.329,-4.329,-4.329,-4.329,-4.329,-4.309,-4.2851,-4.2851,-4.2342,-4.1901,-4.1901,-4.1632,-4.1265,-4.0935,-4.0337,-3.9798,-3.9433,-3.9373,-3.9373,-3.9373,-3.9373,-3.929,-3.8931,-3.8901,-3.8901,-3.8901,-3.8601,-3.8422,-3.8422,-3.8422,-3.8272,-3.7973,-3.8901,-3.926,-3.8901,-3.8901,-3.8901,-3.8901,-3.8901,-3.908,-3.9373,-3.9373,-3.923,0.0,0.0,0.0,0.0,0.0,0.0,0.0,0.0,-2.993,-3.1838,-3.3721,-3.5454,-3.6958,-3.8492,-3.9798,-4.0676,-4.1681,-4.2363,-4.2363,-4.2766,-4.3643,-4.5331,-4.7225,-4.8489,-4.8738,-5.0017,-5.0793,-5.0793,-5.1058,-5.1229,-5.1229,-5.1229,-5.1058,-5.0822,-5.0793,-5.0698,-5.0383,-5.0383,-5.0383,-5.0383,-5.0383,-5.0383,-5.0383,-5.0383,-5.0383,-5.0383,-4.9703,-4.9693,-5.0046,-4.8281,-4.7377,-4.7109,-4.6961,-4.6784,-4.6608,-4.7119,-4.697,-4.6499,-4.6506,-4.607,-4.5442,-4.527,-4.4336,-4.3326,-4.33,-4.329,-4.329,-4.329,-4.329,-4.329,-4.329,-4.329,-4.329,-4.329,-4.329,-4.329,-4.329,-4.291,-4.259,-4.259,-4.2132,-4.1713,-4.1594,-4.1145,-4.0516,-3.9738,-3.9463,-3.9373,-3.9373,-3.9373,-3.9373,-3.9373,-3.9373,-3.9373,-3.9373,-3.9373,-3.9373,-3.9373,-3.9373,-3.9373,-3.9373,-3.9373,-3.9373,-3.9373,-3.9373,-3.9373,-3.9373,-3.9373,-3.9373,-3.9373,-3.9373,-3.9463,-1.9199,-2.0553,-2.2891,-2.6023,-2.7569,-2.9626,0.0,0.0,-3.4726,-3.7412,-3.8542,-3.9245,-3.9923,-4.1003,-4.1886,-4.2011,-4.2539,-4.2886,-4.2886,-4.2936,-4.3103,-4.3305,-4.4591,-4.5978,-4.7197,-4.8589,-4.9406,-4.9406,-5.0555,-5.1229,-5.1229,-5.1229,-5.065,-4.9455,-4.9406,-4.8787,-4.7554,-4.7554,-4.7554,-4.7554,-4.7554,-4.7554,-4.7554,-4.7554,-4.7554,-4.7526,-4.684,-4.7941,-4.9911,-4.6234,-4.5411,-4.6425,-4.5846,-4.4932,-4.418,-4.6491,-4.7236,-4.7206,-4.7219,-4.6748,-4.6275,-4.6826,-4.5331,-4.3326,-4.33,-4.329,-4.329,-4.329,-4.329,-4.329,-4.329,-4.329,-4.329,-4.329,-4.329,-4.329,-4.329,-4.323,-4.32,-4.32,-4.314,-4.294,-4.2381,-4.2231,-4.1752,-4.0487,-3.9798,-3.9373,-3.9373,-3.9373,-3.9373,-3.9373,-3.9373,-3.9373,-3.9373,-3.9373,-3.9373,-3.9373,-3.9373,-3.9373,-3.9373,-3.9373,-3.9373,-3.9373,-3.9373,-3.9373,-3.9373,-3.9373,-3.9373,-3.9373,-3.9373,-3.9738,-2.168,-2.4075,-2.6716,0.0,-3.0754,-3.3281,-3.611,-3.6408,-3.6684,-3.8492,-3.9823,-4.0727,-4.0899,-4.1882,-4.269,0.0,-4.2836,-4.2986,-4.2986,-4.2766,-4.2564,-4.2564,-4.3008,-4.4009,-4.574,-4.7146,-4.7959,-4.7959,-4.8489,-4.8787,-4.8787,-4.8787,-4.8539,-4.8038,-4.7959,-4.7707,-4.7094,-4.7094,-4.7094,-4.7094,-4.7094,-4.7094,-4.7094,-4.7094,-4.7094,-4.7094,-4.6767,-4.7119,-4.7709,-4.6027,-4.5268,-4.5155,-4.4855,-4.4218,-4.3817,-4.6373,-4.683,-4.6198,-4.6182,-4.6486,-4.691,-4.7194,-4.6029,-4.4393,-4.4208,-4.3758,-4.329,-4.329,-4.329,-4.329,-4.329,-4.329,-4.329,-4.329,-4.329,-4.329,-4.329,-4.329,-4.329,-4.329,-4.329,-4.32,-4.297,-4.265,-4.2201,-4.1662,-4.0666,-3.9978,-3.9978,-3.9649,-3.9373,-3.9373,-3.9373,-3.9373,-3.9373,-3.9373,-3.9373,-3.9373,-3.9373,-3.9373,-3.9373,-3.9373,-3.9373,-3.9373,-3.9373,-3.9373,-3.9373,-3.9373,-3.9619,-3.9978,-3.9978,-4.0546,-2.3887,-2.6793,0.0,-3.0926,-3.3741,-3.6358,-3.6935,-3.7487,-3.8165,-3.912,-4.0275,-4.11,-4.125,-4.2108,-4.2816,-4.2816,-4.2886,-4.2986,-4.2986,-4.2564,-4.2263,-4.2414,-4.2313,-4.2772,-4.432,-4.5714,-4.6526,-4.6526,-4.6888,-4.7094,-4.7094,-4.7094,-4.6888,-4.6526,-4.6526,-4.6317,-4.5978,-4.5978,-4.5978,-4.5978,-4.5978,-4.5978,-4.5978,-4.5978,-4.6188,-4.6474,-4.6135,-4.6125,-4.6279,-4.54,-4.4729,-4.4216,-4.389,-4.3313,-4.2955,-4.5384,-4.5664,-4.4865,-4.4874,-4.5694,-4.6742,-4.6668,-4.5902,-4.4971,-4.4501,-4.3514,-4.265,-4.3005,-4.2736,-4.2345,-4.2345,-4.2345,-4.2345,-4.2345,-4.2345,-4.2345,-4.2345,-4.2345,-4.2345,-4.2345,-4.2618,-4.282,-4.282,-4.2713,-4.2641,-4.2641,-4.1654,-4.0816,-4.0457,-3.9828,-3.9373,-3.9373,-3.9373,-3.9373,-3.9373,-3.9373,-3.9373,-3.9373,-3.9373,-3.9373,-3.9373,-3.9373,-3.9373,-3.9373,-3.9373,-3.9373,-3.9373,-3.9619,-3.9948,-4.0397,-4.0576,-4.1294,-2.5292,0.0,-3.0468,-3.329,-3.5964,-3.809,-3.8668,-3.922,-3.9772,-4.035,-4.0501,-4.0701,-4.1175,-4.1806,-4.2238,-4.2238,-4.269,-4.2986,-4.2986,-4.2564,-4.2414,-4.2886,-4.2539,-4.2439,0.0,-4.4264,-4.5048,-4.5048,-4.6317,-4.7094,-4.7094,-4.7094,-4.6474,-4.5102,-4.5048,-4.4427,-4.3129,-4.3129,-4.3129,-4.3129,-4.3129,-4.3129,-4.3129,-4.3129,-4.3797,-4.4994,-4.3713,-4.4617,-4.6833,-4.3642,-4.3059,-4.4071,-4.2884,-4.1672,-4.0819,-4.2858,-4.3584,-4.3566,-4.3547,-4.4394,-4.5411,-4.4977,-4.4656,-4.4311,-4.3644,-4.2188,-4.1023,-4.2267,-4.1369,-3.9972,-3.9972,-3.9972,-3.9972,-3.9972,-3.9972,-3.9972,-3.9972,-3.9972,-3.9972,-3.9972,-4.0916,-4.1629,-4.1629,-4.2548,-4.326,-4.326,-4.2731,-4.1871,-4.0576,-3.9828,-3.9373,-3.9373,-3.9373,-3.9373,-3.9373,-3.9373,-3.9373,-3.9373,-3.9373,-3.9373,-3.9373,-3.9373,-3.9373,-3.9373,-3.9373,-3.9373,-3.9373,-4.0068,-4.0367,-4.0427,-4.1055,-4.1752,-2.6613,0.0,-3.2225,-3.4813,-3.7046,-3.8718,-3.9295,-3.9572,-3.9647,-3.9471,-3.9421,-3.9371,-3.917,-3.9898,-4.0651,-4.1003,-4.1831,-4.2615,-4.2936,-4.2564,-4.2288,-4.2464,-4.2313,0.0,0.0,0.0,0.0,-4.3657,-4.4126,-4.4372,-4.4372,-4.4372,-4.418,-4.3713,-4.3657,-4.3436,-4.2986,-4.2986,-4.2986,-4.2986,-4.2986,-4.2986,-4.2986,-4.2986,-4.324,-4.3657,-4.3184,-4.3492,-4.4292,-4.3203,-4.2789,-4.2843,-4.2406,-4.1554,-4.0581,-4.1286,-4.1253,-4.1086,-4.1959,-4.3063,-4.3973,-4.3012,-4.2909,-4.3083,-4.2859,-4.2074,-4.1266,-4.1323,-4.0912,-4.0338,-3.9996,-3.9913,-3.9913,-3.9913,-3.9913,-3.9913,-3.9913,-3.9913,-4.0102,-4.0873,-4.1337,-4.1864,-4.2589,-4.3021,-4.329,-4.329,-4.2791,-4.2081,-4.1175,-4.0487,-4.0068,-4.0068,-3.9679,-3.9373,-3.9373,-3.9373,-3.9373,-3.9373,-3.9373,-3.9373,-3.9373,-3.9373,-3.9619,-4.0068,-4.0068,-4.0277,-4.0726,-4.0935,-4.1265,-4.1752,-4.1961,-4.2372,-2.807,-3.0385,-3.2737,-3.5888,-3.7542,-3.8656,-3.9494,-3.9546,-3.9245,-3.8668,-3.8241,-3.7789,-3.7236,-3.7889,-3.8768,-3.9496,-4.0551,-4.1659,-4.2615,-4.2208,-4.2007,-4.2464,-4.2338,-4.2288,0.0,0.0,0.0,-4.2986,-4.2986,-4.2986,-4.2986,-4.2986,-4.2986,-4.2986,-4.2986,-4.2986,-4.2986,-4.2986,-4.2986,-4.2986,-4.2986,-4.2986,-4.2986,-4.2986,-4.2986,-4.2986,-4.2986,-4.2986,-4.2986,-4.2986,-4.2816,-4.2489,-4.2288,-4.1605,-4.0724,-4.0601,-4.0174,-3.9826,-4.0665,-4.1779,-4.2598,-4.1319,-4.1478,-4.2178,-4.2201,-4.1429,-4.0582,-4.0692,-4.0264,-3.9654,-3.928,-3.9085,-3.8924,-3.8924,-3.8764,-3.8649,-3.8649,-3.8649,-3.8872,-3.9596,-4.0074,-4.059,-4.1337,-4.2152,-4.282,-4.325,-4.297,-4.2462,-4.1841,-4.1145,-4.0756,-4.0756,-4.0367,-4.0038,-3.9798,-3.9978,-4.0008,-3.9798,-3.9978,-4.0127,-4.0127,-4.0127,-4.0307,-4.0756,-4.0756,-4.0965,-4.1422,-4.1662,-4.1991,-4.241,-4.265,-4.294,-2.9599,-3.0874,-3.2244,-3.6484,-3.7477,-3.7796,-3.9312,-3.9169,-3.8592,-3.8015,-3.701,-3.6056,0.0,0.0,-3.6709,-3.7764,-3.8969,-4.035,-4.2011,-4.1756,-4.1806,0.0,0.0,0.0,0.0,0.0,0.0,-4.2986,0.0,-4.2986,-4.2986,-4.2986,-4.2986,-4.2986,-4.2986,-4.2986,-4.2986,-4.2986,-4.2986,-4.2986,-4.2986,-4.2986,-4.2986,-4.2986,-4.2986,-4.2986,-4.2986,-4.2986,-4.2986,-4.2986,-4.2986,-4.2936,-4.2464,-4.1856,-4.1225,-4.0752,-4.0199,-3.9697,-3.9697,-4.049,-4.1312,-4.0106,-4.049,-4.1466,-4.1476,-4.0332,-3.9196,-4.0383,-3.9406,-3.804,-3.8015,-3.7613,-3.7236,-3.7236,-3.6857,-3.6455,-3.6455,-3.643,-3.6405,-3.6499,-3.7402,-3.8198,-3.8198,-4.0031,-4.1906,-4.2941,-4.317,-4.3041,-4.253,-4.1871,-4.1482,-4.1482,-4.1414,-4.1115,-4.0516,-4.1025,-4.1115,-4.0487,-4.1025,-4.1422,-4.1422,-4.1422,-4.1422,-4.1482,-4.1482,-4.1444,-4.1474,-4.2141,-4.244,-4.247,-4.303,-4.329,-3.0838,-3.223,-3.3853,-3.7092,-3.6929,-3.6449,-3.8633,-3.7784,-3.6472,-3.6221,-3.5303,-3.4098,0.0,0.0,0.0,-3.6659,-3.912,0.0,-4.2585,-4.2635,0.0,-4.2936,0.0,-4.2866,-4.2961,-4.2986,0.0,0.0,-4.2986,-4.2986,-4.2986,-4.2986,-4.2986,-4.2986,-4.2986,-4.2986,-4.2986,-4.2986,-4.2986,-4.2986,-4.2986,-4.2986,-4.2986,-4.2986,-4.2986,-4.2986,-4.2986,-4.2986,-4.2986,-4.2986,-4.2986,-4.2961,-4.2866,-4.2183,-4.1275,-4.1125,-4.0526,-3.9697,-3.9697,-3.9927,-4.0131,-3.9799,-3.9927,-4.0183,-4.016,-3.9879,-3.9498,-3.9423,-3.9044,-3.8542,-3.8115,-3.7889,-3.7789,-3.7789,-3.7387,-3.6985,-3.6985,-3.6707,-3.6662,-3.7494,-3.8604,-3.9448,-3.9448,-3.9929,-4.0447,-4.0703,-4.1462,-4.2257,-4.2971,-4.2521,-4.2141,-4.2141,-4.1722,-4.1362,-4.1145,-4.1294,-4.1362,-4.1145,-4.1332,-4.1422,-4.1422,-4.1422,-4.1662,-4.2141,-4.2141,-4.2342,-4.2851,-4.3,-4.309,-4.309,-4.323,-4.329,-3.101,-3.2031,-3.3306,-3.5589,-3.508,-3.4381,-3.5833,-3.5115,-3.3752,-3.2659,-3.204,0.0,-2.9933,-3.1871,0.0,0.0,0.0,0.0,-4.2032,-4.2459,-4.2766,0.0,-4.2986,0.0,-4.2986,-4.2986,-4.2986,0.0,-4.2986,-4.2986,-4.2986,-4.2986,-4.2986,-4.2986,-4.2986,-4.2986,-4.2986,-4.2986,-4.2986,-4.2986,-4.2986,-4.2986,-4.2986,-4.2986,-4.2986,-4.2986,0.0,-4.2986,-4.2986,-4.2986,-4.2986,-4.2986,-4.2986,-4.2459,-4.1681,-4.1681,-4.1003,-4.0049,-4.0049,-3.9898,-3.9697,-3.9697,-3.9697,-3.9697,-3.9697,-3.9697,-3.9622,-3.932,-3.922,-3.9145,-3.8843,-3.8567,-3.8391,-3.8391,-3.7965,-3.7538,-3.7538,-3.7287,-3.7301,-3.7942,-3.8411,-3.8868,-3.9384,-3.9257,-3.9271,-3.9826,-4.0873,-4.1864,-4.2467,-4.2723,-4.2791,-4.2791,-4.2462,-4.2132,-4.1871,-4.2073,-4.2102,-4.1871,-4.2073,-4.2252,-4.2252,-4.2252,-4.2402,-4.2791,-4.2791,-4.297,-4.329,-4.329,-4.329,-4.329,-4.329,-4.329,-3.084,-3.1328,-3.1939,-3.3447,-3.2886,-3.2141,-3.2543,-3.1991,-3.0794,-2.8804,0.0,-2.8224,-2.7245,-2.934,-3.1772,-3.3446,0.0,-3.8818,-4.1128,-4.1856,-4.2414,-4.2911,-4.2986,-4.2986,-4.2986,-4.2986,-4.2986,-4.2986,-4.2986,-4.2986,-4.2986,-4.2986,-4.2986,-4.2986,-4.2986,-4.2986,-4.2986,-4.2986,-4.2986,-4.2986,-4.2986,-4.2986,-4.2986,-4.2986,-4.2986,-4.2986,-4.2986,0.0,-4.2986,-4.2986,-4.2986,-4.2986,-4.2986,-4.269,-4.2213,-4.2213,-4.1505,-4.0626,-4.0551,-4.0199,-3.9798,-3.9722,-3.9697,-3.9697,-3.9697,-3.9697,-3.9697,-3.9697,-3.9697,-3.9697,-3.9697,-3.9346,-3.902,-3.902,-3.8542,-3.8115,-3.8115,-3.8065,-3.8015,-3.8015,-3.7613,-3.7599,-3.8595,-3.8411,-3.841,-3.9407,-4.0516,-4.1212,-4.1127,-4.2426,-4.329,-4.329,-4.329,-4.312,-4.256,-4.3,-4.309,-4.256,-4.303,-4.329,-4.329,-4.329,-4.329,-4.329,-4.329,-4.329,-4.329,-4.329,-4.329,-4.329,-4.3379,-4.3409,-3.1816,-3.1992,-3.2454,-3.3924,-3.2166,-3.0498,-3.2192,-3.0351,0.0,0.0,-2.7049,-2.6171,-2.5074,-2.7773,-3.0713,-3.2398,-3.5637,-3.8944,-4.163,-4.2137,-4.2414,0.0,-4.2986,0.0,0.0,0.0,0.0,0.0,0.0,-4.2986,-4.2986,-4.2986,-4.2986,-4.2986,-4.2986,-4.2986,-4.2986,-4.2986,-4.2986,-4.2986,-4.2986,-4.2986,-4.2986,-4.2986,-4.2986,-4.2986,-4.2986,0.0,-4.2986,-4.2986,-4.2986,-4.2986,-4.2986,-4.269,-4.2213,-4.2213,-4.1756,-4.1075,-4.0676,-4.045,-4.03,-3.9848,-3.9697,-3.9697,-3.9697,-3.9697,-3.9697,-3.9697,-3.9697,-3.9697,-3.9697,-3.9622,-3.9546,-3.9546,-3.912,-3.8718,-3.8718,-3.8341,-3.8015,-3.8015,-3.7939,-3.7913,-3.8133,-3.8057,-3.7927,-3.7709,-3.8661,-3.9229,-3.8765,-4.142,-4.329,-4.329,-4.329,-4.326,-4.314,-4.323,-4.326,-4.314,-4.323,-4.329,-4.329,-4.329,-4.329,-4.329,-4.329,-4.329,-4.329,-4.329,-4.329,-4.329,-4.3898,-4.4137,-3.1992,-3.2229,-3.235,-3.3075,-3.1242,-2.9208,-2.8977,0.0,0.0,0.0,-2.4107,-2.4037,-2.3243,-2.6122,0.0,-3.0476,-3.3818,-3.7262,-4.0101,-4.0927,0.0,-4.2836,0.0,0.0,0.0,0.0,0.0,0.0,0.0,-4.2986,-4.2986,-4.2986,-4.2986,-4.2986,-4.2986,-4.2986,-4.2986,-4.2986,-4.2986,-4.2986,-4.2986,-4.2986,-4.2986,-4.2986,-4.2986,-4.2986,-4.2986,0.0,-4.2986,-4.2986,-4.2986,-4.2986,-4.2986,-4.2811,-4.264,-4.264,-4.2233,-4.1731,-4.1455,-4.1178,-4.0852,-4.03,-3.9923,-3.9697,-3.9697,-3.9697,-3.9697,-3.9697,-3.9697,-3.9697,-3.9697,-3.9697,-3.9697,-3.9697,-3.9496,-3.9295,-3.9295,-3.9094,-3.8894,-3.8894,-3.8642,-3.8467,-3.8467,-3.8216,-3.7914,-3.7663,-3.8626,-3.9301,-3.9011,-4.0697,-4.1835,-4.1561,-4.207,-4.2426,-4.2426,-4.2941,-4.329,-4.329,-4.329,-4.329,-4.329,-4.329,-4.329,-4.329,-4.329,-4.329,-4.329,-4.3648,-4.3798,-4.3828,-4.4526,-4.4825,-3.168,-3.1953,-3.2031,-3.2031,-3.0391,-2.8281,-2.6328,-2.4933,0.0,0.0,-2.1546,-2.2131,-2.1759,-2.4365,-2.6925,0.0,-3.1496,-3.4956,-3.8116,-3.9542,-4.1003,0.0,0.0,0.0,0.0,0.0,0.0,0.0,0.0,0.0,-4.2986,-4.2986,-4.2986,-4.2986,-4.2986,-4.2986,-4.2986,-4.2986,-4.2986,-4.2986,-4.2986,-4.2986,-4.2986,-4.2986,-4.2986,-4.2986,-4.2986,0.0,0.0,-4.2986,-4.2986,-4.2986,-4.2986,-4.2986,-4.2986,-4.2986,-4.271,-4.2363,-4.2263,-4.1882,-4.143,-4.0877,-4.0325,-3.9848,-3.9722,-3.9697,-3.9697,-3.9697,-3.9697,-3.9697,-3.9697,-3.9697,-3.9697,-3.9697,-3.9697,-3.9697,-3.9697,-3.9697,-3.9697,-3.9697,-3.9346,-3.9095,-3.9095,-3.8668,-3.8341,-3.8216,-3.9002,-3.9555,-3.9425,-3.9801,-3.9961,-3.9528,-4.0544,-4.1337,-4.1587,-4.2222,-4.278,-4.325,-4.286,-4.2699,-4.2941,-4.3059,-4.3148,-4.3148,-4.3538,-4.3708,-4.3708,-4.4287,-4.4526,-4.4526,-4.5214,-4.5514,-3.0879,-3.1289,-3.1582,-3.1582,-2.9961,-2.7988,-2.6641,0.0,0.0,-2.1424,-2.0958,-2.0761,-2.0722,-2.2152,-2.3963,-2.5979,0.0,-3.2626,-3.6783,-3.8728,-4.0576,0.0,0.0,0.0,0.0,0.0,0.0,0.0,0.0,0.0,-4.2986,-4.2986,-4.2986,-4.2986,-4.2986,-4.2986,-4.2986,-4.2986,-4.2986,-4.2986,-4.2986,-4.2986,-4.2986,-4.2986,-4.2986,-4.2986,-4.2986,0.0,0.0,-4.2986,-4.2986,-4.2986,-4.2986,-4.2986,-4.2986,-4.2986,-4.2936,-4.2891,-4.2389,-4.2162,-4.2037,-4.1455,-4.0824,-4.035,-3.9848,-3.9697,-3.9697,-3.9697,-3.9697,-3.9697,-3.9697,-3.9697,-3.9697,-3.9697,-3.9697,-3.9697,-3.9697,-3.9697,-3.9697,-3.9697,-3.9647,-3.9622,-3.9622,-3.9572,-3.9371,-3.8868,-3.8894,-3.8793,-3.8263,-3.8185,-3.8233,-3.8182,-3.9291,-4.049,-4.1504,-4.0746,-4.1113,-4.317,-4.1365,-4.0661,-4.1711,-4.2344,-4.2662,-4.2662,-4.427,-4.5125,-4.5125,-4.5185,-4.5214,-4.5214,-4.5903,-4.619,-3.0215,-3.0976,-3.1445,-3.1211,-2.9512,-2.75,-2.5957,0.0,-2.2402,-2.1094,-2.0723,-2.0605,-2.0605,-2.1555,-2.2808,-2.4278,-2.6912,-2.9725,-3.237,-3.4605,-3.6965,-3.9643,0.0,0.0,0.0,0.0,0.0,0.0,0.0,0.0,-4.2986,-4.2986,-4.2986,-4.2986,-4.2986,-4.2986,-4.2986,-4.2986,-4.2986,-4.2986,-4.2986,-4.2986,-4.2986,-4.2986,-4.2986,-4.2986,-4.2986,0.0,0.0,-4.2986,-4.2986,-4.2986,-4.2986,-4.2986,-4.2986,-4.2986,-4.2986,-4.2936,-4.2791,-4.2715,-4.2615,-4.2007,-4.1681,-4.1404,-4.0852,-4.045,-4.0199,-4.0199,-3.9948,-3.9697,-3.9697,-3.9697,-3.9697,-3.9697,-3.9697,-3.9697,-3.9697,-3.9697,-3.9697,-3.9697,-3.9697,-3.9697,-3.9697,-3.9697,-3.9622,-3.9396,-3.9371,-3.9295,-3.9044,-3.8743,-3.8517,-3.8517,-3.8972,-3.9636,-4.0441,-4.0453,-4.0928,-4.2166,-4.1335,-4.1096,-4.1511,-4.2509,-4.2738,-4.1964,-4.3387,-4.4163,-4.4163,-4.4572,-4.5165,-4.5933,-4.6591,-4.692,-2.9101,-3.0078,-3.0703,-3.0547,-2.8984,-2.7051,0.0,-2.375,-2.2148,-2.0879,-2.0605,-2.0605,-2.0605,-2.1145,-2.1891,-2.2897,-2.501,-2.7259,-2.9261,-3.1739,-3.4314,0.0,0.0,-3.8251,0.0,0.0,0.0,0.0,0.0,0.0,-4.1615,-4.2012,-4.2513,-4.2986,-4.2986,-4.2986,-4.2986,-4.2986,-4.2986,-4.2986,-4.2986,-4.2986,-4.2986,-4.2986,-4.2986,-4.2986,-4.2986,0.0,0.0,-4.2986,-4.2986,-4.2986,-4.2986,-4.2986,-4.2986,-4.2986,-4.2986,-4.2986,-4.2986,-4.2986,-4.2911,-4.259,-4.2464,-4.2389,-4.1932,-4.1329,-4.0752,-4.0752,-4.035,-3.9898,-3.9747,-3.9697,-3.9697,-3.9697,-3.9697,-3.9697,-3.9697,-3.9697,-3.9697,-3.9697,-3.9697,-3.9697,-3.9697,-3.9697,-3.9697,-3.9697,-3.9697,-3.9697,-3.9697,-3.9346,-3.912,-3.912,-3.9005,-3.9138,-3.9781,-3.9828,-4.0348,-4.1443,-4.0827,-4.0595,-4.0993,-4.2074,-4.2203,-4.1284,-4.2716,-4.343,-4.343,-4.3913,-4.4592,-4.5493,-4.6314,-4.6931,-2.7344,-2.8301,-2.9043,-2.9473,-2.8301,-2.668,-2.5419,-2.375,-2.2148,-2.0879,-2.0605,-2.0605,-2.0605,-2.0605,-2.0899,-2.1779,-2.3268,-2.536,-2.8374,-3.1271,0.0,0.0,0.0,0.0,0.0,0.0,0.0,0.0,0.0,0.0,-3.8283,-3.9756,-4.1362,-4.2986,-4.2986,-4.2986,-4.2986,-4.2986,-4.2986,-4.2986,-4.2986,-4.2986,-4.2986,-4.2986,-4.2986,0.0,0.0,0.0,0.0,-4.2986,-4.2986,-4.2986,-4.2986,-4.2986,-4.2986,-4.2986,-4.2986,-4.2986,-4.2986,-4.2986,-4.2986,-4.2961,-4.2961,-4.2961,-4.2961,-4.2208,-4.1275,-4.1275,-4.0874,-4.0375,-3.9848,-3.9697,-3.9697,-3.9697,-3.9697,-3.9697,-3.9697,-3.9697,-3.9697,-3.9697,-3.9697,-3.9697,-3.9697,-3.9697,-3.9697,-3.9697,-3.9697,-3.9697,-3.9697,-3.9697,-3.9697,-3.9697,-3.9246,-3.9141,-3.9738,-3.87,-3.9013,-4.1334,-3.9325,-3.8579,-3.9781,-4.0478,-4.0817,-4.0817,-4.2556,-4.3476,-4.3476,-4.3504,-4.3551,-4.3551,-4.4812,-4.6121,-2.5243,-2.6289,-2.707,-2.6652,-2.5859,-2.4902,-2.3613,-2.2676,-2.1797,-2.082,-2.0605,-2.0605,-2.0605,-2.0605,-2.1075,-2.2562,-2.3839,0.0,0.0,0.0,0.0,-3.2781,-3.577,0.0,0.0,0.0,0.0,0.0,0.0,0.0,-3.8223,-3.8698,-3.9698,-4.1305,-4.2432,-4.2986,-4.2986,-4.2986,-4.2986,-4.2986,-4.2986,-4.2986,-4.2986,-4.2986,-4.2986,0.0,0.0,0.0,0.0,-4.2986,-4.2986,-4.2986,-4.2986,-4.2986,-4.2986,-4.2986,-4.2986,-4.2986,-4.2986,-4.2986,-4.2986,-4.2986,-4.2986,-4.2986,-4.2986,-4.2459,-4.1831,-4.1401,-4.1175,-4.0974,-4.0852,-4.0774,-4.0774,-4.0774,-4.0774,-4.0774,-4.0774,-4.0526,-4.0249,-4.0249,-3.9948,-3.9697,-3.9697,-3.9697,-3.9697,-3.9697,-3.9697,-3.9697,-3.9697,-3.9697,-3.9697,-3.9697,-3.9546,-3.9499,-3.9702,-3.9045,-3.9094,-4.0225,-3.9575,-3.9297,-3.9752,-4.0754,-4.0958,-4.0058,-4.1462,-4.223,-4.223,-4.223,-4.2641,-4.3504,-4.3929,-4.4303,0.0,-2.4538,-2.5312,-2.4922,-2.4375,-2.3647,-2.2734,-2.2051,-2.1445,-2.0742,-2.0605,-2.0605,-2.0605,-2.0605,-2.1075,-2.2503,-2.3275,0.0,0.0,0.0,0.0,-3.1852,0.0,0.0,0.0,0.0,0.0,0.0,0.0,0.0,-3.6356,-3.6963,-3.8022,-3.9639,-4.1248,-4.2375,-4.2961,-4.2986,-4.2986,-4.2986,-4.2986,-4.2986,-4.2986,-4.2986,-4.2986,0.0,0.0,0.0,0.0,-4.2986,-4.2986,-4.2986,-4.2986,-4.2986,-4.2986,-4.2986,-4.2986,-4.2986,-4.2986,-4.2986,-4.2986,-4.2986,-4.2986,-4.2986,-4.2986,-4.2791,-4.2414,-4.1806,-4.1656,-4.1605,-4.1351,-4.1275,-4.1275,-4.1275,-4.1275,-4.1275,-4.1275,-4.1025,-4.0774,-4.0774,-4.0375,-3.9998,-3.9998,-3.9823,-3.9697,-3.9697,-3.9697,-3.9697,-3.9697,-3.9697,-3.9697,-3.9697,-3.9697,-3.9697,-3.9697,-3.9371,-3.932,-3.9672,-3.9697,-3.9697,-3.9697,-4.0465,-4.0516,-3.9749,-4.0465,-4.0895,-4.0895,-4.0895,-4.1541,-4.2786,-4.2982,-4.3354,0.0,-2.284,-2.3613,-2.3965,-2.3452,-2.2808,-2.2422,-2.1758,0.0,-2.0703,-2.0605,-2.0625,-2.0683,-2.0664,-2.0977,-2.1914,-2.209,0.0,0.0,-2.7317,0.0,0.0,-3.2254,0.0,0.0,0.0,0.0,0.0,0.0,0.0,-3.3418,-3.4798,-3.6356,-3.7985,-3.9464,-4.1133,-4.2986,-4.2986,-4.2986,-4.2986,-4.2986,-4.2986,-4.2986,-4.2986,-4.2986,0.0,0.0,0.0,0.0,-4.2986,-4.2986,-4.2986,-4.2986,-4.2986,-4.2986,-4.2986,-4.2986,-4.2986,-4.2986,-4.2986,-4.2986,-4.2986,-4.2986,-4.2986,-4.2986,-4.2986,-4.2861,-4.2414,-4.2263,-4.2162,-4.158,-4.1401,-4.1401,-4.1401,-4.1401,-4.1401,-4.1401,-4.1376,-4.1351,-4.1351,-4.0953,-4.0576,-4.0576,-4.0149,-3.9798,-3.9798,-3.9798,-3.9798,-3.9747,-3.9747,-3.9747,-3.9697,-3.9697,-3.9697,-3.9697,-3.9697,-3.9697,-3.9697,-3.9697,-3.9697,-3.9697,-3.9697,-3.9697,-3.9697,-3.9747,-3.9772,-3.9798,-3.9798,-4.0441,-4.16,-4.2075,-4.2968,-1.939,0.0,-2.0781,-2.0547,-2.084,-2.1055,0.0,-2.0859,-2.1113,-2.0703,-2.0605,-2.0801,-2.1486,-2.1309,-2.168,-2.3516,0.0,0.0,-2.6934,0.0,0.0,-3.2514,-3.292,-3.3008,0.0,0.0,0.0,0.0,0.0,-3.3418,-3.3418,-3.3776,-3.4674,-3.6295,-3.6699,-3.8912,-4.2986,-4.2986,-4.2986,-4.2986,-4.2986,-4.2986,-4.2986,-4.2986,-4.2986,0.0,0.0,0.0,-4.2986,-4.2986,-4.2986,-4.2986,-4.2986,-4.2986,-4.2986,-4.2986,-4.2986,-4.2986,-4.2986,-4.2986,-4.2986,-4.2986,-4.2986,-4.2986,-4.2986,-4.2986,-4.2961,-4.2866,-4.2841,-4.276,-4.2635,-4.2585,-4.2585,-4.2585,-4.2585,-4.2585,-4.2585,-4.2258,-4.1957,-4.1957,-4.153,-4.11,-4.11,-4.0974,-4.0899,-4.0899,-4.0899,-4.0802,-4.0375,-4.0325,-4.0149,-3.9747,-3.9697,-3.9697,-3.9697,-3.9697,-3.9697,-3.9697,-3.9697,-3.9697,-3.9697,-3.9697,-3.9697,-3.9697,-4.0099,-4.0526,-4.0899,-4.0899,-4.1112,-4.1351,-4.1478,-4.1741,-1.8208,-1.9229,-2.0156,-1.9959,-2.0371,-2.082,-2.0527,-2.0742,-2.0859,-2.0644,-2.0605,-2.082,-2.1465,-2.1719,0.0,0.0,-2.4707,0.0,0.0,0.0,-3.1836,-3.2695,-3.2988,0.0,0.0,0.0,0.0,0.0,0.0,-3.3418,-3.3418,-3.3418,-3.4133,-3.5745,-3.5806,-3.7424,-4.0765,-4.0765,-4.1191,-4.1899,-4.1899,-4.2263,-4.2986,-4.2986,-4.2986,0.0,0.0,0.0,-4.2986,-4.2986,-4.2986,-4.2986,-4.2986,-4.2986,-4.2986,-4.2986,-4.2986,-4.2986,-4.2986,-4.2986,-4.2986,-4.2986,-4.2986,-4.2986,-4.2986,-4.2986,-4.2986,-4.2986,-4.2986,-4.2986,-4.2986,-4.2986,-4.2986,-4.2986,-4.2986,-4.2986,-4.2986,-4.2791,-4.259,-4.259,-4.2082,-4.1706,-4.1706,-4.1505,-4.1275,-4.1275,-4.1275,-4.1175,-4.0874,-4.0902,-4.0777,-4.0475,-4.045,-4.045,-4.045,-4.045,-4.035,-4.0099,-4.0074,-4.0199,-4.0425,-4.045,-4.045,-4.045,-4.0752,-4.1,-4.1275,-4.1275,-4.1275,-4.13,-4.1605,-4.1706,-1.7647,-1.9176,-2.0449,-2.041,-2.0801,-2.119,-2.119,-2.0996,0.0,0.0,0.0,0.0,0.0,-2.2168,0.0,0.0,0.0,0.0,-2.9685,-3.0976,-3.1973,-3.2715,0.0,0.0,0.0,0.0,0.0,0.0,0.0,-3.3418,-3.3418,-3.3418,-3.4007,-3.5376,-3.5437,-3.6112,-3.7445,-3.7925,-3.8876,-4.0245,-4.0245,-4.0961,-4.2263,-4.2263,-4.2263,-4.2263,0.0,0.0,-4.2263,-4.2263,-4.2263,-4.2319,-4.2569,-4.2625,-4.2681,-4.2905,-4.2986,-4.2986,-4.2986,-4.2986,-4.2986,-4.2986,-4.2986,-4.2986,-4.2986,-4.2986,-4.2986,-4.2986,-4.2986,-4.2986,-4.2986,-4.2986,-4.2986,-4.2986,-4.2986,-4.2986,-4.2986,-4.2986,-4.2986,-4.2986,-4.2665,-4.2338,-4.2338,-4.1907,-4.1526,-4.1526,-4.1526,-4.1501,-4.148,-4.1455,-4.1376,-4.13,-4.1275,-4.1275,-4.1275,-4.1275,-4.1125,-4.0802,-4.0676,-4.0852,-4.1275,-4.1275,-4.1326,-4.1455,-4.1455,-4.1451,-4.1526,-4.1526,-4.1526,-4.1551,-4.2057,-4.2338,-1.7173,-1.8725,-1.9851,-1.9559,-2.0371,-2.119,-2.119,-2.1465,-2.168,0.0,0.0,0.0,0.0,-2.3262,-2.3984,0.0,0.0,-2.9629,0.0,0.0,-3.2656,-3.2773,0.0,0.0,0.0,0.0,0.0,0.0,0.0,-3.3418,-3.3418,-3.3418,-3.3544,-3.3776,-3.3776,-3.3902,-3.4153,-3.6842,-3.8342,-3.858,-3.858,-3.8698,-3.8935,-3.8935,-3.8935,-3.8935,0.0,-3.8935,-3.8935,-3.8935,-3.8935,-3.9053,-4.0419,-4.0961,-4.1133,-4.2513,-4.2986,-4.2986,-4.2986,-4.2986,-4.2986,-4.2986,-4.2986,-4.2986,-4.2986,-4.2986,-4.2986,-4.2986,-4.2986,-4.2986,-4.2986,-4.2986,-4.2986,-4.2986,-4.2986,-4.2986,-4.2986,-4.2986,-4.2986,-4.2986,-4.2911,-4.2861,-4.2861,-4.2785,-4.2735,-4.2735,-4.2735,-4.2559,-4.2137,-4.2087,-4.1856,-4.1326,-4.1275,-4.1275,-4.1275,-4.1275,-4.1505,-4.1936,-4.148,-4.12,-4.1275,-4.1275,-4.1555,-4.2062,-4.2087,-4.2313,-4.2735,-4.2735,-4.2735,-4.2735,-4.2811,-4.2861,-1.5909,-1.7209,-1.8453,-1.9346,-2.1099,-2.2559,-2.2282,-2.2379,-2.25,0.0,0.0,0.0,0.0,0.0,-2.5644,-2.8125,0.0,-3.0723,-3.2053,-3.2344,-3.2539,0.0,0.0,0.0,0.0,0.0,0.0,0.0,0.0,0.0,-3.3418,-3.3418,-3.3418,-3.3418,-3.3418,-3.3418,-3.3418,-3.486,-3.6051,-3.6881,-3.6881,-3.7385,-3.8223,-3.8223,-3.8223,-3.8223,0.0,-3.8223,-3.8223,-3.8223,-3.8223,-3.8283,-3.8994,-3.9288,-3.9405,-4.0129,-4.0419,-4.0534,-4.1419,-4.1728,-4.1728,-4.1728,-4.2319,-4.2681,-4.0937,-4.1615,-4.2793,-4.1955,-4.2319,-4.2986,-4.2986,-4.2986,-4.2986,-4.2986,-4.2986,-4.2986,-4.2986,-4.2986,-4.2986,-4.2986,-4.2986,-4.2986,-4.2986,-4.2986,-4.2986,-4.2986,-4.2986,-4.2886,-4.269,-4.2665,-4.2509,-4.2258,-4.2233,-4.2233,-4.2233,-4.2233,-4.2208,-4.2213,-4.2208,-4.2233,-4.2233,-4.2233,-4.2333,-4.264,-4.2665,-4.2766,-4.2986,-4.2986,-4.2986,-4.2986,-4.2986,-4.2986,-1.4883,-1.5934,-1.7093,-1.8603,-2.0784,-2.2669,-2.3069,-2.3159,-2.3172,-2.3019,0.0,0.0,0.0,-2.5176,0.0,-3.0391,-3.1133,-3.1601,-3.2363,-3.2461,-3.2578,0.0,0.0,0.0,0.0,0.0,0.0,0.0,0.0,0.0,-3.3418,-3.3418,-3.3418,-3.3418,-3.3418,-3.3418,-3.3418,-3.3418,-3.4007,-3.5273,-3.5273,-3.5867,-3.7084,-3.7084,-3.7084,-3.7084,-3.7084,-3.7084,-3.7084,-3.7084,-3.7084,-3.7084,-3.7506,-3.7865,-3.8223,-3.8223,-3.8223,-3.8402,-3.9581,-4.0071,-4.0071,-4.0071,-4.088,-4.1419,-3.8935,-3.9931,-4.1615,-4.0361,-4.0961,-4.2012,-4.2793,-4.2986,-4.2986,-4.2986,-4.2986,-4.2986,-4.2986,-4.2986,-4.2986,-4.2986,-4.2986,-4.2986,-4.2986,-4.2986,-4.2986,-4.2986,-4.2986,-4.2986,-4.2986,-4.2986,-4.2986,-4.2986,-4.2986,-4.2986,-4.2986,-4.2986,-4.2785,-4.2439,-4.2735,-4.2986,-4.2986,-4.2986,-4.2986,-4.2986,-4.2986,-4.2986,-4.2986,-4.2986,-4.2986,-4.2986,-4.2986,-4.2986,-1.4687,-1.5625,-1.6237,-1.6507,-1.7766,-1.9717,-2.2629,-2.3378,-2.3675,-2.4299,0.0,0.0,0.0,-2.6953,-2.8711,-3.0586,-3.1875,-3.2812,-3.3262,0.0,0.0,0.0,0.0,0.0,0.0,0.0,0.0,0.0,0.0,0.0,-3.3418,-3.3418,-3.3418,-3.3418,-3.3418,-3.3418,-3.3418,-3.3418,-3.3481,-3.3607,-3.3607,-3.3607,-3.3713,-3.3713,-3.3713,-3.3713,-3.3713,-3.3713,-3.3713,-3.3713,-3.3713,-3.3902,-3.5396,-3.6902,-3.8223,-3.8223,-3.8223,-3.8223,-3.8342,-3.8402,-3.8402,-3.8402,-3.8461,-3.8521,-3.8283,-3.8342,-3.8521,-3.8402,-3.8461,-3.9229,-4.2206,-4.2986,-4.2986,-4.2986,-4.2986,-4.2986,-4.2986,-4.2986,-4.2986,-4.2986,-4.2986,-4.2986,-4.2986,-4.2986,-4.2986,-4.2986,-4.2986,-4.2986,-4.2986,-4.2986,-4.2986,-4.2986,-4.2986,-4.2986,-4.2986,-4.2986,-4.2961,-4.2911,-4.2961,-4.2986,-4.2986,-4.2986,-4.2986,-4.2986,-4.2986,-4.2986,-4.2986,-4.2986,-4.2986,-4.2986,-4.2986,-4.2986,-1.3189,-1.4095,-1.5132,-1.6184,-1.6654,-1.801,-2.2413,-2.404,-2.4914,-2.6277,-2.7391,0.0,0.0,0.0,-3.0215,-3.1133,-3.2344,-3.3242,-3.3398,0.0,0.0,0.0,0.0,0.0,0.0,0.0,0.0,0.0,0.0,0.0,-3.3418,-3.3418,-3.3418,-3.3418,-3.3418,-3.3418,-3.3418,-3.3418,-3.3418,-3.3418,-3.3418,-3.3418,-3.3418,-3.3418,-3.3418,-3.3418,-3.3418,-3.3418,-3.3418,-3.3418,-3.3418,-3.3481,-3.407,-3.4674,-3.5232,-3.5232,-3.5232,-3.5335,-3.6356,-3.6699,-3.6699,-3.6699,-3.7363,-3.7805,-3.5827,-3.6599,-3.7985,-3.7023,-3.7424,-3.8698,-4.0937,-4.1501,-4.1785,-4.2737,-4.2986,-4.2986,-4.2986,-4.2986,-4.2986,-4.2986,-4.2986,-4.2986,-4.2986,-4.2986,-4.2986,-4.2986,-4.2986,-4.2986,-4.2986,-4.2986,-4.2986,-4.2986,-4.2986,-4.2986,-4.2986,-4.2986,-4.2986,-4.2986,-4.2986,-4.2986,-4.2986,-4.2986,-4.2986,-4.2986,-4.2986,-4.2986,-4.2986,-4.2986,-4.2986,-4.2986,-4.2986,-4.2986,-1.2732,-1.3454,-1.4538,-1.572,-1.5983,-1.7167,-2.1779,-2.3981,-2.5272,-2.6295,-2.7122,-2.7996,-2.9305,0.0,0.0,0.0,-3.2676,-3.3418,0.0,0.0,0.0,0.0,0.0,0.0,0.0,0.0,0.0,0.0,0.0,0.0,0.0,-3.3418,-3.3418,-3.3418,-3.3418,-3.3418,-3.3418,-3.3418,-3.3418,-3.3418,-3.3418,-3.3418,-3.3418,-3.3418,-3.3418,-3.3418,-3.3418,-3.3418,-3.3418,-3.3418,-3.3418,-3.3418,-3.3418,-3.3418,-3.3418,-3.3418,-3.3418,-3.3544,-3.4674,-3.5026,-3.5026,-3.5026,-3.5827,-3.6234,-3.409,-3.4922,-3.6478,-3.5335,-3.5827,-3.7084,-3.8676,-3.9464,-4.0129,-4.1248,-4.1476,-4.159,-4.2125,-4.2263,-4.2375,-4.2905,-4.2986,-4.2986,-4.2986,-4.2986,-4.2986,-4.2986,-4.2986,-4.2986,-4.2986,-4.2986,-4.2986,-4.2986,-4.2986,-4.2986,-4.2986,-4.2986,-4.2986,-4.2986,-4.2986,-4.2986,-4.2986,-4.2986,-4.2986,-4.2986,-4.2986,-4.2986,-4.2986,-4.2986,-4.2986,-4.2986,-4.2986,-4.2986,-1.36,-1.4026,-1.4603,-1.4941,-1.5678,-1.7191,-2.0604,-2.3021,-2.4464,-2.4098,-2.4419,-2.5963,-3.0121,-2.9329,0.0,-3.1772,-3.2871,0.0,0.0,0.0,0.0,0.0,0.0,0.0,0.0,0.0,0.0,0.0,0.0,0.0,0.0,-3.3418,-3.3418,-3.3418,-3.3418,-3.3418,-3.3418,-3.3418,-3.3418,-3.3418,-3.3418,-3.3418,-3.3418,-3.3418,-3.3418,-3.3418,-3.3418,-3.3418,-3.3418,-3.3418,-3.3418,-3.3418,-3.3418,-3.3418,-3.3418,-3.3418,-3.3418,-3.3418,-3.3418,-3.3418,-3.3418,-3.3418,-3.3418,-3.3418,-3.3418,-3.3418,-3.3418,-3.3418,-3.3418,-3.3776,-3.5396,-3.6963,-3.8164,-3.8164,-3.8223,-3.8639,-4.0245,-4.0592,-4.1076,-4.2625,-4.2961,-4.2986,-4.2986,-4.2986,-4.2986,-4.2986,-4.2986,-4.2986,-4.2986,-4.2986,-4.2986,-4.2986,-4.2986,-4.2986,-4.2986,-4.2986,-4.2986,-4.2986,-4.2986,-4.2986,-4.2986,-4.2986,-4.2986,-4.2986,-4.2986,-4.2986,-4.2986,-4.2986,-4.2986,-4.2986,-4.2986,-4.2986,-1.336,-1.4068,-1.495,-1.5444,-1.6553,0.0,0.0,-2.189,0.0,0.0,-2.6581,-2.7008,-2.9465,0.0,0.0,-3.1905,0.0,0.0,0.0,0.0,0.0,0.0,0.0,0.0,0.0,0.0,0.0,0.0,0.0,0.0,0.0,-3.3418,-3.3418,-3.3418,-3.3418,-3.3418,-3.3418,-3.3418,-3.3418,-3.3418,-3.3418,-3.3418,-3.3418,-3.3418,-3.3418,-3.3418,-3.3418,-3.3418,-3.3418,-3.3418,-3.3418,-3.3418,-3.3418,-3.3418,-3.3418,-3.3418,-3.3418,-3.3418,-3.3418,-3.3418,-3.3418,-3.3418,-3.3418,-3.3418,-3.3418,-3.3418,-3.3418,-3.3418,-3.3418,-3.3544,-3.4027,-3.4445,-3.5396,-3.7686,-3.8223,-3.8342,-3.8817,-3.8935,-3.9053,-3.9522,-3.9639,-3.9989,-4.1133,-4.1305,-4.1305,-4.1305,-4.2263,-4.2986,-4.2986,-4.2986,-4.2986,-4.2986,-4.2986,-4.2986,-4.2986,-4.2986,-4.2986,-4.2986,-4.2986,-4.2986,-4.2986,-4.2986,-4.2986,-4.2986,-4.2986,-4.2986,-4.2986,-4.2986,-4.2986,-4.2986,-4.2986,-4.2986,-1.4001,-1.4763,-1.5692,-1.6353,-1.7382,-1.8624,-2.0147,0.0,0.0,0.0,-2.65,-2.5767,-2.8477,-2.8413,0.0,0.0,0.0,0.0,0.0,0.0,0.0,0.0,0.0,0.0,0.0,0.0,0.0,0.0,0.0,0.0,0.0,-3.3418,-3.3418,-3.3418,-3.3418,-3.3418,-3.3418,-3.3418,-3.3418,-3.3418,-3.3418,-3.3418,-3.3418,-3.3418,-3.3418,-3.3418,-3.3418,-3.3418,-3.3418,-3.3418,-3.3418,-3.3418,-3.3418,-3.3418,-3.3418,-3.3418,-3.3418,-3.3418,-3.3418,-3.3418,-3.3418,-3.3418,-3.3418,-3.3418,-3.3418,-3.3418,-3.3418,-3.3418,-3.3418,-3.3418,-3.3418,-3.3418,-3.3902,-3.5827,-3.6295,-3.6478,-3.7144,-3.7265,-3.7445,-3.8104,-3.8223,-3.8521,-3.9464,-3.9639,-3.9639,-3.9639,-4.0476,-4.1076,-4.1076,-4.1672,-4.2037,-4.2037,-4.2625,-4.2986,-4.2986,-4.2986,-4.2986,-4.2986,-4.2986,-4.2986,-4.2986,-4.2986,-4.2986,-4.2986,-4.2986,-4.2986,-4.2986,-4.2986,-4.2986,-4.2986,-4.2986,-4.2986,-1.5017,-1.5778,-1.65,-1.7435,-1.8196,0.0,-2.1212,-2.2017,-2.3412,-2.6975,0.0,-2.3266,-2.7258,-2.614,-2.5467,0.0,0.0,0.0,0.0,0.0,0.0,0.0,0.0,0.0,0.0,0.0,0.0,0.0,0.0,0.0,0.0,-3.3418,-3.3418,-3.3418,-3.3418,-3.3418,-3.3418,-3.3418,-3.3418,-3.3418,-3.3418,-3.3418,-3.3418,-3.3418,-3.3418,-3.3418,-3.3418,-3.3418,-3.3418,-3.3418,-3.3418,-3.3418,-3.3418,-3.3418,-3.3418,-3.3418,-3.3418,-3.3418,-3.3418,-3.3418,-3.3418,-3.3418,-3.3418,-3.3418,-3.3418,-3.3418,-3.3418,-3.3418,-3.3418,-3.3418,-3.3418,-3.3418,-3.3418,-3.3418,-3.3418,-3.3776,-3.5273,-3.556,-3.599,-3.7506,-3.7746,-3.7805,-3.7985,-3.7985,-3.8045,-3.8164,-3.8104,-3.8045,-3.8164,-3.9464,-4.0361,-4.0361,-4.1672,-4.2569,-4.2569,-4.2681,-4.2793,-4.2793,-4.293,-4.2986,-4.2986,-4.2986,-4.2986,-4.2986,-4.2986,-4.2986,-4.2986,-4.2986,-4.2986,-4.2986,-4.2986,-4.2986,-1.4576,-1.5471,-1.6593,-1.7956,-1.9426,-2.0788,-2.1683,-2.2164,-2.2701,-2.38,-2.3365,-2.3378,-2.5688,-2.5665,0.0,0.0,0.0,0.0,0.0,0.0,0.0,0.0,0.0,0.0,0.0,0.0,0.0,0.0,0.0,0.0,-3.3418,-3.3418,-3.3418,-3.3418,-3.3418,-3.3418,-3.3418,-3.3418,-3.3418,0.0,-3.3418,-3.3418,-3.3418,-3.3418,-3.3418,-3.3418,-3.3418,-3.3418,-3.3418,-3.3418,-3.3418,-3.3418,-3.3418,-3.3418,-3.3418,-3.3418,-3.3418,-3.3418,-3.3418,-3.3418,-3.3418,-3.3418,-3.3418,-3.3418,-3.3418,-3.3418,-3.3418,-3.3418,-3.3418,-3.3418,-3.3418,-3.3418,-3.3418,-3.3418,-3.3418,-3.3481,-3.3839,-3.3902,-3.4027,-3.4383,-3.4445,-3.4798,-3.6112,-3.6356,-3.676,-3.7985,-3.7144,-3.676,-3.8045,-3.8521,-3.8698,-3.8698,-3.9053,-3.9229,-3.9229,-4.0419,-4.1133,-4.1133,-4.2319,-4.2986,-4.2986,-4.2986,-4.2986,-4.2986,-4.2986,-4.2986,-4.2986,-4.2986,-4.2986,-4.2986,-4.2986,-4.2986,-1.4669,-1.5591,-1.67,-1.8464,0.0,-2.1229,-2.1683,-2.2004,-2.2298,-2.2592,-2.2766,-2.3201,-2.406,0.0,0.0,0.0,0.0,0.0,0.0,0.0,0.0,0.0,0.0,0.0,0.0,0.0,0.0,0.0,0.0,-3.3418,-3.3418,-3.3418,-3.3418,-3.3418,-3.3418,-3.3418,-3.3418,-3.3418,-3.3418,-3.3418,-3.3418,-3.3418,-3.3418,-3.3418,-3.3418,-3.3418,-3.3418,-3.3418,-3.3418,-3.3418,-3.3418,-3.3418,-3.3418,-3.3418,-3.3418,-3.3418,-3.3418,-3.3418,-3.3418,-3.3418,-3.3418,-3.3418,-3.3418,-3.3418,-3.3418,-3.3418,-3.3418,-3.3418,-3.3418,-3.3418,-3.3418,-3.3418,-3.3418,-3.3418,-3.3418,-3.3418,-3.3418,-3.3418,-3.3418,-3.3418,-3.3418,-3.365,-3.4487,-3.4674,-3.4922,-3.5766,-3.515,-3.4984,-3.5766,-3.5888,-3.5888,-3.5888,-3.7265,-3.8223,-3.8223,-3.8994,-3.9464,-3.9464,-4.0937,-4.1842,-4.1842,-4.1842,-4.2206,-4.2986,-4.2986,-4.2986,-4.2986,-4.2986,-4.2986,-4.2986,-4.2986,-4.2986,-1.4522,-1.5718,-1.6951,-1.8934,-2.0214,0.0,-2.1534,-2.1802,-2.1991,-2.2285,-2.2579,-2.2806,0.0,0.0,0.0,0.0,0.0,0.0,0.0,0.0,0.0,0.0,0.0,0.0,0.0,0.0,0.0,0.0,0.0,-3.3418,-3.3418,-3.3418,-3.3418,-3.3418,-3.3418,-3.3418,-3.3418,-3.3418,-3.3418,-3.3418,-3.3418,-3.3418,-3.3418,-3.3418,-3.3418,-3.3418,-3.3418,-3.3418,-3.3418,-3.3418,-3.3418,-3.3418,-3.3418,-3.3418,-3.3418,-3.3418,-3.3418,-3.3418,-3.3418,-3.3418,-3.3418,-3.3418,-3.3418,-3.3418,-3.3418,-3.3418,-3.3418,-3.3418,-3.3418,-3.3418,-3.3418,-3.3418,-3.3418,-3.3418,-3.3418,-3.3418,-3.3418,-3.3418,-3.3418,-3.3418,-3.3418,-3.3418,-3.3418,-3.3418,-3.3418,-3.3418,-3.3418,-3.3418,-3.3418,-3.3418,-3.3418,-3.3418,-3.5766,-3.7385,-3.7385,-3.7626,-3.7805,-3.7805,-3.9288,-4.0187,-4.0187,-4.0187,-4.0822,-4.215,-4.2432,-4.2737,-4.2986,-4.2986,-4.2986,-4.2986,-4.2986,-4.2986,-1.3012,-1.5075,-1.746,0.0,-2.0054,-2.0882,0.0,0.0,-2.1762,0.0,-2.2271,-2.2552,0.0,0.0,0.0,0.0,0.0,0.0,0.0,0.0,0.0,0.0,0.0,0.0,0.0,0.0,0.0,0.0,-3.3418,-3.3418,-3.3418,-3.3418,-3.3418,-3.3418,-3.3418,-3.3418,-3.3418,-3.3418,-3.3418,-3.3418,-3.3418,-3.3418,-3.3418,-3.3418,-3.3418,-3.3418,-3.3418,-3.3418,-3.3418,-3.3418,-3.3418,-3.3418,-3.3418,-3.3418,-3.3418,-3.3418,-3.3418,-3.3418,-3.3418,-3.3418,-3.3418,-3.3418,-3.3418,-3.3418,-3.3418,-3.3418,-3.3418,-3.3418,-3.3418,-3.3418,-3.3418,-3.3418,-3.3418,-3.3418,-3.3418,-3.3418,-3.3418,-3.3418,-3.3418,-3.3418,-3.3418,-3.3418,-3.3418,-3.3418,-3.3418,-3.3418,-3.3418,-3.3418,-3.3418,-3.3418,-3.3418,-3.3418,-3.3776,-3.4027,-3.4027,-3.5335,-3.6112,-3.6112,-3.7604,-3.8521,-3.8521,-3.8521,-3.8639,-3.8817,-4.0187,-4.1615,-4.2986,-4.2986,-4.2986,-4.2986,-4.2986,-4.2986,-1.3266,-1.5164,-1.7072,0.0,-1.9533,-2.0334,-2.0935,0.0,-2.139,-2.1683,-2.1844,0.0,0.0,0.0,0.0,0.0,0.0,0.0,0.0,0.0,0.0,0.0,0.0,0.0,0.0,0.0,0.0,0.0,-3.0466,-3.0466,-3.0466,-3.0466,-3.0466,-3.0466,-3.0466,-3.0466,-3.0466,-3.1451,-3.1963,-3.1963,-3.1963,-3.1963,-3.1963,-3.2956,-3.3418,-3.3418,-3.3418,-3.3418,-3.3418,-3.3418,-3.3418,-3.3418,-3.3418,-3.3418,-3.3418,-3.3418,-3.3418,-3.3418,-3.3418,-3.3418,-3.3418,-3.3418,-3.3418,-3.3418,-3.3418,-3.3418,-3.3418,-3.3418,-3.3418,-3.3418,-3.3418,-3.3418,-3.3418,-3.3418,-3.3418,-3.3418,-3.3418,-3.3418,-3.3418,-3.3418,-3.3418,-3.3418,-3.3418,-3.3418,-3.3418,-3.3418,-3.3418,-3.3418,-3.3418,-3.3418,-3.3418,-3.3418,-3.3418,-3.3418,-3.3418,-3.407,-3.4425,-3.4425,-3.599,-3.6842,-3.6842,-3.6842,-3.7243,-3.8164,-3.8876,-4.0071,-4.1672,-4.1672,-4.215,-4.2986,-4.2986,-4.2986,-1.2964,0.0,-1.5726,-1.7476,-1.8704,-1.9626,0.0,0.0,-2.1069,0.0,0.0,0.0,0.0,0.0,0.0,0.0,0.0,0.0,0.0,0.0,0.0,0.0,0.0,0.0,0.0,0.0,0.0,0.0,-2.8163,-2.8163,-2.8163,-2.8163,-2.8163,-2.8163,-2.8163,-2.8163,-2.8163,-2.9474,-3.0125,-3.0125,-3.0125,-3.0125,-3.0189,-3.1515,-3.2301,-3.2765,-3.3228,-3.3418,-3.3418,-3.3418,-3.3418,-3.3418,-3.3418,-3.3418,-3.3418,-3.3418,-3.3418,-3.3418,-3.3418,-3.3418,-3.3418,-3.3418,-3.3418,-3.3418,-3.3418,-3.3418,-3.3418,-3.3418,-3.3418,-3.3418,-3.3418,-3.3418,-3.3418,-3.3418,-3.3418,-3.3418,-3.3418,-3.3418,-3.3418,-3.3418,-3.3418,-3.3418,-3.3418,-3.3418,-3.3418,-3.3418,-3.3418,-3.3418,-3.3418,-3.3418,-3.3418,-3.3418,-3.3418,-3.3418,-3.3418,-3.3418,-3.3418,-3.3418,-3.455,-3.5211,-3.5211,-3.5211,-3.5745,-3.6963,-3.6963,-3.7963,-3.9989,-4.0419,-4.1248,-4.2375,-4.2793,-4.2986,0.0,-1.2067,0.0,-1.5747,-1.7488,-1.8718,0.0,0.0,0.0,0.0,0.0,0.0,0.0,0.0,0.0,0.0,0.0,0.0,0.0,0.0,0.0,0.0,0.0,0.0,0.0,0.0,0.0,0.0,-2.8163,-2.8163,-2.8163,-2.8163,-2.8163,-2.8163,-2.8163,-2.8163,-2.8163,-2.8312,-2.8361,-2.8361,-2.8361,-2.8361,-2.8361,-2.8427,-2.9344,-3.1047,-3.2683,-3.3418,-3.3418,-3.3418,-3.3418,-3.3418,-3.3418,-3.3418,-3.3418,-3.3418,-3.3418,-3.3418,-3.3418,-3.3418,-3.3418,-3.3418,-3.3418,-3.3418,-3.3418,-3.3418,-3.3418,-3.3418,-3.3418,-3.3418,-3.3418,-3.3418,-3.3418,-3.3418,-3.3418,-3.3418,-3.3418,-3.3418,-3.3418,-3.3418,-3.3418,-3.3418,-3.3418,-3.3418,-3.3418,-3.3418,-3.3418,-3.3418,-3.3418,-3.3418,-3.3418,-3.3418,-3.3418,-3.3418,-3.3418,-3.3418,-3.3418,-3.3418,-3.3481,-3.3544,-3.3544,-3.3544,-3.3544,-3.367,-3.367,-3.517,-3.8342,-3.9896,-4.065,-4.0765,-4.2319,-4.2986,0.0,0.0,0.0,-1.4196,-1.5856,-1.7275,-1.805,-1.9122,-1.9893,-2.008,0.0,0.0,0.0,0.0,0.0,0.0,0.0,0.0,0.0,0.0,0.0,0.0,0.0,0.0,0.0,0.0,0.0,0.0,0.0,-2.4791,-2.4791,-2.4791,-2.4791,-2.4791,-2.4791,-2.5315,-2.6439,-2.5383,-2.5383,-2.6439,-2.6439,-2.6439,-2.6506,-2.7635,-2.8558,-2.9148,-2.98,-3.1322,-3.3418,-3.3418,-3.2746,-3.1835,-3.2956,-3.2702,-3.1707,-3.1707,-3.2428,-3.3228,-3.2091,-3.2492,-3.3418,-3.3418,-3.3418,-3.3418,-3.3418,-3.3418,-3.3418,-3.3418,-3.3418,-3.3418,-3.3418,-3.3418,-3.3418,-3.3418,-3.3418,-3.3418,-3.3418,-3.3418,-3.3418,-3.3418,-3.3418,-3.3418,-3.3418,-3.3418,-3.3418,-3.3418,-3.3418,-3.3418,-3.3418,-3.3418,-3.3418,-3.3418,-3.3418,-3.3418,-3.3418,-3.3418,-3.3418,-3.3418,-3.3418,-3.3418,-3.3418,-3.3418,-3.3418,-3.3418,-3.3418,-3.4507,-3.6639,-3.826,-3.9581,-4.065,-4.2263,-4.2986,-0.8234,0.0,0.0,0.0,0.0,-1.4962,-1.633,0.0,-1.8377,0.0,0.0,0.0,0.0,0.0,0.0,0.0,0.0,0.0,0.0,0.0,0.0,0.0,0.0,0.0,0.0,0.0,0.0,0.0,0.0,0.0,-2.2928,-2.2928,-2.2928,-2.2928,-2.2928,-2.3461,-2.4588,-2.3461,-2.3461,-2.4655,-2.4655,-2.4655,-2.4655,-2.5853,-2.6706,-2.7304,-2.7304,-2.8952,-3.1643,-3.1643,-3.0983,-3.006,-3.1176,-3.0918,-2.993,-2.993,-3.066,-3.1579,-3.0983,-3.1561,-3.2619,-3.3228,-3.3418,-3.3418,-3.3418,-3.3418,-3.3418,-3.3418,-3.3418,-3.3418,-3.3418,-3.3418,-3.3418,-3.3418,-3.3418,-3.3418,-3.3418,-3.3418,-3.3418,-3.3418,-3.3418,-3.3418,-3.3418,-3.3418,-3.3418,-3.3418,-3.3418,-3.3418,-3.3418,-3.3418,-3.3418,-3.3418,-3.3418,-3.3418,-3.3418,-3.3418,-3.3418,-3.3418,-3.3418,-3.3418,-3.3418,-3.3418,-3.3418,-3.3418,-3.3418,-3.3902,-3.4964,-3.6599,-3.7963,-3.903,-4.065,-4.1672,0.0,0.0,0.0,0.0,0.0,0.0,-1.4176,0.0,-1.6125,0.0,0.0,0.0,0.0,0.0,0.0,0.0,0.0,0.0,0.0,0.0,0.0,0.0,0.0,0.0,0.0,0.0,0.0,0.0,-2.2914,-2.2914,-2.2914,-2.2914,-2.2914,-2.2846,-2.2914,-2.2928,-2.2928,-2.2928,-2.2928,-2.2928,-2.2928,-2.2928,-2.2928,-2.2928,-2.3788,-2.545,-2.545,-2.6439,-2.8032,-2.8163,-2.8163,-2.8098,-2.8163,-2.8163,-2.8114,-2.8114,-2.8163,-2.8427,-3.006,-3.0707,-3.1093,-3.2765,-3.3355,-3.3418,-3.3418,-3.3418,-3.3418,-3.3418,-3.3418,-3.3418,-3.3418,-3.3418,-3.3418,-3.3418,-3.3418,-3.3418,-3.3418,-3.3418,-3.3418,-3.3418,-3.3418,-3.3418,-3.3418,-3.3418,-3.3418,-3.3418,-3.3418,-3.3418,-3.3418,-3.3418,-3.3418,-3.3418,-3.3418,-3.3418,-3.3418,-3.3418,-3.3418,-3.3418,-3.3418,-3.3418,-3.3418,-3.3418,-3.3418,-3.3418,-3.3418,-3.3418,-3.3418,-3.5026,-3.5806,-3.5867,-3.7445,-3.9053,-0.6021,0.0,0.0,0.0,0.0,0.0,0.0,0.0,0.0,0.0,0.0,0.0,0.0,0.0,0.0,0.0,0.0,0.0,0.0,0.0,0.0,0.0,0.0,0.0,0.0,0.0,0.0,0.0,-2.2539,-2.2539,-2.2539,-2.2338,-2.2325,-2.2539,-2.2539,-2.2645,-2.2928,-2.2928,-2.2928,-2.2928,-2.2928,-2.2928,-2.2928,-2.2928,-2.3133,-2.3597,-2.3597,-2.3924,-2.4588,-2.7105,-2.7437,-2.6373,-2.7701,-2.737,-2.6239,-2.6239,-2.7105,-2.8098,-2.7222,-2.8673,-3.09,-3.1368,-3.2365,-3.3418,-3.3418,-3.3418,-3.3418,-3.3418,-3.3418,-3.3418,-3.3418,-3.3418,-3.3418,-3.3418,-3.3418,-3.3418,-3.3418,-3.3418,-3.3418,-3.3418,-3.3418,-3.3418,-3.3418,-3.3418,-3.3418,-3.3418,-3.3418,-3.3418,-3.3418,-3.3418,-3.3418,-3.3418,-3.3418,-3.3418,-3.3418,-3.3418,-3.3418,-3.3418,-3.3418,-3.3418,-3.3418,-3.3418,-3.3418,-3.3418,-3.3418,-3.3418,-3.3418,-3.5026,-3.5806,-3.5867,-3.7445,-3.9053,0.0,0.0,0.0,0.0,0.0,0.0,0.0,-1.0401,0.0,0.0,0.0,0.0,0.0,0.0,0.0,0.0,0.0,0.0,0.0,0.0,0.0,0.0,0.0,0.0,0.0,-2.1951,-2.2111,-2.2231,-2.2231,-2.2231,-2.2231,-2.2071,-2.2058,-2.2231,-2.2352,-2.2498,-2.2672,-2.2806,-2.2928,-2.2928,-2.2928,-2.2928,-2.2928,-2.2928,-2.2928,-2.2928,-2.2928,-2.2928,-2.3065,-2.5128,-2.5383,-2.452,-2.5584,-2.5315,-2.4385,-2.4385,-2.5046,-2.592,-2.5584,-2.6823,-2.8738,-2.9474,-3.0401,-3.1258,-3.1258,-3.1258,-3.1258,-3.1258,-3.1258,-3.1258,-3.1258,-3.1258,-3.1258,-3.1258,-3.1771,-3.2301,-3.2301,-3.2892,-3.3418,-3.3418,-3.3418,-3.3418,-3.3418,-3.3418,-3.3418,-3.3418,-3.3418,-3.3418,-3.3418,-3.3418,-3.3418,-3.3418,-3.3418,-3.3418,-3.3418,-3.3418,-3.3418,-3.3418,-3.3418,-3.3418,-3.3418,-3.3418,-3.3418,-3.3418,-3.3418,-3.3418,-3.3418,-3.432,-3.4798,-3.486,-3.6478,-3.7723,-0.6457,-0.6491,0.0,0.0,0.0,0.0,-0.8596,-0.8827,-0.9357,0.0,0.0,0.0,0.0,0.0,0.0,0.0,0.0,0.0,0.0,0.0,0.0,0.0,0.0,0.0,-2.1547,-2.1601,-2.1722,-2.1924,-2.1937,-2.1924,-2.1884,-2.1884,-2.1897,-2.1937,-2.2191,-2.2338,-2.2378,-2.2659,-2.2819,-2.2819,-2.2846,-2.2928,-2.2928,-2.2928,-2.2928,-2.2928,-2.2928,-2.2928,-2.2928,-2.2928,-2.2928,-2.2928,-2.2928,-2.2928,-2.2928,-2.2928,-2.2928,-2.3133,-2.4655,-2.5315,-2.5786,-2.737,-2.8032,-2.8163,-2.8163,-2.8163,-2.8163,-2.8163,-2.8163,-2.8163,-2.8163,-2.8163,-2.8163,-2.8163,-2.9409,-3.0578,-3.0771,-3.2027,-3.3165,-3.3355,-3.3418,-3.3418,-3.3418,-3.3418,-3.3418,-3.3418,-3.3418,-3.3418,-3.3418,-3.3418,-3.3418,-3.3418,-3.3418,-3.3418,-3.3418,-3.3418,-3.3418,-3.3418,-3.3418,-3.3418,-3.3418,-3.3418,-3.3418,-3.3418,-3.3418,-3.3418,-3.3418,-3.3418,-3.3418,-3.3418,-3.486,-3.5622,-0.6878,-0.6993,-0.7143,-0.6939,0.0,0.0,-0.7218,-0.7254,-0.7741,0.0,0.0,0.0,0.0,0.0,0.0,0.0,0.0,0.0,0.0,0.0,0.0,0.0,0.0,0.0,-2.1189,-2.1416,-2.1641,-2.1695,-2.1695,-2.1537,-2.1296,-2.1283,-2.139,-2.1695,-2.1762,-2.183,-2.2071,-2.2365,-2.2498,-2.2512,-2.2752,-2.2928,-2.2928,-2.2928,-2.2928,-2.2928,-2.2928,-2.2928,-2.2928,-2.2928,-2.2928,-2.2928,-2.2928,-2.2928,-2.2928,-2.2928,-2.2928,-2.2928,-2.3256,-2.4317,-2.5584,-2.592,-2.7039,-2.8163,-2.8163,-2.8163,-2.8163,-2.8163,-2.8163,-2.8163,-2.8163,-2.8163,-2.8163,-2.8163,-2.8427,-2.9083,-3.0513,-3.1047,-3.1689,-3.3165,-3.3418,-3.3418,-3.3418,-3.3418,-3.3418,-3.3418,-3.3418,-3.3418,-3.3418,-3.3418,-3.3418,-3.3418,-3.3418,-3.3418,-3.3418,-3.3418,-3.3418,-3.3418,-3.3418,-3.3418,-3.3418,-3.3418,-3.3418,-3.3418,-3.3418,-3.3418,-3.3418,-3.3418,-3.3418,-3.3418,-3.3713,-3.455,-0.7366,-0.7373,-0.7448,-0.7299,0.0,0.0,0.0,-0.698,-0.7159,-0.8041,-0.8239,0.0,0.0,0.0,0.0,0.0,0.0,0.0,0.0,0.0,0.0,0.0,0.0,0.0,-2.0882,-2.1029,-2.1239,-2.1323,-2.1336,-2.1269,-2.1122,-2.1109,-2.1176,-2.1323,-2.1534,-2.1681,-2.1764,-2.2058,-2.2271,-2.2418,-2.2565,-2.2712,-2.2928,-2.2928,-2.2928,-2.2928,-2.2928,-2.2928,-2.2928,-2.2928,-2.2928,-2.2928,-2.2928,-2.2928,-2.2928,-2.2928,-2.2928,-2.2928,-2.2928,-2.3461,-2.4196,-2.4196,-2.4791,-2.5584,-2.5584,-2.5584,-2.5584,-2.5584,-2.5584,-2.5584,-2.5584,-2.5584,-2.5584,-2.5584,-2.6254,-2.7105,-2.7949,-2.9522,-3.1029,-3.1899,-3.2829,-3.3418,-3.3418,-3.3418,-3.3418,-3.3418,-3.3418,-3.3418,-3.3418,-3.3418,-3.3418,-3.3418,-3.3418,-3.3418,-3.3418,-3.3418,-3.3418,-3.3418,-3.3418,-3.3418,-3.3418,-3.3418,-3.3418,-3.3418,-3.3418,-3.3418,-3.3418,-3.3418,-3.3418,-3.3418,-3.3418,-3.3839,0.0,0.0,0.0,0.0,0.0,-0.7346,0.0,0.0,0.0,-0.7366,0.0,0.0,0.0,0.0,0.0,0.0,0.0,0.0,0.0,0.0,0.0,0.0,0.0,0.0,0.0,-2.0374,-2.0508,-2.0909,-2.0842,-2.0842,-2.1015,-2.1082,-2.1109,-2.1109,-2.1336,-2.1534,-2.1534,-2.1764,-2.2017,-2.2258,-2.2365,-2.2539,-2.2779,-2.2832,-2.2928,-2.2928,-2.2928,-2.2928,-2.2928,-2.2928,-2.2928,-2.2928,-2.2928,-2.2928,-2.2928,-2.2928,-2.2928,-2.2928,-2.2928,-2.2928,-2.2928,-2.2928,-2.2928,-2.2928,-2.2928,-2.2928,-2.2928,-2.2928,-2.2928,-2.2928,-2.2928,-2.2928,-2.2928,-2.2928,-2.3992,-2.5113,-2.545,-2.7751,-2.9847,-3.0254,-3.1451,-3.2638,-3.3292,-3.3418,-3.3418,-3.3418,-3.3418,-3.3418,-3.3418,-3.3418,-3.3418,-3.3418,-3.3418,-3.3418,-3.3418,-3.3418,-3.3418,-3.3418,-3.3418,-3.3418,-3.3418,-3.3418,-3.3418,-3.3418,-3.3418,-3.3418,-3.3418,-3.3418,-3.3418,-3.3418,-3.3418,-3.3418,0.0,0.0,0.0,0.0,-0.7963,0.0,0.0,0.0,-0.7224,-0.6878,0.0,0.0,0.0,0.0,0.0,0.0,0.0,0.0,0.0,0.0,0.0,0.0,0.0,0.0,0.0,-1.9279,-1.9452,-2.0267,-1.9853,-1.9907,-2.0681,-2.0962,-2.1109,-2.1109,-2.1149,-2.1162,-2.1162,-2.1456,-2.1681,-2.1722,-2.2178,-2.2432,-2.2472,-2.2739,-2.2928,-2.2928,-2.2928,-2.2928,-2.2928,-2.2928,-2.2928,-2.2928,-2.2928,-2.2928,-2.2928,-2.2928,-2.2928,-2.2928,-2.2928,-2.2928,-2.2928,-2.2928,-2.2928,-2.2928,-2.2928,-2.2928,-2.2928,-2.2928,-2.2928,-2.2928,-2.2928,-2.2928,-2.2928,-2.2928,-2.3065,-2.3597,-2.5181,-2.5838,-2.6573,-2.8163,-2.8624,-2.9735,-3.2892,-3.3418,-3.3418,-3.3418,-3.3418,-3.3418,-3.3418,-3.3418,-3.3418,-3.3418,-3.3418,-3.3418,-3.3418,-3.3418,-3.3418,-3.3418,-3.3418,-3.3418,-3.3418,-3.3418,-3.3418,-3.3418,-3.3418,-3.3418,-3.3418,-3.3418,-3.3418,-3.3418,-3.3418,-3.3418,0.0,0.0,0.0,0.0,0.0,0.0,-0.7461,0.0,-0.7238,0.0,0.0,0.0,0.0,0.0,0.0,0.0,0.0,0.0,0.0,0.0,0.0,0.0,0.0,0.0,0.0,0.0,0.0,0.0,-1.9252,-1.9492,-2.0374,-2.0695,-2.0935,-2.1109,-2.1109,-2.1109,-2.1109,-2.1229,-2.139,-2.1614,-2.1977,-2.2258,-2.2432,-2.2726,-2.2928,-2.2928,-2.2928,-2.2928,-2.2928,-2.2928,-2.2928,-2.2928,-2.2928,-2.2928,-2.2928,-2.2928,-2.2928,-2.2928,-2.2928,-2.2928,-2.2928,-2.2928,-2.2928,-2.2928,-2.2928,-2.2928,-2.2928,-2.2928,-2.2928,-2.2928,-2.2928,-2.2928,-2.2928,-2.2928,-2.2928,-2.3133,-2.3856,-2.4791,-2.5719,-2.6506,-2.7503,-2.8624,-3.0142,-3.124,-3.1899,-3.1899,-3.2765,-3.3418,-3.3418,-3.3418,-3.3418,-3.3418,-3.3418,-3.3418,-3.3418,-3.3418,-3.3535,-3.3789,-3.4023,-3.416,-3.416,-3.416,-3.416,-3.416,-3.416,-3.416,-3.416,-3.3926,-3.3809,-3.3789,-3.3535,-3.3418,-1.0741,0.0,0.0,0.0,0.0,0.0,0.0,0.0,0.0,0.0,0.0,0.0,0.0,0.0,0.0,0.0,0.0,0.0,0.0,0.0,0.0,0.0,0.0,0.0,0.0,0.0,0.0,0.0,0.0,-1.8811,-1.9933,-2.0347,-2.0695,-2.0989,-2.1069,-2.1109,-2.1109,-2.1109,-2.1216,-2.1494,-2.1804,-2.2098,-2.2311,-2.2686,-2.2928,-2.2928,-2.2928,-2.2928,-2.2928,-2.2928,-2.2928,-2.2928,-2.2928,-2.2928,-2.2928,-2.2928,-2.2928,-2.2928,-2.2928,-2.2928,-2.2928,-2.2928,-2.2928,-2.2928,-2.2928,-2.2928,-2.2928,-2.2928,-2.2928,-2.2928,-2.2928,-2.2928,-2.2928,-2.2928,-2.2928,-2.2928,-2.2928,-2.3856,-2.4791,-2.4791,-2.5853,-2.6788,-2.6788,-2.9,-3.0771,-3.0771,-3.2301,-3.3418,-3.3418,-3.3418,-3.3418,-3.3418,-3.3418,-3.3418,-3.3418,-3.3535,-3.3789,-3.4219,-3.4531,-3.4707,-3.4707,-3.4707,-3.4707,-3.4707,-3.4707,-3.4707,-3.4707,-3.4394,-3.4238,-3.4238,-3.3672,-3.3418,0.0,0.0,0.0,-0.867,0.0,0.0,0.0,0.0,-0.7712,0.0,0.0,0.0,0.0,0.0,0.0,0.0,0.0,0.0,0.0,0.0,0.0,0.0,0.0,0.0,0.0,0.0,0.0,0.0,0.0,0.0,-1.9305,-1.9933,-2.0388,-2.0681,-2.0962,-2.1109,-2.1109,-2.1109,-2.1109,-2.1136,-2.171,-2.1991,-2.2017,-2.2605,-2.2928,-2.2928,-2.2928,-2.2928,-2.2928,-2.2928,-2.2928,-2.2928,-2.2928,-2.2928,-2.2928,-2.2928,-2.2928,-2.2928,-2.2928,-2.2928,-2.2928,-2.2928,-2.2928,-2.2928,-2.2928,-2.2928,-2.2928,-2.2928,-2.2928,-2.2928,-2.2928,-2.2928,-2.2928,-2.2928,-2.2928,-2.2928,-2.2928,-2.2928,-2.2996,-2.2996,-2.3065,-2.3065,-2.3065,-2.7354,-3.0771,-3.0771,-3.2301,-3.3418,-3.3418,-3.3418,-3.3418,-3.3418,-3.3418,-3.3418,-3.3418,-3.3809,-3.4238,-3.4648,-3.4687,-3.4707,-3.4707,-3.4707,-3.4707,-3.4707,-3.4707,-3.4707,-3.4707,-3.4687,-3.4668,-3.4668,-3.3809,-3.3418,0.0,0.0,-1.3897,-1.2187,0.0,0.0,0.0,0.0,0.0,0.0,0.0,0.0,0.0,0.0,0.0,0.0,0.0,0.0,0.0,0.0,0.0,0.0,0.0,0.0,0.0,0.0,0.0,0.0,-1.6954,0.0,0.0,-1.9813,-2.0374,-2.0668,-2.0962,-2.1109,-2.1109,-2.1109,-2.1109,-2.1122,-2.171,-2.1991,-2.2004,-2.2592,-2.2928,-2.2928,-2.2928,-2.2928,-2.2928,-2.2928,-2.2928,-2.2928,-2.2928,-2.2928,-2.2928,-2.2928,-2.2928,-2.2928,-2.2928,-2.2928,-2.2928,-2.2928,-2.2928,-2.2928,-2.2928,-2.2928,-2.2928,-2.2928,-2.2928,-2.2928,-2.2928,-2.2928,-2.2928,-2.2928,-2.2928,-2.2928,-2.2928,-2.2928,-2.2928,-2.2928,-2.2928,-2.2926,-2.314,-2.5642,-2.8042,-2.9308,-3.1967,-3.3945,-3.4238,-3.4277,-3.4277,-3.4277,-3.4277,-3.4277,-3.4277,-3.4687,-3.5,-3.5156,-3.541,-3.5566,-3.5566,-3.5566,-3.5566,-3.5566,-3.5566,-3.5566,-3.5566,-3.5293,-3.5156,-3.5137,-3.4551,-3.4277,-1.7277,-1.6751,0.0,-1.4417,-1.3287,0.0,-1.0565,0.0,0.0,0.0,0.0,0.0,0.0,0.0,0.0,0.0,0.0,0.0,0.0,0.0,0.0,0.0,0.0,0.0,0.0,0.0,-1.4871,-1.6206,-1.6482,0.0,0.0,0.0,-2.0107,-2.0508,-2.0909,-2.1109,-2.1109,-2.1109,-2.1109,-2.1122,-2.171,-2.1991,-2.2004,-2.2592,-2.2928,-2.2928,-2.2928,-2.2928,-2.2928,-2.2928,-2.2928,-2.2928,-2.2928,-2.2928,-2.2928,-2.2928,-2.2928,-2.2928,-2.2928,-2.2928,-2.2928,-2.2928,-2.2928,-2.2928,-2.2928,-2.2928,-2.2928,-2.2928,-2.2928,-2.2928,-2.2928,-2.2928,-2.2928,-2.2928,-2.2928,-2.2928,-2.2928,-2.2928,-2.2928,-2.2928,-2.2953,-2.3086,-2.3287,-2.4901,-2.6519,-2.7736,-3.0435,-3.2636,-3.3577,-3.3681,-3.3945,-3.4641,-3.4707,-3.4766,-3.4922,-3.5215,-3.5449,-3.5605,-3.5879,-3.6016,-3.6016,-3.6016,-3.6016,-3.6016,-3.6016,-3.6016,-3.6016,-3.5742,-3.5605,-3.5605,-3.5312,-3.5176]},{"header":{"parameterUnit":"m.s-1","parameterCategory":1,"la1":30.6,"la2":29.2853,"lo1":-89.7004,"lo2":-87.6739,"dy":0.0162,"dx":0.0183,"nx":112,"ny":82,"refTime":"2024-06-15T12:00:00:Z","depth":0,"parameterNumber":3,"parameterNumberName":"V-component_of_WINDS"},"data":[0.0,0.0,0.0,0.0,0.0,0.0,0.0,0.0,0.0,0.0,0.0,0.0,0.0,0.0,0.0,0.0,0.0,0.0,0.0,0.0,0.0,0.0,0.0,0.0,0.0,0.0,0.0,0.0,0.0,0.0,0.0,0.0,0.0,0.0,0.0,0.0,0.0,0.0,0.0,0.0,0.0,0.0,0.0,0.0,0.0,0.0,0.0,0.0,0.0,0.0,0.0,0.0,0.0,0.0,0.0,0.0,0.0,0.0,0.0,0.0,0.0,0.0,0.0,0.0,0.0,0.0,0.0,0.0,0.0,0.0,0.0,0.0,0.0,0.0,0.0,0.0,0.0,0.0,0.0,0.0,0.0,0.0,0.0,0.0,0.0,0.0,0.0,0.0,0.0,0.0,0.0,1.6415,1.8223,1.9078,1.8544,1.8658,1.7798,1.553,0.0,0.0,0.0,0.0,0.0,0.0,0.0,0.0,0.0,0.0,0.0,0.0,0.0,0.0,0.0,0.0,0.0,0.0,0.0,0.0,0.0,0.0,0.0,0.0,0.0,0.0,0.0,0.0,0.0,0.0,0.0,0.0,0.0,0.0,0.0,0.0,0.0,0.0,0.0,0.0,0.0,0.0,0.0,0.0,0.0,0.0,0.0,0.0,0.0,0.0,0.0,0.0,0.0,0.0,0.0,0.0,0.0,0.0,0.0,0.0,0.0,0.0,0.0,0.0,0.0,0.0,0.0,0.0,0.0,0.0,0.0,0.0,0.0,0.0,0.0,0.0,0.0,0.0,0.0,0.0,0.0,0.0,0.0,0.0,0.0,0.0,0.0,0.0,0.0,0.0,0.0,0.0,0.0,0.0,0.0,0.0,0.0,0.0,0.0,0.0,0.0,0.0,0.0,0.0,1.4774,1.7822,1.8651,1.8851,1.8517,1.9311,1.8642,1.5821,0.0,0.0,0.0,0.0,0.0,0.0,0.0,0.0,0.0,0.0,0.0,0.0,0.0,0.0,0.0,0.0,0.0,0.0,0.0,0.0,0.0,0.0,0.0,0.0,0.0,0.0,0.0,0.0,0.0,0.0,0.0,0.0,0.0,0.0,0.0,0.0,0.0,0.0,0.0,0.0,0.0,0.0,0.0,0.0,0.0,0.0,0.0,0.0,0.0,0.0,0.0,0.0,0.0,0.0,0.0,0.0,0.0,0.0,0.0,0.0,0.0,0.0,0.0,0.0,0.0,0.0,0.0,0.0,0.0,0.0,0.0,0.0,0.0,0.0,0.0,0.0,0.0,0.0,0.0,0.0,0.0,0.0,0.0,0.0,0.0,0.0,0.0,0.0,0.0,0.0,0.0,0.0,0.0,0.0,0.0,0.0,0.0,0.0,0.0,0.0,0.0,0.0,0.0,1.4874,1.6626,1.911,2.0277,2.0773,2.0497,2.09,2.0049,1.7388,1.5715,0.0,0.0,0.0,0.0,0.0,0.0,0.0,0.0,0.0,0.0,0.0,0.0,0.0,0.0,0.0,0.0,0.0,0.0,0.0,0.0,0.0,0.0,0.0,0.0,0.0,0.0,0.0,0.0,0.0,0.0,0.0,0.0,0.0,0.0,0.0,0.0,0.0,0.0,0.0,0.0,0.0,0.0,0.0,0.0,0.0,0.0,0.0,0.0,0.0,0.0,0.0,0.0,0.0,0.0,0.0,0.0,0.0,0.0,0.0,0.0,0.0,0.0,0.0,0.0,0.0,0.0,0.0,0.0,0.0,0.0,0.0,0.0,0.0,0.0,0.0,0.0,0.0,0.0,0.0,0.0,0.0,0.0,0.0,0.0,0.0,0.0,0.0,0.0,0.0,0.0,0.0,0.0,0.0,0.0,0.0,0.0,0.0,0.0,0.0,0.0,0.0,0.0,1.7197,1.8949,2.0422,2.1677,2.2307,2.2133,2.1843,2.0793,1.8637,1.687,0.0,0.0,0.0,0.0,0.0,0.0,0.0,0.0,0.0,0.0,0.0,0.0,0.0,0.0,0.0,0.0,0.0,0.0,0.0,0.0,0.0,0.0,0.0,0.0,0.0,0.0,0.0,0.0,0.0,0.0,0.0,0.0,0.0,0.0,0.0,0.0,0.0,0.0,0.0,0.0,0.0,0.0,0.0,0.0,0.0,0.0,0.0,0.0,0.0,0.0,0.0,0.0,0.0,0.0,0.0,0.0,0.0,0.0,0.0,0.0,0.0,0.0,0.0,0.0,0.0,0.0,0.0,0.0,0.0,0.0,0.0,0.0,0.0,0.0,0.0,0.0,0.0,0.0,0.0,0.0,0.0,0.0,0.0,0.0,0.0,0.0,0.0,0.0,0.0,0.0,0.0,0.0,0.0,0.0,0.0,0.0,0.0,0.0,0.0,0.0,0.0,0.0,1.9049,2.1422,2.1911,2.2081,2.2133,2.2116,2.1208,1.9996,1.8589,1.6399,0.0,0.0,0.0,0.0,0.0,0.0,0.0,0.0,0.0,0.0,0.0,0.0,0.0,0.0,0.0,0.0,0.0,0.0,0.0,0.0,0.0,0.0,0.0,0.0,0.0,0.0,0.0,0.0,0.0,0.0,0.0,0.0,0.0,0.0,0.0,0.0,0.0,0.0,0.0,0.0,0.0,0.0,0.0,0.0,0.0,0.0,0.0,0.0,0.0,0.0,0.0,0.0,0.0,0.0,0.0,0.0,0.0,0.0,0.0,0.0,0.0,0.0,0.0,0.0,0.0,0.0,0.0,0.0,0.0,0.0,0.0,0.0,0.0,0.0,0.0,0.0,0.0,0.0,0.0,0.0,0.0,0.0,0.0,0.0,0.0,0.0,0.0,0.0,0.0,0.0,0.0,0.0,0.0,0.0,0.0,0.0,0.0,0.0,0.0,0.0,0.0,0.0,1.9095,2.1818,0.0,2.3867,2.4335,2.4335,2.3748,2.2252,1.9521,0.0,0.0,0.0,0.0,0.0,0.0,0.0,0.0,0.0,0.0,0.0,0.0,0.0,0.0,0.0,0.0,0.0,0.0,0.0,0.0,0.0,0.0,0.0,0.0,0.0,0.0,0.0,0.0,0.0,0.0,0.0,0.0,0.0,0.0,0.0,0.0,0.0,0.0,0.0,0.0,0.0,0.0,0.0,0.0,0.0,0.0,0.0,0.0,0.0,0.0,0.0,0.0,0.0,0.0,0.0,0.0,0.0,0.0,0.0,0.0,0.0,0.0,0.0,0.0,0.0,0.0,0.0,0.0,0.0,0.0,0.0,0.0,0.0,0.0,0.0,0.0,0.0,0.0,0.0,0.0,0.0,0.0,0.0,0.0,0.0,0.0,0.0,0.0,0.0,0.0,0.0,0.0,0.0,0.0,0.0,0.0,0.0,0.0,0.0,0.0,0.0,0.0,1.6507,1.9954,2.284,0.0,2.5167,2.5693,2.5693,2.459,2.2734,2.0078,0.0,0.0,0.0,0.0,0.0,0.0,0.0,0.0,0.0,0.0,0.0,0.0,0.0,0.0,0.0,0.0,0.0,0.0,0.0,0.0,0.0,0.0,0.0,0.0,0.0,0.0,0.0,0.0,0.0,0.0,0.0,0.0,0.0,0.0,0.0,0.0,0.0,0.0,0.0,0.0,0.0,0.0,0.0,0.0,0.0,0.0,0.0,0.0,0.0,0.0,0.0,0.0,0.0,0.0,0.0,0.0,0.0,0.0,0.0,0.0,0.0,0.0,0.0,0.0,0.0,0.0,0.0,0.0,0.0,0.0,0.0,0.0,0.0,0.0,0.0,0.0,0.0,0.0,0.0,0.0,0.0,0.0,0.0,0.0,0.0,0.0,0.0,0.0,0.0,0.0,0.0,0.0,0.0,0.0,0.0,0.0,0.0,0.0,0.0,0.0,0.0,0.0,1.8574,2.205,2.4735,2.5615,2.5693,2.5693,2.5693,2.2945,2.0839,0.0,0.0,0.0,0.0,0.0,0.0,0.0,0.0,0.0,0.0,0.0,0.0,0.0,0.0,0.0,0.0,0.0,0.0,0.0,0.0,0.0,0.0,0.0,0.0,0.0,0.0,0.0,0.0,0.0,0.0,0.0,0.0,0.0,0.0,0.0,0.0,0.0,0.0,0.0,0.0,0.0,0.0,0.0,0.0,0.0,0.0,0.0,0.0,0.0,0.0,0.0,0.0,0.0,0.0,0.0,0.0,0.0,0.0,0.0,0.0,0.0,0.0,0.0,0.0,0.0,0.0,0.0,0.0,0.0,0.0,0.0,0.0,0.0,0.0,0.0,0.0,0.0,0.0,0.0,0.0,0.0,0.0,0.0,0.0,0.0,0.0,0.0,0.0,0.0,0.0,0.0,0.0,0.0,0.0,0.0,0.0,0.0,0.0,0.0,0.0,0.0,0.0,0.0,1.8353,2.1926,2.473,2.5596,2.5693,2.5693,2.5693,2.4082,2.2012,1.9629,0.0,0.0,0.0,0.0,0.0,0.0,0.0,0.0,0.0,0.0,0.0,0.0,0.0,0.0,0.0,0.0,0.0,0.0,0.0,0.0,0.0,0.0,0.0,0.0,0.0,0.0,0.0,0.0,0.0,0.0,0.0,0.0,0.0,0.0,0.0,0.0,0.0,0.0,0.0,0.0,0.0,0.0,0.0,0.0,0.0,0.0,0.0,0.0,0.0,0.0,0.0,0.0,0.0,0.0,0.0,0.0,0.0,0.0,0.0,0.0,0.0,0.0,0.0,0.0,0.0,0.0,0.0,0.0,0.0,0.0,0.0,0.0,0.0,0.0,0.0,0.0,0.0,0.0,0.0,0.0,0.0,0.0,0.0,0.0,0.0,0.0,0.0,0.0,0.0,0.0,0.0,0.0,0.0,0.0,0.0,0.0,0.0,0.0,0.0,0.0,0.0,0.0,1.8848,2.213,2.4699,2.5596,2.5693,2.5693,2.5693,2.4531,2.2706,2.0152,0.0,0.0,0.0,0.0,0.0,0.0,0.0,0.0,0.0,0.0,0.0,0.0,0.0,0.0,0.0,0.0,0.0,0.0,0.0,0.0,0.0,0.0,0.0,0.0,0.0,0.0,0.0,0.0,0.0,0.0,0.0,0.0,0.0,0.0,0.0,0.0,0.0,0.0,0.0,0.0,0.0,0.0,0.0,0.0,0.0,0.0,0.0,0.0,0.0,0.0,0.0,0.0,0.0,0.0,0.0,0.0,0.0,0.0,0.0,0.0,0.0,0.0,0.0,0.0,0.0,0.0,0.0,0.0,0.0,0.0,0.0,0.0,0.0,0.0,0.0,0.0,0.0,0.0,0.0,0.0,0.0,0.0,0.0,0.0,0.0,0.0,0.0,0.0,0.0,0.0,0.0,0.0,0.0,0.0,0.0,0.0,0.0,0.0,0.0,0.0,0.0,0.0,1.9728,2.2559,2.4699,2.5596,2.5693,2.5742,2.5868,2.467,2.3228,2.152,0.0,0.0,0.0,0.0,0.0,0.0,0.0,0.0,0.0,0.0,0.0,0.0,0.0,0.0,0.0,0.0,0.0,0.0,0.0,0.0,0.0,0.0,0.0,0.0,0.0,0.0,0.0,0.0,0.0,0.0,0.0,0.0,0.0,0.0,0.0,0.0,0.0,0.0,0.0,0.0,0.0,0.0,0.0,0.0,0.0,0.0,0.0,0.0,0.0,0.0,0.0,0.0,0.0,0.0,0.0,0.0,0.0,0.0,0.0,0.0,1.9806,0.0,0.0,0.0,0.0,0.0,0.0,0.0,0.0,0.0,0.0,0.0,0.0,0.0,0.0,0.0,0.0,0.0,0.0,0.0,0.0,0.0,0.0,0.0,0.0,0.0,0.0,0.0,0.0,0.0,0.0,0.0,0.0,0.0,0.0,0.0,0.0,0.0,0.0,0.0,0.0,0.0,1.9731,2.2559,2.4699,2.5596,2.5693,2.611,2.7125,2.5867,2.4914,2.447,2.1683,0.0,0.0,0.0,0.0,0.0,0.0,0.0,0.0,0.0,0.0,0.0,0.0,0.0,0.0,0.0,0.0,0.0,0.0,0.0,0.0,0.0,0.0,0.0,0.0,0.0,0.0,0.0,0.0,0.0,0.0,0.0,0.0,0.0,0.0,0.0,0.0,0.0,0.0,0.0,0.0,0.0,0.0,0.0,0.0,0.0,0.0,0.0,0.0,0.0,0.0,0.0,0.0,0.0,0.0,0.0,0.0,0.0,0.0,0.0,0.0,2.2097,0.0,0.0,0.0,0.0,0.0,0.0,0.0,0.0,0.0,0.0,0.0,0.0,0.0,0.0,0.0,0.0,0.0,0.0,0.0,0.0,0.0,0.0,0.0,0.0,0.0,0.0,0.0,0.0,0.0,0.0,0.0,0.0,0.0,0.0,0.0,0.0,0.0,0.0,0.0,0.0,2.0314,2.3507,2.5852,2.6539,2.7125,2.7767,2.8402,2.7605,2.6795,2.6239,2.3761,0.0,0.0,0.0,0.0,0.0,0.0,0.0,0.0,0.0,0.0,0.0,0.0,0.0,0.0,0.0,0.0,0.0,0.0,0.0,0.0,0.0,0.0,0.0,0.0,0.0,0.0,0.0,0.0,0.0,0.0,0.0,0.0,0.0,0.0,0.0,0.0,0.0,0.0,0.0,0.0,0.0,0.0,0.0,0.0,0.0,0.0,0.0,0.0,0.0,0.0,0.0,0.0,0.0,2.7653,2.8146,2.8503,2.9227,3.0039,3.0694,2.709,2.6168,2.6966,2.3545,0.0,0.0,0.0,0.0,0.0,0.0,0.0,0.0,0.0,0.0,0.0,0.0,0.0,0.0,0.0,0.0,0.0,0.0,0.0,0.0,0.0,0.0,0.0,0.0,2.7648,2.7754,2.3891,0.0,0.0,0.0,0.0,0.0,0.0,0.0,0.0,0.0,0.0,0.0,2.151,2.4923,2.7377,2.7845,2.8819,2.951,2.967,2.933,2.874,2.7886,2.5822,2.3977,0.0,0.0,0.0,0.0,0.0,0.0,0.0,0.0,0.0,0.0,0.0,0.0,0.0,0.0,0.0,0.0,0.0,0.0,0.0,0.0,0.0,0.0,0.0,0.0,0.0,0.0,0.0,0.0,0.0,0.0,0.0,0.0,2.2101,2.3636,0.0,0.0,0.0,0.0,0.0,0.0,0.0,0.0,0.0,0.0,0.0,0.0,0.0,2.8418,2.9323,3.1114,3.2311,3.2816,3.3364,3.3662,3.3737,3.3826,3.397,3.407,3.3501,0.0,2.9856,2.7396,0.0,0.0,0.0,0.0,0.0,0.0,0.0,0.0,0.0,0.0,0.0,0.0,0.0,0.0,0.0,0.0,0.0,0.0,0.0,0.0,0.0,0.0,3.0295,3.0544,3.1126,3.1394,0.0,2.6673,2.327,2.1892,2.054,0.0,0.0,0.0,0.0,0.0,0.0,0.0,2.3655,2.6606,2.87,2.9122,2.9326,2.9806,3.0866,3.0484,3.0385,3.0826,2.8786,2.7019,2.5895,2.3567,0.0,0.0,0.0,0.0,0.0,0.0,0.0,0.0,0.0,0.0,0.0,0.0,0.0,0.0,0.0,0.0,0.0,0.0,0.0,0.0,0.0,0.0,0.0,0.0,0.0,0.0,0.0,0.0,0.0,2.1343,2.3527,2.428,2.4732,2.4431,0.0,0.0,0.0,0.0,0.0,0.0,0.0,0.0,0.0,3.067,3.1631,3.2568,3.3632,3.484,3.5504,3.5755,3.6307,3.6558,3.6558,3.6558,3.6408,3.6081,3.578,3.4776,3.3176,3.0602,2.8774,2.7362,0.0,0.0,0.0,0.0,2.3851,2.4292,2.5812,2.6566,0.0,2.7469,0.0,0.0,0.0,0.0,0.0,0.0,0.0,0.0,0.0,0.0,3.1119,3.2111,3.2543,3.2635,3.2407,3.034,2.7941,0.0,2.4904,2.3515,2.0641,0.0,0.0,0.0,0.0,2.4006,2.587,2.8464,3.0208,3.0371,3.1045,3.1689,3.2239,3.2062,3.1783,3.1395,3.0206,2.9026,2.7896,2.5711,2.3678,0.0,0.0,0.0,0.0,0.0,0.0,0.0,0.0,0.0,0.0,0.0,0.0,0.0,0.0,0.0,0.0,0.0,0.0,0.0,0.0,0.0,0.0,0.0,0.0,0.0,0.0,0.0,0.0,2.3276,2.5209,2.5636,2.7017,2.7118,0.0,0.0,0.0,0.0,0.0,0.0,3.1546,3.1674,3.2832,3.5257,3.5479,3.6031,3.7033,3.7262,3.7462,3.7613,3.7889,3.8015,3.8015,3.8015,3.7789,3.7362,3.696,3.6483,3.5734,3.3269,3.1612,3.0468,2.8653,2.7555,2.698,2.7308,2.7544,2.7936,2.9648,3.0716,3.1332,3.2045,3.2093,3.1246,2.7927,0.0,0.0,0.0,0.0,2.7947,2.983,3.0759,3.1547,3.2771,3.3111,3.3111,3.3111,3.2635,3.1529,0.0,2.8725,2.7478,2.4153,0.0,0.0,0.0,0.0,2.6362,2.8077,3.0284,3.1689,3.1689,3.2525,3.3111,3.3111,3.2943,3.2441,3.1461,3.0909,3.0181,2.9176,2.7419,2.5812,2.4431,0.0,0.0,0.0,0.0,0.0,0.0,0.0,0.0,0.0,0.0,0.0,0.0,0.0,0.0,0.0,0.0,0.0,0.0,0.0,0.0,0.0,0.0,0.0,0.0,0.0,0.0,0.0,0.0,0.0,3.0105,3.126,0.0,0.0,0.0,0.0,3.0331,3.1847,3.3276,3.4405,3.5508,3.6386,3.7036,3.7563,3.814,3.8793,3.8216,3.8241,3.8818,3.8266,3.8015,3.8015,3.8015,3.799,3.7965,3.7939,3.7613,3.696,3.5253,3.3897,3.2893,3.2817,3.2072,3.1245,3.2331,3.2276,3.1902,3.3429,3.3501,3.2986,3.3028,3.232,3.1581,3.245,3.1776,0.0,0.0,3.2071,3.1415,3.259,3.2932,3.3,3.3068,3.3111,3.3111,3.3111,3.2635,3.2027,0.0,3.0399,2.9184,2.7603,0.0,2.6557,2.656,2.7981,2.9402,3.0334,3.1915,3.2982,3.2982,3.3068,3.3111,3.3111,3.2566,3.2014,3.1436,3.0909,3.0357,2.9779,2.9126,2.7745,2.5561,2.3772,0.0,0.0,0.0,0.0,0.0,0.0,0.0,0.0,0.0,0.0,0.0,0.0,0.0,0.0,0.0,0.0,0.0,0.0,0.0,0.0,0.0,0.0,0.0,0.0,0.0,0.0,0.0,0.0,3.1537,3.3201,0.0,3.2064,3.3043,3.3878,3.4299,3.5529,3.6885,3.8366,3.8843,3.9295,3.9848,3.9997,4.0249,4.045,3.9898,3.9722,3.9923,3.9371,3.9094,3.9094,3.9094,3.8894,3.8567,3.8567,3.8241,3.7663,3.7086,3.5981,3.4625,3.4274,3.3897,3.3571,3.3997,3.3845,3.3524,3.427,3.4544,3.4451,3.3984,3.3219,3.2575,3.298,3.2705,3.2404,3.2962,3.2802,3.261,3.3005,3.3111,3.3111,3.3111,3.3111,3.3111,3.3111,3.2932,3.2714,3.2525,3.1854,3.0979,2.9737,2.9673,2.9653,2.9278,3.0049,3.1034,3.208,3.2728,3.3111,3.3111,3.3111,3.3111,3.3111,3.2541,3.1838,3.0959,3.0382,2.9679,2.875,2.8499,2.7695,2.6223,2.4883,2.2543,0.0,0.0,0.0,0.0,0.0,0.0,0.0,0.0,0.0,0.0,0.0,0.0,0.0,0.0,0.0,0.0,0.0,0.0,0.0,0.0,0.0,0.0,0.0,0.0,0.0,0.0,3.2441,3.2993,3.5203,3.6081,3.46,3.6132,3.7362,3.7739,3.8617,3.9622,4.0727,4.0802,4.0899,4.1275,4.1275,4.1275,4.1275,4.0924,4.0802,4.0724,4.0249,3.9973,3.9973,3.9772,3.9496,3.9145,3.9145,3.8818,3.8291,3.8291,3.7538,3.6285,3.5755,3.5579,3.56,3.5353,3.5136,3.4944,3.5219,3.5431,3.5593,3.5108,3.443,3.3731,3.3266,3.3245,3.3463,3.3622,3.3571,3.3503,3.3596,3.3503,3.3366,3.3366,3.3205,3.3111,3.3111,3.3111,3.3111,3.3111,3.2767,3.229,3.1562,3.1738,3.1763,3.1235,3.1612,3.2164,3.2717,3.2943,3.3111,3.3111,3.3111,3.3111,3.3111,3.2215,3.1436,3.0909,3.0005,2.9176,2.8423,2.8197,2.7595,2.6524,2.5209,2.3351,2.0916,0.0,0.0,0.0,0.0,0.0,0.0,0.0,0.0,0.0,0.0,0.0,0.0,0.0,0.0,0.0,0.0,0.0,0.0,0.0,0.0,0.0,0.0,0.0,3.1023,3.2659,3.4268,3.4801,3.7262,3.8492,3.7412,3.927,4.0551,4.0576,4.1,4.1326,4.1326,4.1326,4.1326,4.1326,4.1326,4.1326,4.1326,4.1326,4.13,4.13,4.0802,4.0551,4.0526,3.9973,3.9722,3.9722,3.9697,3.9396,3.8944,3.8944,3.8567,3.799,3.7437,3.7358,3.7381,3.6729,3.643,3.6427,3.6405,3.6396,3.6391,3.6379,3.5935,3.5057,3.3625,3.3727,3.4325,3.4615,3.4478,3.4341,3.4641,3.4341,3.3903,3.3921,3.3528,3.3136,3.3093,3.3093,3.3111,3.3111,3.3111,3.3111,3.3111,3.3111,3.2893,3.2315,3.2717,0.0,3.2315,3.2742,3.3111,3.3043,3.3043,3.3043,3.3043,3.1562,3.0809,3.1311,2.9779,2.8838,2.8863,2.8373,2.7595,2.66,2.4908,2.3803,2.3221,0.0,0.0,0.0,0.0,0.0,0.0,0.0,0.0,0.0,0.0,0.0,0.0,0.0,0.0,0.0,0.0,0.0,0.0,0.0,0.0,0.0,0.0,3.5843,3.4432,3.6549,3.826,3.829,3.9346,4.0099,4.0199,4.0699,4.1279,4.1735,4.1856,4.2108,4.2509,4.2534,4.2534,4.2534,4.2534,4.2534,4.2534,4.2133,4.1932,4.1932,4.1379,4.1075,4.105,4.0654,4.048,4.0455,3.995,3.9622,3.9471,3.9471,3.9371,3.9145,3.8165,3.7689,3.7466,3.7235,3.6855,3.6405,3.6398,3.6373,3.642,3.6413,3.6248,3.6029,3.5649,3.5643,3.5658,3.4911,3.5238,3.5666,3.5263,3.4815,3.447,3.4474,3.4085,3.3655,3.3677,3.3376,3.3111,3.3111,3.3111,3.3111,3.3111,3.3111,3.3018,3.2867,3.2968,0.0,3.2867,3.2993,3.2918,3.2491,3.2441,3.2441,3.2441,3.1311,3.0507,3.0256,2.8649,2.7921,2.8323,2.7795,2.7745,2.8247,2.6615,2.5745,0.0,0.0,0.0,0.0,0.0,0.0,0.0,0.0,0.0,0.0,0.0,0.0,0.0,0.0,0.0,0.0,0.0,0.0,0.0,0.0,0.0,0.0,3.8279,4.0351,3.9775,4.0226,4.0441,4.0079,4.0727,4.1329,4.1656,4.1882,4.2158,4.2539,4.2564,4.269,4.2961,4.2986,4.2986,4.2986,4.2986,4.2986,4.2986,4.2715,4.2564,4.2539,4.1932,4.1681,4.1656,4.1207,4.0981,4.0955,4.0377,4.0126,4.0023,3.9798,3.9697,0.0,0.0,0.0,0.0,0.0,3.7752,3.6855,3.6855,3.6679,3.6405,3.6405,3.637,3.64,3.64,3.64,3.6257,3.5608,3.5873,3.6328,3.5848,3.5397,3.5015,3.5027,3.4605,3.4237,3.422,3.3815,3.3427,3.3445,3.3244,0.0,3.3111,3.3111,3.2993,3.2742,3.2918,3.2993,3.2742,3.2918,3.2943,3.2616,3.2566,3.2566,3.2566,3.1562,0.0,0.0,0.0,2.8725,2.88,2.8273,0.0,0.0,0.0,0.0,0.0,0.0,0.0,0.0,2.6507,2.642,0.0,0.0,0.0,0.0,0.0,0.0,0.0,0.0,0.0,0.0,0.0,0.0,0.0,0.0,0.0,0.0,4.2798,4.5227,4.5578,4.3704,4.1992,4.1047,4.1825,4.2377,4.2288,4.274,4.2986,4.2986,4.2986,4.2986,4.2986,0.0,0.0,0.0,0.0,4.2986,4.2986,4.2986,4.2986,4.2961,4.2539,4.2313,4.2288,4.176,4.148,4.1483,4.1034,4.0757,4.0475,3.9921,3.9671,3.9647,3.917,3.9272,3.9677,3.9596,3.8758,3.7606,3.7581,0.0,0.0,3.6483,3.648,3.6405,3.6405,3.6405,3.6405,3.6405,3.6405,3.6405,3.6405,3.5999,3.56,3.5603,3.5183,3.4803,3.4803,3.435,3.4009,3.4022,3.3596,3.3244,3.3194,3.3162,3.2893,3.239,3.2742,3.2893,3.2365,3.2767,3.3043,3.2993,0.0,0.0,3.2993,3.2014,3.1587,3.2089,3.1235,3.0457,2.9905,2.9578,2.9603,3.0055,3.0055,3.0532,3.1486,3.1964,3.1989,3.1486,2.8047,2.7745,0.0,0.0,0.0,0.0,0.0,0.0,0.0,0.0,0.0,0.0,0.0,0.0,0.0,0.0,0.0,4.2769,4.5607,4.7436,4.7062,4.6967,4.6061,4.373,4.3703,4.3562,4.2927,4.2911,4.2986,4.2986,4.2986,4.2986,4.2986,4.2986,4.2986,4.2986,4.2986,4.2986,4.2986,4.2986,4.2986,4.2986,0.0,0.0,4.2866,4.2709,4.2641,4.2616,4.1613,4.1031,4.0706,3.9987,3.9663,3.9697,3.9572,3.96,3.9626,3.9045,3.8666,3.8361,3.8013,3.7561,3.7036,3.7064,3.6762,3.6405,3.6405,3.6405,0.0,3.6405,3.6405,3.6405,3.6405,3.6304,3.6229,3.6235,3.5762,3.5361,3.5361,3.4911,3.453,3.4575,3.4474,3.4248,3.3822,3.337,3.3043,3.2918,3.3061,3.3086,3.2918,3.3061,3.2893,3.2441,3.2365,3.2365,3.2365,3.1763,3.1436,3.1537,3.1361,3.1009,3.0482,3.1637,3.2114,3.1763,3.1738,3.1838,3.2064,3.2164,3.239,3.2742,3.1989,3.1662,0.0,0.0,0.0,0.0,0.0,0.0,0.0,0.0,0.0,0.0,0.0,3.8311,0.0,0.0,4.4762,4.59,4.7867,4.9147,4.8862,4.931,4.8557,4.5629,4.4836,4.4411,4.4045,4.3381,4.2986,4.2986,4.2986,4.2986,4.2986,4.2986,4.2986,4.2986,4.2986,4.2986,4.2986,4.2986,4.2986,4.2986,4.2986,4.2986,4.2961,4.2977,4.3012,4.2987,4.2377,4.1868,4.1462,4.0492,3.9942,3.9697,3.9697,3.9699,3.9625,3.927,3.9171,3.9094,3.8617,3.8065,3.7563,3.7291,3.7033,3.6745,3.6477,3.6405,3.6405,3.6405,3.6405,3.6405,3.6405,3.6405,3.6405,3.6405,3.6157,3.5956,3.5956,3.5529,3.5082,3.5082,3.4856,3.4625,3.4349,3.3847,3.3395,3.3162,3.3111,3.3111,3.3111,3.3111,3.2968,3.2667,3.2641,3.2641,3.2641,3.239,3.224,3.224,3.224,3.2114,3.1863,3.2641,3.2943,3.2641,3.2641,3.2641,3.2641,3.2641,3.2792,3.3111,3.3111,3.2918,0.0,0.0,0.0,0.0,0.0,0.0,0.0,0.0,3.5669,3.7943,4.0187,4.2252,4.3947,4.5771,4.7429,4.8476,4.9673,5.0375,5.0375,5.0853,5.0206,4.756,4.6408,4.5714,4.5449,4.4155,4.3381,4.3381,4.3129,4.2986,4.2986,4.2986,4.3129,4.3406,4.3381,4.3492,4.3797,4.3797,4.3797,4.3797,4.3797,4.3797,4.3797,4.3797,4.3797,4.3797,4.3684,4.3102,4.2087,4.151,4.0823,4.0235,4.0108,4.0134,4.016,3.9801,3.9675,3.9626,3.9196,3.8743,3.8215,3.7568,3.7285,3.7086,3.6575,3.6405,3.6405,3.6405,3.6405,3.6405,3.6405,3.6405,3.6405,3.6405,3.6405,3.6405,3.6405,3.6006,3.5658,3.5658,3.5353,3.5002,3.4901,3.4525,3.3997,3.3345,3.3187,3.3111,3.3111,3.3111,3.3111,3.3111,3.3111,3.3111,3.3111,3.3111,3.3111,3.3111,3.3111,3.3111,3.3111,3.3111,3.3111,3.3111,3.3111,3.3111,3.3111,3.3111,3.3111,3.3111,3.3111,3.3187,3.3254,3.3539,3.4503,3.6232,3.6255,3.7079,0.0,0.0,4.1384,4.4586,4.5933,4.677,4.7578,4.8865,4.9807,4.9956,5.0584,5.1109,5.1109,5.1169,5.1028,5.0704,4.9524,4.8239,4.6991,4.5608,4.4779,4.4779,4.3657,4.2986,4.2986,4.2986,4.3547,4.4725,4.4779,4.5395,4.663,4.663,4.663,4.663,4.663,4.663,4.663,4.663,4.663,4.6602,4.613,4.4413,4.2066,4.3493,4.3283,4.2077,4.1553,4.1625,4.1743,4.0236,3.9724,3.9698,3.9622,3.9575,3.9348,3.8259,3.7617,3.7086,3.6575,3.6405,3.6405,3.6405,3.6405,3.6405,3.6405,3.6405,3.6405,3.6405,3.6405,3.6405,3.6405,3.6355,3.6329,3.6329,3.6279,3.6031,3.5483,3.5357,3.4956,3.3972,3.3395,3.3111,3.3111,3.3111,3.3111,3.3111,3.3111,3.3111,3.3111,3.3111,3.3111,3.3111,3.3111,3.3111,3.3111,3.3111,3.3111,3.3111,3.3111,3.3111,3.3111,3.3111,3.3111,3.3111,3.3111,3.3345,3.755,3.7972,3.8421,0.0,4.0262,4.0553,4.3129,4.3389,4.3718,4.5873,4.7459,4.8536,4.885,4.9912,5.0764,0.0,5.105,5.1229,5.1229,5.0853,5.0614,5.0614,5.0135,4.9416,4.8411,4.7043,4.6213,4.6213,4.5714,4.5395,4.5395,4.5395,4.5661,4.6188,4.6213,4.6474,4.7094,4.7094,4.7094,4.7094,4.7094,4.7094,4.7094,4.7094,4.7094,4.7094,4.6869,4.5901,4.449,4.523,4.4776,4.3606,4.3411,4.3169,4.2685,4.049,4.0619,4.1688,4.0234,3.9702,3.9625,3.9164,3.8367,3.7581,3.7012,3.6636,3.6405,3.6405,3.6405,3.6405,3.6405,3.6405,3.6405,3.6405,3.6405,3.6405,3.6405,3.6405,3.6405,3.6405,3.6405,3.6329,3.6056,3.5708,3.5332,3.4881,3.4123,3.3545,3.3545,3.3269,3.3111,3.3111,3.3111,3.3111,3.3111,3.3111,3.3111,3.3111,3.3111,3.3111,3.3111,3.3111,3.3111,3.3111,3.3111,3.3111,3.3111,3.3111,3.3244,3.3545,3.3545,3.4022,4.015,4.0867,0.0,4.2762,4.3187,4.3329,4.4018,4.4676,4.5484,4.6621,4.7997,4.909,4.9269,5.0182,5.0913,5.0913,5.1109,5.1229,5.1229,5.0614,5.0255,5.0435,5.0315,5.008,4.9766,4.8489,4.7656,4.7656,4.7299,4.7094,4.7094,4.7094,4.7299,4.7656,4.7656,4.7859,4.8239,4.8239,4.8239,4.8239,4.8239,4.8239,4.8239,4.8239,4.8038,4.7707,4.8088,4.7556,4.6583,4.7116,4.6623,4.5489,4.5152,4.495,4.4481,4.1769,4.1752,4.2949,4.1572,4.0963,4.0721,4.0568,3.9902,3.9007,3.8176,3.7826,3.7568,3.722,3.7232,3.7381,3.7381,3.7381,3.7381,3.7381,3.7381,3.7381,3.7381,3.7381,3.7381,3.7381,3.7129,3.6896,3.6896,3.624,3.578,3.578,3.4951,3.4248,3.3947,3.342,3.3111,3.3111,3.3111,3.3111,3.3111,3.3111,3.3111,3.3111,3.3111,3.3111,3.3111,3.3111,3.3111,3.3111,3.3111,3.3111,3.3111,3.3244,3.352,3.3897,3.4048,3.465,3.9605,0.0,4.1936,4.3092,4.4313,4.5394,4.6082,4.6741,4.7399,4.8087,4.8267,4.8506,4.9179,4.9823,5.0226,5.0226,5.0764,5.1229,5.1229,5.0614,5.0435,5.1109,5.0584,5.0465,0.0,4.9921,4.9161,4.9161,4.7859,4.7094,4.7094,4.7094,4.7707,4.9112,4.9161,4.9776,5.1058,5.1058,5.1058,5.1058,5.1058,5.1058,5.1058,5.1058,5.0383,4.921,5.0508,4.9553,4.7244,4.922,4.9316,4.799,4.68,4.7102,4.7793,4.4575,4.2923,4.244,4.4121,4.4104,4.3283,4.2775,4.2377,4.1775,4.0256,4.021,4.0402,3.9157,3.9258,3.9798,3.9798,3.9798,3.9798,3.9798,3.9798,3.9798,3.9798,3.9798,3.9798,3.9798,3.8827,3.8062,3.8062,3.715,3.638,3.638,3.5855,3.5056,3.4048,3.342,3.3111,3.3111,3.3111,3.3111,3.3111,3.3111,3.3111,3.3111,3.3111,3.3111,3.3111,3.3111,3.3111,3.3111,3.3111,3.3111,3.3111,3.3621,3.3872,3.3922,3.4449,3.4956,4.1774,0.0,4.4763,4.537,4.5748,4.6142,4.683,4.716,4.7249,4.704,4.698,4.692,4.6681,4.7549,4.8446,4.8865,4.9853,5.0674,5.1169,5.0614,5.0285,5.0495,5.0315,0.0,0.0,0.0,0.0,5.0555,5.0095,4.9824,4.9824,4.9824,5.0047,5.0508,5.0555,5.0745,5.1229,5.1229,5.1229,5.1229,5.1229,5.1229,5.1229,5.1229,5.0964,5.0555,5.1011,5.0698,4.9844,5.0585,5.0322,4.9503,4.9107,4.8654,4.8148,4.7078,4.622,4.5531,4.4995,4.4593,4.4359,4.4153,4.3379,4.243,4.1934,4.1617,4.1266,4.0431,4.0292,4.0426,3.9996,3.9913,3.9913,3.9913,3.9913,3.9913,3.9913,3.9913,3.9667,3.8872,3.8379,3.7861,3.7103,3.6662,3.6405,3.6405,3.5906,3.5232,3.455,3.3972,3.3621,3.3621,3.3294,3.3111,3.3111,3.3111,3.3111,3.3111,3.3111,3.3111,3.3111,3.3111,3.3244,3.3621,3.3621,3.3796,3.4173,3.4349,3.4625,3.4956,3.5132,3.5554,4.4273,4.5798,4.7081,4.7302,4.7303,4.7208,4.7276,4.713,4.677,4.6082,4.5574,4.5035,4.4377,4.5155,4.6202,4.707,4.8327,4.9538,5.0674,5.0301,5.0062,5.0495,5.0345,5.0285,0.0,0.0,0.0,5.1229,5.1229,5.1229,5.1229,5.1229,5.1229,5.1229,5.1229,5.1229,5.1229,5.1229,5.1229,5.1229,5.1229,5.1229,5.1229,5.1229,5.1229,5.1229,5.1229,5.1229,5.1229,5.1229,5.0913,5.0524,5.0285,4.9583,4.864,4.8386,4.7878,4.7149,4.6064,4.5693,4.5681,4.5689,4.5068,4.4252,4.3796,4.3562,4.3234,4.2322,4.2245,4.2338,4.1939,4.1639,4.1468,4.1468,4.1298,4.1085,4.1085,4.1085,4.0873,4.0118,3.964,3.9112,3.8379,3.754,3.6896,3.6452,3.6056,3.5629,3.5031,3.4525,3.4198,3.4198,3.3872,3.3596,3.3395,3.3545,3.3571,3.3395,3.3545,3.3671,3.3671,3.3671,3.3822,3.4198,3.4198,3.4374,3.468,3.4881,3.5157,3.5508,3.5708,3.6031,4.6911,4.823,4.883,4.8858,4.8841,4.8594,4.7478,4.6783,4.6094,4.5304,4.4107,4.297,0.0,0.0,4.3748,4.5005,4.6441,4.8087,4.9956,4.9763,4.9823,0.0,0.0,0.0,0.0,0.0,0.0,5.1229,0.0,5.1229,5.1229,5.1229,5.1229,5.1229,5.1229,5.1229,5.1229,5.1229,5.1229,5.1229,5.1229,5.1229,5.1229,5.1229,5.1229,5.1229,5.1229,5.1229,5.1229,5.1229,5.1229,5.1169,5.0495,4.9883,4.9239,4.8566,4.7908,4.7309,4.7309,4.7303,4.7315,4.7271,4.7303,4.7076,4.5863,4.5889,4.6096,4.485,4.4934,4.5334,4.5304,4.4825,4.4377,4.4377,4.3828,4.3349,4.3349,4.3319,4.329,4.321,4.2275,4.1504,4.1504,3.9683,3.7815,3.6756,3.6546,3.6276,3.5608,3.5056,3.4731,3.4731,3.4751,3.45,3.3997,3.4424,3.45,3.3972,3.4424,3.468,3.468,3.468,3.468,3.4731,3.4731,3.4776,3.4801,3.5282,3.5533,3.5558,3.6107,3.6405,4.8993,5.0469,5.1512,5.0012,4.9792,4.937,4.7075,4.6659,4.6058,4.3647,4.2073,4.0636,0.0,0.0,0.0,4.3688,4.6621,0.0,5.075,5.081,0.0,5.1169,0.0,5.0973,5.1199,5.1229,0.0,0.0,5.1229,5.1229,5.1229,5.1229,5.1229,5.1229,5.1229,5.1229,5.1229,5.1229,5.1229,5.1229,5.1229,5.1229,5.1229,5.1229,5.1229,5.1229,5.1229,5.1229,5.1229,5.1229,5.1229,5.1199,5.0973,5.0272,4.9299,4.912,4.8297,4.7309,4.7309,4.7268,4.73,4.7326,4.7268,4.7257,4.6917,4.6899,4.6864,4.6057,4.5917,4.5933,4.5424,4.5155,4.5035,4.5035,4.4556,4.4077,4.4077,4.3648,4.3021,4.2193,4.1127,4.0318,4.0318,3.9842,3.9316,3.905,3.8243,3.7304,3.6298,3.568,3.5282,3.5282,3.4931,3.463,3.4525,3.465,3.463,3.4525,3.4605,3.468,3.468,3.468,3.4881,3.5282,3.5282,3.5529,3.5956,3.6081,3.6157,3.6157,3.6355,3.6405,5.1228,5.2527,5.3301,5.1662,5.0922,4.9791,4.6803,4.6074,4.5096,4.1801,4.01,0.0,3.6882,3.8577,0.0,0.0,0.0,0.0,5.0092,5.0601,5.0853,0.0,5.1229,0.0,5.1229,5.1229,5.1229,0.0,5.1229,5.1229,5.1229,5.1229,5.1229,5.1229,5.1229,5.1229,5.1229,5.1229,5.1229,5.1229,5.1229,5.1229,5.1229,5.1229,5.1229,5.1229,0.0,5.1229,5.1229,5.1229,5.1229,5.1229,5.1229,5.0601,4.9673,4.9673,4.8865,4.7728,4.7728,4.7549,4.7309,4.7309,4.7309,4.7309,4.7309,4.7309,4.7219,4.686,4.6741,4.6651,4.6292,4.5963,4.5753,4.5753,4.5244,4.4736,4.4736,4.4436,4.3964,4.336,4.2473,4.1681,4.1141,4.083,4.049,4.0,3.8872,3.7861,3.7243,3.6409,3.5906,3.5906,3.5629,3.5353,3.5056,3.5303,3.5328,3.5056,3.5303,3.5454,3.5454,3.5454,3.5579,3.5906,3.5906,3.6056,3.6405,3.6405,3.6405,3.6405,3.6405,3.6405,5.3416,5.4262,5.4494,5.3397,5.1996,4.9969,4.6692,4.5266,4.3673,4.0103,0.0,3.7033,3.5667,3.6557,3.8202,4.0214,0.0,4.6262,4.9015,4.9883,5.0435,5.1139,5.1229,5.1229,5.1229,5.1229,5.1229,5.1229,5.1229,5.1229,5.1229,5.1229,5.1229,5.1229,5.1229,5.1229,5.1229,5.1229,5.1229,5.1229,5.1229,5.1229,5.1229,5.1229,5.1229,5.1229,5.1229,0.0,5.1229,5.1229,5.1229,5.1229,5.1229,5.0764,5.0196,5.0196,4.9464,4.8416,4.8327,4.7908,4.7429,4.7339,4.7309,4.7309,4.7309,4.7309,4.7309,4.7309,4.7309,4.7309,4.7309,4.689,4.6399,4.6399,4.5933,4.5424,4.5424,4.5364,4.5304,4.5304,4.4825,4.4121,4.3148,4.2473,4.1734,4.063,3.9469,3.8684,3.8604,3.7289,3.6405,3.6405,3.6405,3.6182,3.5633,3.6081,3.6157,3.5633,3.6107,3.6405,3.6405,3.6405,3.6405,3.6405,3.6405,3.6405,3.6405,3.6405,3.6405,3.6405,3.648,3.6505,5.5108,5.5412,5.5233,5.4158,5.2491,5.0259,4.684,4.4786,0.0,0.0,3.766,3.627,3.499,3.6689,3.8959,4.0913,4.3521,4.6411,4.9613,5.0106,5.0435,0.0,5.1229,0.0,0.0,0.0,0.0,0.0,0.0,5.1229,5.1229,5.1229,5.1229,5.1229,5.1229,5.1229,5.1229,5.1229,5.1229,5.1229,5.1229,5.1229,5.1229,5.1229,5.1229,5.1229,5.1229,0.0,5.1229,5.1229,5.1229,5.1229,5.1229,5.0764,5.0196,5.0196,4.9763,4.906,4.8476,4.8207,4.8027,4.7489,4.7309,4.7309,4.7309,4.7309,4.7309,4.7309,4.7309,4.7309,4.7309,4.7219,4.713,4.713,4.6621,4.6142,4.6142,4.5693,4.5304,4.5304,4.5214,4.5083,4.4846,4.4757,4.4406,4.3667,4.2562,4.1611,4.1029,3.8289,3.6405,3.6405,3.6405,3.638,3.6279,3.6355,3.638,3.6279,3.6355,3.6405,3.6405,3.6405,3.6405,3.6405,3.6405,3.6405,3.6405,3.6405,3.6405,3.6405,3.6835,3.7036,5.5412,5.5681,5.5611,5.5046,5.2774,4.971,4.6149,0.0,0.0,0.0,3.6509,3.5805,3.4785,3.5872,0.0,3.9095,4.1576,4.4407,4.7684,4.8775,0.0,5.105,0.0,0.0,0.0,0.0,0.0,0.0,0.0,5.1229,5.1229,5.1229,5.1229,5.1229,5.1229,5.1229,5.1229,5.1229,5.1229,5.1229,5.1229,5.1229,5.1229,5.1229,5.1229,5.1229,5.1229,0.0,5.1229,5.1229,5.1229,5.1229,5.1229,5.102,5.0704,5.0704,5.0331,4.9733,4.9404,4.9075,4.8686,4.8027,4.7578,4.7309,4.7309,4.7309,4.7309,4.7309,4.7309,4.7309,4.7309,4.7309,4.7309,4.7309,4.707,4.683,4.683,4.6591,4.6352,4.6352,4.6052,4.5843,4.5843,4.5544,4.5185,4.4885,4.3851,4.2983,4.2666,4.0343,3.8588,3.8251,3.7632,3.7289,3.7289,3.6756,3.6405,3.6405,3.6405,3.6405,3.6405,3.6405,3.6405,3.6405,3.6405,3.6405,3.6405,3.6707,3.6832,3.6857,3.7362,3.7613,5.4871,5.5344,5.548,5.548,5.2638,4.8984,4.5602,4.3295,0.0,0.0,3.577,3.5503,3.4906,3.5203,3.6056,0.0,3.9684,4.2311,4.6033,4.7439,4.8865,0.0,0.0,0.0,0.0,0.0,0.0,0.0,0.0,0.0,5.1229,5.1229,5.1229,5.1229,5.1229,5.1229,5.1229,5.1229,5.1229,5.1229,5.1229,5.1229,5.1229,5.1229,5.1229,5.1229,5.1229,0.0,0.0,5.1229,5.1229,5.1229,5.1229,5.1229,5.1229,5.1229,5.09,5.0375,5.0255,4.9912,4.9374,4.8716,4.8057,4.7489,4.7339,4.7309,4.7309,4.7309,4.7309,4.7309,4.7309,4.7309,4.7309,4.7309,4.7309,4.7309,4.7309,4.7309,4.7309,4.7309,4.689,4.6488,4.6488,4.6082,4.5693,4.5544,4.4768,4.4123,4.3978,4.2681,4.1562,4.1111,3.9496,3.8379,3.8107,3.752,3.6943,3.6452,3.6849,3.7036,3.6756,3.6857,3.6934,3.6934,3.6776,3.6757,3.6757,3.7161,3.7362,3.7362,3.7939,3.8191,5.3484,5.4194,5.4702,5.4702,5.1894,4.8477,4.6143,0.0,0.0,3.7202,3.6118,3.5599,3.5532,3.5536,3.6463,3.9064,0.0,4.1479,4.6659,4.7401,4.8356,0.0,0.0,0.0,0.0,0.0,0.0,0.0,0.0,0.0,5.1229,5.1229,5.1229,5.1229,5.1229,5.1229,5.1229,5.1229,5.1229,5.1229,5.1229,5.1229,5.1229,5.1229,5.1229,5.1229,5.1229,0.0,0.0,5.1229,5.1229,5.1229,5.1229,5.1229,5.1229,5.1229,5.1169,5.1003,5.0405,5.0136,4.9986,4.9404,4.876,4.8087,4.7489,4.7309,4.7309,4.7309,4.7309,4.7309,4.7309,4.7309,4.7309,4.7309,4.7309,4.7309,4.7309,4.7309,4.7309,4.7309,4.7249,4.7219,4.7219,4.716,4.692,4.6322,4.6147,4.5824,4.5198,4.5007,4.4864,4.4805,4.1767,3.9271,3.8198,3.9006,3.8675,3.6546,3.8405,3.9094,3.7971,3.8378,3.8667,3.8667,3.8146,3.7864,3.7864,3.7914,3.7939,3.7939,3.8517,3.8844,5.2334,5.3653,5.4465,5.4059,5.1116,4.7631,4.4959,0.0,3.8802,3.6535,3.5802,3.56,3.56,3.5261,3.563,3.7564,3.7469,3.8738,4.3349,4.4692,4.6264,4.9174,0.0,0.0,0.0,0.0,0.0,0.0,0.0,0.0,5.1229,5.1229,5.1229,5.1229,5.1229,5.1229,5.1229,5.1229,5.1229,5.1229,5.1229,5.1229,5.1229,5.1229,5.1229,5.1229,5.1229,0.0,0.0,5.1229,5.1229,5.1229,5.1229,5.1229,5.1229,5.1229,5.1229,5.1169,5.0883,5.0794,5.0674,5.0062,4.9673,4.9344,4.8686,4.8207,4.7908,4.7908,4.7608,4.7309,4.7309,4.7309,4.7309,4.7309,4.7309,4.7309,4.7309,4.7309,4.7309,4.7309,4.7309,4.7309,4.7309,4.7309,4.7219,4.695,4.692,4.683,4.6531,4.6172,4.5903,4.5903,4.3282,4.1494,4.1423,4.0808,4.022,3.9666,4.0531,4.0828,4.035,3.9814,3.9854,4.0613,3.967,3.9158,3.9158,3.9521,3.9261,3.8542,3.9094,3.9371,5.0405,5.2097,5.3179,5.2909,5.0202,4.6853,0.0,4.1136,3.8362,3.6073,3.56,3.56,3.56,3.5191,3.5376,3.6821,3.6561,3.7605,4.1789,4.2991,4.4719,0.0,0.0,5.1341,0.0,0.0,0.0,0.0,0.0,0.0,5.22,5.188,5.1572,5.1229,5.1229,5.1229,5.1229,5.1229,5.1229,5.1229,5.1229,5.1229,5.1229,5.1229,5.1229,5.1229,5.1229,0.0,0.0,5.1229,5.1229,5.1229,5.1229,5.1229,5.1229,5.1229,5.1229,5.1229,5.1229,5.1229,5.1139,5.0644,5.0495,5.0405,4.9972,4.9254,4.8566,4.8566,4.8087,4.7549,4.7369,4.7309,4.7309,4.7309,4.7309,4.7309,4.7309,4.7309,4.7309,4.7309,4.7309,4.7309,4.7309,4.7309,4.7309,4.7309,4.7309,4.7309,4.7309,4.689,4.6621,4.6621,4.487,4.3658,4.3603,4.271,4.2056,4.1807,4.2463,4.2685,4.2357,4.1617,4.1654,4.2565,4.1521,4.0944,4.0944,4.14,4.113,4.0249,4.026,4.0083,4.7361,4.9018,5.0304,5.1048,4.9018,4.621,4.3916,4.1136,3.8362,3.6073,3.56,3.56,3.56,3.56,3.6107,3.7628,3.7785,3.9144,4.3381,4.3139,0.0,0.0,0.0,0.0,0.0,0.0,0.0,0.0,0.0,0.0,5.4547,5.3483,5.235,5.1229,5.1229,5.1229,5.1229,5.1229,5.1229,5.1229,5.1229,5.1229,5.1229,5.1229,5.1229,0.0,0.0,0.0,0.0,5.1229,5.1229,5.1229,5.1229,5.1229,5.1229,5.1229,5.1229,5.1229,5.1229,5.1229,5.1229,5.1199,5.1199,5.1199,5.1199,5.0301,4.9299,4.9299,4.882,4.8117,4.7489,4.7309,4.7309,4.7309,4.7309,4.7309,4.7309,4.7309,4.7309,4.7309,4.7309,4.7309,4.7309,4.7309,4.7309,4.7309,4.7309,4.7309,4.7309,4.7309,4.7309,4.7309,4.6668,4.5526,4.3748,4.4617,4.4291,4.197,4.3963,4.4773,4.3603,4.4077,4.4349,4.4349,4.378,4.3476,4.3476,4.3504,4.3456,4.3456,4.2155,4.0895,4.3612,4.5534,4.6887,4.6046,4.479,4.3132,4.0899,3.9276,3.7753,3.5971,3.56,3.56,3.56,3.56,3.6411,3.898,3.8902,0.0,0.0,0.0,0.0,4.9177,5.1204,0.0,0.0,0.0,0.0,0.0,0.0,0.0,5.4589,5.4253,5.3526,5.2395,5.1588,5.1229,5.1229,5.1229,5.1229,5.1229,5.1229,5.1229,5.1229,5.1229,5.1229,0.0,0.0,0.0,0.0,5.1229,5.1229,5.1229,5.1229,5.1229,5.1229,5.1229,5.1229,5.1229,5.1229,5.1229,5.1229,5.1229,5.1229,5.1229,5.1229,5.0601,4.9853,4.9449,4.9179,4.894,4.8686,4.87,4.87,4.87,4.87,4.87,4.87,4.8297,4.7967,4.7967,4.7608,4.7309,4.7309,4.7309,4.7309,4.7309,4.7309,4.7309,4.7309,4.7309,4.7309,4.7309,4.713,4.6761,4.6178,4.602,4.5875,4.5566,4.6235,4.6522,4.6134,4.5461,4.5488,4.6387,4.5347,4.4794,4.4794,4.4794,4.4349,4.3504,4.3074,4.2689,0.0,4.2395,4.3842,4.3166,4.2219,4.106,3.9377,3.8193,3.7144,3.5836,3.56,3.56,3.56,3.56,3.6411,3.8879,3.8832,0.0,0.0,0.0,0.0,4.9877,0.0,0.0,0.0,0.0,0.0,0.0,0.0,0.0,5.585,5.545,5.4681,5.3569,5.244,5.1635,5.1199,5.1229,5.1229,5.1229,5.1229,5.1229,5.1229,5.1229,5.1229,0.0,0.0,0.0,0.0,5.1229,5.1229,5.1229,5.1229,5.1229,5.1229,5.1229,5.1229,5.1229,5.1229,5.1229,5.1229,5.1229,5.1229,5.1229,5.1229,5.0883,5.0435,4.9823,4.9643,4.9583,4.9389,4.9299,4.9299,4.9299,4.9299,4.9299,4.9299,4.9,4.87,4.87,4.8117,4.7668,4.7668,4.7459,4.7309,4.7309,4.7309,4.7309,4.7309,4.7309,4.7309,4.7309,4.7309,4.7309,4.7309,4.692,4.686,4.7279,4.7309,4.7309,4.7309,4.655,4.6506,4.7266,4.655,4.6121,4.6121,4.6121,4.5434,4.421,4.4509,4.4311,0.0,3.9361,4.0899,4.1508,4.0722,3.9605,3.8836,3.7686,0.0,3.5769,3.56,3.5633,3.5735,3.5701,3.6242,3.7956,3.8261,0.0,0.0,4.5016,0.0,0.0,5.408,0.0,0.0,0.0,0.0,0.0,0.0,0.0,5.7881,5.6925,5.585,5.4755,5.3699,5.253,5.1229,5.1229,5.1229,5.1229,5.1229,5.1229,5.1229,5.1229,5.1229,0.0,0.0,0.0,0.0,5.1229,5.1229,5.1229,5.1229,5.1229,5.1229,5.1229,5.1229,5.1229,5.1229,5.1229,5.1229,5.1229,5.1229,5.1229,5.1229,5.1229,5.1079,5.0435,5.0255,5.0136,4.9553,4.9449,4.9449,4.9449,4.9449,4.9449,4.9449,4.9419,4.9389,4.9389,4.8805,4.8356,4.8356,4.7848,4.7429,4.7429,4.7429,4.7429,4.7369,4.7369,4.7369,4.7309,4.7309,4.7309,4.7309,4.7309,4.7309,4.7309,4.7309,4.7309,4.7309,4.7309,4.7309,4.7309,4.7369,4.7399,4.7429,4.7429,4.683,4.5698,4.6321,4.5977,3.2917,0.0,3.5994,3.5588,3.6096,3.6468,0.0,3.622,3.6569,3.5769,3.56,3.5938,3.7121,3.6907,3.755,4.073,0.0,0.0,4.665,0.0,0.0,5.5198,5.659,5.7171,0.0,0.0,0.0,0.0,0.0,5.7881,5.7881,5.7628,5.7001,5.5889,5.5578,5.4052,5.1229,5.1229,5.1229,5.1229,5.1229,5.1229,5.1229,5.1229,5.1229,0.0,0.0,0.0,5.1229,5.1229,5.1229,5.1229,5.1229,5.1229,5.1229,5.1229,5.1229,5.1229,5.1229,5.1229,5.1229,5.1229,5.1229,5.1229,5.1229,5.1229,5.1199,5.0973,5.0943,5.096,5.081,5.075,5.075,5.075,5.075,5.075,5.075,5.0361,5.0002,5.0002,4.9494,4.909,4.909,4.894,4.885,4.885,4.885,4.8626,4.8117,4.8057,4.7848,4.7369,4.7309,4.7309,4.7309,4.7309,4.7309,4.7309,4.7309,4.7309,4.7309,4.7309,4.7309,4.7309,4.7788,4.8297,4.885,4.885,4.8671,4.8416,4.8565,4.8443,3.13,3.3056,3.4912,3.4484,3.5284,3.6062,3.5644,3.5926,3.6129,3.5667,3.56,3.5971,3.7178,3.7618,0.0,0.0,4.2794,0.0,0.0,0.0,5.5141,5.663,5.7137,0.0,0.0,0.0,0.0,0.0,0.0,5.7881,5.7881,5.7881,5.7372,5.6243,5.6204,5.5093,5.2767,5.2767,5.2485,5.1972,5.1972,5.1727,5.1229,5.1229,5.1229,0.0,0.0,0.0,5.1229,5.1229,5.1229,5.1229,5.1229,5.1229,5.1229,5.1229,5.1229,5.1229,5.1229,5.1229,5.1229,5.1229,5.1229,5.1229,5.1229,5.1229,5.1229,5.1229,5.1229,5.1229,5.1229,5.1229,5.1229,5.1229,5.1229,5.1229,5.1229,5.0883,5.0644,5.0644,5.0152,4.9703,4.9703,4.9464,4.9299,4.9299,4.9299,4.9179,4.882,4.8745,4.8596,4.8237,4.8207,4.8207,4.8207,4.8207,4.8087,4.7788,4.7758,4.7908,4.8177,4.8207,4.8207,4.8207,4.8566,4.897,4.9299,4.9299,4.9299,4.9329,4.9583,4.9703,3.1754,3.3807,3.5779,3.5351,3.6028,3.6795,3.6795,3.6366,0.0,0.0,0.0,0.0,0.0,3.8396,0.0,0.0,0.0,0.0,5.1286,5.3653,5.5378,5.6664,0.0,0.0,0.0,0.0,0.0,0.0,0.0,5.7881,5.7881,5.7881,5.7446,5.6476,5.6437,5.6008,5.5125,5.4796,5.4126,5.3165,5.3165,5.2664,5.1727,5.1727,5.1727,5.1727,0.0,0.0,5.1727,5.1727,5.1727,5.1681,5.1526,5.1479,5.1433,5.1246,5.1229,5.1229,5.1229,5.1229,5.1229,5.1229,5.1229,5.1229,5.1229,5.1229,5.1229,5.1229,5.1229,5.1229,5.1229,5.1229,5.1229,5.1229,5.1229,5.1229,5.1229,5.1229,5.1229,5.1229,5.0734,5.0345,5.0345,4.9942,4.9599,4.9599,4.9599,4.9569,4.9434,4.9404,4.9419,4.9329,4.9299,4.9299,4.9299,4.9299,4.912,4.8626,4.8476,4.8686,4.9299,4.9299,4.9359,4.9404,4.9404,4.9509,4.9599,4.9599,4.9599,4.9629,5.0122,5.0345,3.4257,3.5876,3.656,3.4308,3.5284,3.6795,3.6795,3.7178,3.755,0.0,0.0,0.0,0.0,4.029,4.1542,0.0,0.0,5.1319,0.0,0.0,5.6562,5.6765,0.0,0.0,0.0,0.0,0.0,0.0,0.0,5.7881,5.7881,5.7881,5.7808,5.7628,5.7628,5.7554,5.7406,5.553,5.4505,5.4337,5.4337,5.4253,5.4084,5.4084,5.4084,5.4084,0.0,5.4084,5.4084,5.4084,5.4084,5.3999,5.3033,5.2664,5.253,5.1572,5.1229,5.1229,5.1229,5.1229,5.1229,5.1229,5.1229,5.1229,5.1229,5.1229,5.1229,5.1229,5.1229,5.1229,5.1229,5.1229,5.1229,5.1229,5.1229,5.1229,5.1229,5.1229,5.1229,5.1229,5.1139,5.1079,5.1079,5.099,5.093,5.093,5.093,5.072,5.0106,5.0046,4.9883,4.9359,4.9299,4.9299,4.9299,4.9299,4.9464,4.9867,4.9434,4.9209,4.9299,4.9299,4.9523,5.0016,5.0046,5.0315,5.093,5.093,5.093,5.093,5.102,5.1079,3.3828,3.5285,3.6411,3.5723,3.7387,3.9073,3.8691,3.886,3.8971,0.0,0.0,0.0,0.0,0.0,4.4418,4.8714,0.0,5.3213,5.5377,5.6021,5.6359,0.0,0.0,0.0,0.0,0.0,0.0,0.0,0.0,0.0,5.7881,5.7881,5.7881,5.7881,5.7881,5.7881,5.7881,5.6887,5.6047,5.5458,5.5458,5.5166,5.4589,5.4589,5.4589,5.4589,0.0,5.4589,5.4589,5.4589,5.4589,5.4547,5.4041,5.3828,5.3742,5.3253,5.3033,5.2945,5.2305,5.2109,5.2109,5.2109,5.1681,5.1433,5.2634,5.22,5.1339,5.1926,5.1681,5.1229,5.1229,5.1229,5.1229,5.1229,5.1229,5.1229,5.1229,5.1229,5.1229,5.1229,5.1229,5.1229,5.1229,5.1229,5.1229,5.1229,5.1229,5.1109,5.0764,5.0734,5.0661,5.0361,5.0331,5.0331,5.0331,5.0331,5.0301,5.0196,5.0301,5.0331,5.0331,5.0331,5.0451,5.0704,5.0734,5.0853,5.1229,5.1229,5.1229,5.1229,5.1229,5.1229,3.3824,3.5065,3.6552,3.7516,3.9295,4.0895,4.1298,4.1248,4.1061,4.1103,0.0,0.0,0.0,4.3606,0.0,5.2638,5.3923,5.4735,5.6055,5.6224,5.6427,0.0,0.0,0.0,0.0,0.0,0.0,0.0,0.0,0.0,5.7881,5.7881,5.7881,5.7881,5.7881,5.7881,5.7881,5.7881,5.7446,5.6586,5.6586,5.6165,5.5369,5.5369,5.5369,5.5369,5.5369,5.5369,5.5369,5.5369,5.5369,5.5369,5.5084,5.4838,5.4589,5.4589,5.4589,5.4463,5.3613,5.3296,5.3296,5.3296,5.2678,5.2305,5.4084,5.3352,5.22,5.3077,5.2664,5.188,5.1339,5.1229,5.1229,5.1229,5.1229,5.1229,5.1229,5.1229,5.1229,5.1229,5.1229,5.1229,5.1229,5.1229,5.1229,5.1229,5.1229,5.1229,5.1229,5.1229,5.1229,5.1229,5.1229,5.1229,5.1229,5.1229,5.099,5.0465,5.093,5.1229,5.1229,5.1229,5.1229,5.1229,5.1229,5.1229,5.1229,5.1229,5.1229,5.1229,5.1229,5.1229,3.6238,3.7034,3.7792,3.8654,3.921,4.0537,4.4411,4.4551,4.4527,4.6802,0.0,0.0,0.0,4.6684,4.9729,5.2976,5.5209,5.6833,5.7611,0.0,0.0,0.0,0.0,0.0,0.0,0.0,0.0,0.0,0.0,0.0,5.7881,5.7881,5.7881,5.7881,5.7881,5.7881,5.7881,5.7881,5.7845,5.7772,5.7772,5.7772,5.7665,5.7665,5.7665,5.7665,5.7665,5.7665,5.7665,5.7665,5.7665,5.7554,5.6509,5.549,5.4589,5.4589,5.4589,5.4589,5.4505,5.4463,5.4463,5.4463,5.4421,5.4379,5.4547,5.4505,5.4379,5.4463,5.4421,5.3871,5.1773,5.1229,5.1229,5.1229,5.1229,5.1229,5.1229,5.1229,5.1229,5.1229,5.1229,5.1229,5.1229,5.1229,5.1229,5.1229,5.1229,5.1229,5.1229,5.1229,5.1229,5.1229,5.1229,5.1229,5.1229,5.1229,5.1199,5.1139,5.1199,5.1229,5.1229,5.1229,5.1229,5.1229,5.1229,5.1229,5.1229,5.1229,5.1229,5.1229,5.1229,5.1229,3.4812,3.6598,3.8416,3.8833,4.0456,4.2429,4.4345,4.5571,4.6611,4.7649,4.8413,0.0,0.0,0.0,5.2334,5.3923,5.6021,5.7577,5.7848,0.0,0.0,0.0,0.0,0.0,0.0,0.0,0.0,0.0,0.0,0.0,5.7881,5.7881,5.7881,5.7881,5.7881,5.7881,5.7881,5.7881,5.7881,5.7881,5.7881,5.7881,5.7881,5.7881,5.7881,5.7881,5.7881,5.7881,5.7881,5.7881,5.7881,5.7845,5.7409,5.7001,5.6658,5.6658,5.6658,5.6547,5.585,5.5578,5.5578,5.5578,5.5134,5.4879,5.6237,5.5691,5.4755,5.541,5.5093,5.4253,5.2634,5.229,5.2063,5.1386,5.1229,5.1229,5.1229,5.1229,5.1229,5.1229,5.1229,5.1229,5.1229,5.1229,5.1229,5.1229,5.1229,5.1229,5.1229,5.1229,5.1229,5.1229,5.1229,5.1229,5.1229,5.1229,5.1229,5.1229,5.1229,5.1229,5.1229,5.1229,5.1229,5.1229,5.1229,5.1229,5.1229,5.1229,5.1229,5.1229,5.1229,5.1229,3.4981,3.6964,3.9145,3.9528,4.1773,4.4289,4.5917,4.7448,4.9069,5.0783,5.1144,5.1161,5.1144,0.0,0.0,0.0,5.6596,5.7881,0.0,0.0,0.0,0.0,0.0,0.0,0.0,0.0,0.0,0.0,0.0,0.0,0.0,5.7881,5.7881,5.7881,5.7881,5.7881,5.7881,5.7881,5.7881,5.7881,5.7881,5.7881,5.7881,5.7881,5.7881,5.7881,5.7881,5.7881,5.7881,5.7881,5.7881,5.7881,5.7881,5.7881,5.7881,5.7881,5.7881,5.7808,5.7001,5.6739,5.6739,5.6739,5.6237,5.5929,5.7443,5.6849,5.577,5.6547,5.6237,5.5369,5.4221,5.3699,5.3253,5.244,5.226,5.2169,5.1789,5.1727,5.1635,5.1246,5.1229,5.1229,5.1229,5.1229,5.1229,5.1229,5.1229,5.1229,5.1229,5.1229,5.1229,5.1229,5.1229,5.1229,5.1229,5.1229,5.1229,5.1229,5.1229,5.1229,5.1229,5.1229,5.1229,5.1229,5.1229,5.1229,5.1229,5.1229,5.1229,5.1229,5.1229,5.1229,3.7492,3.8667,4.012,4.0912,4.293,4.5827,4.9897,5.0809,5.2166,5.7117,5.566,5.3528,5.3511,5.346,0.0,5.5449,5.6934,0.0,0.0,0.0,0.0,0.0,0.0,0.0,0.0,0.0,0.0,0.0,0.0,0.0,0.0,5.7881,5.7881,5.7881,5.7881,5.7881,5.7881,5.7881,5.7881,5.7881,5.7881,5.7881,5.7881,5.7881,5.7881,5.7881,5.7881,5.7881,5.7881,5.7881,5.7881,5.7881,5.7881,5.7881,5.7881,5.7881,5.7881,5.7881,5.7881,5.7881,5.7881,5.7881,5.7881,5.7881,5.7881,5.7881,5.7881,5.7881,5.7881,5.7628,5.6509,5.545,5.463,5.463,5.4589,5.4295,5.3165,5.29,5.2575,5.1479,5.1199,5.1229,5.1229,5.1229,5.1229,5.1229,5.1229,5.1229,5.1229,5.1229,5.1229,5.1229,5.1229,5.1229,5.1229,5.1229,5.1229,5.1229,5.1229,5.1229,5.1229,5.1229,5.1229,5.1229,5.1229,5.1229,5.1229,5.1229,5.1229,5.1229,5.1229,5.1229,3.6831,3.8652,4.1075,4.2433,4.548,0.0,0.0,5.3339,0.0,0.0,5.8159,5.6623,5.6003,0.0,0.0,5.5822,0.0,0.0,0.0,0.0,0.0,0.0,0.0,0.0,0.0,0.0,0.0,0.0,0.0,0.0,0.0,5.7881,5.7881,5.7881,5.7881,5.7881,5.7881,5.7881,5.7881,5.7881,5.7881,5.7881,5.7881,5.7881,5.7881,5.7881,5.7881,5.7881,5.7881,5.7881,5.7881,5.7881,5.7881,5.7881,5.7881,5.7881,5.7881,5.7881,5.7881,5.7881,5.7881,5.7881,5.7881,5.7881,5.7881,5.7881,5.7881,5.7881,5.7881,5.7808,5.748,5.7185,5.6509,5.4961,5.4589,5.4505,5.4168,5.4084,5.3999,5.3656,5.3569,5.3309,5.253,5.2395,5.2395,5.2395,5.1727,5.1229,5.1229,5.1229,5.1229,5.1229,5.1229,5.1229,5.1229,5.1229,5.1229,5.1229,5.1229,5.1229,5.1229,5.1229,5.1229,5.1229,5.1229,5.1229,5.1229,5.1229,5.1229,5.1229,5.1229,5.1229,3.8469,4.0561,4.2966,4.4929,4.7755,5.1169,5.5354,0.0,0.0,0.0,5.9695,5.8908,5.8386,5.8417,0.0,0.0,0.0,0.0,0.0,0.0,0.0,0.0,0.0,0.0,0.0,0.0,0.0,0.0,0.0,0.0,0.0,5.7881,5.7881,5.7881,5.7881,5.7881,5.7881,5.7881,5.7881,5.7881,5.7881,5.7881,5.7881,5.7881,5.7881,5.7881,5.7881,5.7881,5.7881,5.7881,5.7881,5.7881,5.7881,5.7881,5.7881,5.7881,5.7881,5.7881,5.7881,5.7881,5.7881,5.7881,5.7881,5.7881,5.7881,5.7881,5.7881,5.7881,5.7881,5.7881,5.7881,5.7881,5.7554,5.6237,5.5889,5.577,5.5329,5.5247,5.5125,5.4672,5.4589,5.4379,5.3699,5.3569,5.3569,5.3569,5.2989,5.2575,5.2575,5.2154,5.1911,5.1911,5.1479,5.1229,5.1229,5.1229,5.1229,5.1229,5.1229,5.1229,5.1229,5.1229,5.1229,5.1229,5.1229,5.1229,5.1229,5.1229,5.1229,5.1229,5.1229,5.1229,4.1258,4.3351,4.5333,4.7902,4.9994,0.0,5.8084,6.0493,6.139,6.0766,0.0,6.061,6.0511,5.9939,5.9633,0.0,0.0,0.0,0.0,0.0,0.0,0.0,0.0,0.0,0.0,0.0,0.0,0.0,0.0,0.0,0.0,5.7881,5.7881,5.7881,5.7881,5.7881,5.7881,5.7881,5.7881,5.7881,5.7881,5.7881,5.7881,5.7881,5.7881,5.7881,5.7881,5.7881,5.7881,5.7881,5.7881,5.7881,5.7881,5.7881,5.7881,5.7881,5.7881,5.7881,5.7881,5.7881,5.7881,5.7881,5.7881,5.7881,5.7881,5.7881,5.7881,5.7881,5.7881,5.7881,5.7881,5.7881,5.7881,5.7881,5.7881,5.7628,5.6586,5.636,5.6087,5.5084,5.492,5.4879,5.4755,5.4755,5.4713,5.463,5.4672,5.4713,5.463,5.3699,5.3077,5.3077,5.2154,5.1526,5.1526,5.1433,5.1339,5.1339,5.1276,5.1229,5.1229,5.1229,5.1229,5.1229,5.1229,5.1229,5.1229,5.1229,5.1229,5.1229,5.1229,5.1229,4.0047,4.2506,4.559,4.9334,5.3371,5.7116,5.9575,6.0896,6.174,6.2204,6.2285,6.2113,6.1448,6.1204,0.0,0.0,0.0,0.0,0.0,0.0,0.0,0.0,0.0,0.0,0.0,0.0,0.0,0.0,0.0,0.0,5.7881,5.7881,5.7881,5.7881,5.7881,5.7881,5.7881,5.7881,5.7881,0.0,5.7881,5.7881,5.7881,5.7881,5.7881,5.7881,5.7881,5.7881,5.7881,5.7881,5.7881,5.7881,5.7881,5.7881,5.7881,5.7881,5.7881,5.7881,5.7881,5.7881,5.7881,5.7881,5.7881,5.7881,5.7881,5.7881,5.7881,5.7881,5.7881,5.7881,5.7881,5.7881,5.7881,5.7881,5.7881,5.7845,5.7591,5.7554,5.748,5.7222,5.7185,5.6925,5.6008,5.585,5.5538,5.4755,5.5329,5.5538,5.4713,5.4379,5.4253,5.4253,5.3999,5.3871,5.3871,5.3033,5.253,5.253,5.1681,5.1229,5.1229,5.1229,5.1229,5.1229,5.1229,5.1229,5.1229,5.1229,5.1229,5.1229,5.1229,5.1229,4.0304,4.2837,4.5883,5.0729,0.0,5.8327,5.9575,6.0456,6.1263,6.2071,6.2548,6.2679,6.2271,0.0,0.0,0.0,0.0,0.0,0.0,0.0,0.0,0.0,0.0,0.0,0.0,0.0,0.0,0.0,0.0,5.7881,5.7881,5.7881,5.7881,5.7881,5.7881,5.7881,5.7881,5.7881,5.7881,5.7881,5.7881,5.7881,5.7881,5.7881,5.7881,5.7881,5.7881,5.7881,5.7881,5.7881,5.7881,5.7881,5.7881,5.7881,5.7881,5.7881,5.7881,5.7881,5.7881,5.7881,5.7881,5.7881,5.7881,5.7881,5.7881,5.7881,5.7881,5.7881,5.7881,5.7881,5.7881,5.7881,5.7881,5.7881,5.7881,5.7881,5.7881,5.7881,5.7881,5.7881,5.7881,5.7701,5.7114,5.7001,5.6849,5.6276,5.6663,5.6811,5.6276,5.6198,5.6198,5.6198,5.5247,5.4589,5.4589,5.4041,5.3699,5.3699,5.2634,5.2018,5.2018,5.2018,5.1773,5.1229,5.1229,5.1229,5.1229,5.1229,5.1229,5.1229,5.1229,5.1229,3.99,4.304,4.6415,5.1846,5.5537,0.0,5.8964,5.9698,6.0419,6.1227,6.2034,6.2658,0.0,0.0,0.0,0.0,0.0,0.0,0.0,0.0,0.0,0.0,0.0,0.0,0.0,0.0,0.0,0.0,0.0,5.7881,5.7881,5.7881,5.7881,5.7881,5.7881,5.7881,5.7881,5.7881,5.7881,5.7881,5.7881,5.7881,5.7881,5.7881,5.7881,5.7881,5.7881,5.7881,5.7881,5.7881,5.7881,5.7881,5.7881,5.7881,5.7881,5.7881,5.7881,5.7881,5.7881,5.7881,5.7881,5.7881,5.7881,5.7881,5.7881,5.7881,5.7881,5.7881,5.7881,5.7881,5.7881,5.7881,5.7881,5.7881,5.7881,5.7881,5.7881,5.7881,5.7881,5.7881,5.7881,5.7881,5.7881,5.7881,5.7881,5.7881,5.7881,5.7881,5.7881,5.7881,5.7881,5.7881,5.6276,5.5166,5.5166,5.5002,5.4879,5.4879,5.3828,5.3209,5.3209,5.3209,5.2723,5.1819,5.1588,5.1386,5.1229,5.1229,5.1229,5.1229,5.1229,5.1229,3.5628,4.1279,4.781,0.0,5.5097,5.7373,0.0,0.0,5.9588,0.0,6.119,6.1961,0.0,0.0,0.0,0.0,0.0,0.0,0.0,0.0,0.0,0.0,0.0,0.0,0.0,0.0,0.0,0.0,5.7881,5.7881,5.7881,5.7881,5.7881,5.7881,5.7881,5.7881,5.7881,5.7881,5.7881,5.7881,5.7881,5.7881,5.7881,5.7881,5.7881,5.7881,5.7881,5.7881,5.7881,5.7881,5.7881,5.7881,5.7881,5.7881,5.7881,5.7881,5.7881,5.7881,5.7881,5.7881,5.7881,5.7881,5.7881,5.7881,5.7881,5.7881,5.7881,5.7881,5.7881,5.7881,5.7881,5.7881,5.7881,5.7881,5.7881,5.7881,5.7881,5.7881,5.7881,5.7881,5.7881,5.7881,5.7881,5.7881,5.7881,5.7881,5.7881,5.7881,5.7881,5.7881,5.7881,5.7881,5.7628,5.748,5.748,5.6547,5.6008,5.6008,5.497,5.4379,5.4379,5.4379,5.4295,5.4168,5.3209,5.22,5.1229,5.1229,5.1229,5.1229,5.1229,5.1229,3.6824,4.1662,4.6746,0.0,5.3665,5.5868,5.7519,0.0,5.8767,5.9575,6.0015,0.0,0.0,0.0,0.0,0.0,0.0,0.0,0.0,0.0,0.0,0.0,0.0,0.0,0.0,0.0,0.0,0.0,5.9313,5.9313,5.9313,5.9313,5.9313,5.9313,5.9313,5.9313,5.9313,5.8841,5.8564,5.8564,5.8564,5.8564,5.8564,5.8101,5.7881,5.7881,5.7881,5.7881,5.7881,5.7881,5.7881,5.7881,5.7881,5.7881,5.7881,5.7881,5.7881,5.7881,5.7881,5.7881,5.7881,5.7881,5.7881,5.7881,5.7881,5.7881,5.7881,5.7881,5.7881,5.7881,5.7881,5.7881,5.7881,5.7881,5.7881,5.7881,5.7881,5.7881,5.7881,5.7881,5.7881,5.7881,5.7881,5.7881,5.7881,5.7881,5.7881,5.7881,5.7881,5.7881,5.7881,5.7881,5.7881,5.7881,5.7881,5.7409,5.7151,5.7151,5.6087,5.553,5.553,5.553,5.5215,5.463,5.4126,5.3296,5.2154,5.2154,5.1819,5.1229,5.1229,5.1229,3.7386,0.0,4.3951,4.8178,5.1389,5.3922,0.0,0.0,5.7886,0.0,0.0,0.0,0.0,0.0,0.0,0.0,0.0,0.0,0.0,0.0,0.0,0.0,0.0,0.0,0.0,0.0,0.0,0.0,6.0397,6.0397,6.0397,6.0397,6.0397,6.0397,6.0397,6.0397,6.0397,5.9768,5.9443,5.9443,5.9443,5.9443,5.941,5.8806,5.8423,5.8209,5.7991,5.7881,5.7881,5.7881,5.7881,5.7881,5.7881,5.7881,5.7881,5.7881,5.7881,5.7881,5.7881,5.7881,5.7881,5.7881,5.7881,5.7881,5.7881,5.7881,5.7881,5.7881,5.7881,5.7881,5.7881,5.7881,5.7881,5.7881,5.7881,5.7881,5.7881,5.7881,5.7881,5.7881,5.7881,5.7881,5.7881,5.7881,5.7881,5.7881,5.7881,5.7881,5.7881,5.7881,5.7881,5.7881,5.7881,5.7881,5.7881,5.7881,5.7881,5.7881,5.7076,5.6624,5.6624,5.6624,5.6243,5.545,5.545,5.4723,5.3309,5.3033,5.244,5.1635,5.1339,5.1229,0.0,3.6864,0.0,4.386,4.8049,5.1426,0.0,0.0,0.0,0.0,0.0,0.0,0.0,0.0,0.0,0.0,0.0,0.0,0.0,0.0,0.0,0.0,0.0,0.0,0.0,0.0,0.0,0.0,6.0397,6.0397,6.0397,6.0397,6.0397,6.0397,6.0397,6.0397,6.0397,6.0371,6.0304,6.0304,6.0304,6.0304,6.0304,6.0273,5.9832,5.9011,5.821,5.7881,5.7881,5.7881,5.7881,5.7881,5.7881,5.7881,5.7881,5.7881,5.7881,5.7881,5.7881,5.7881,5.7881,5.7881,5.7881,5.7881,5.7881,5.7881,5.7881,5.7881,5.7881,5.7881,5.7881,5.7881,5.7881,5.7881,5.7881,5.7881,5.7881,5.7881,5.7881,5.7881,5.7881,5.7881,5.7881,5.7881,5.7881,5.7881,5.7881,5.7881,5.7881,5.7881,5.7881,5.7881,5.7881,5.7881,5.7881,5.7881,5.7881,5.7881,5.7845,5.7808,5.7808,5.7808,5.7808,5.7735,5.7735,5.6696,5.4505,5.3427,5.2856,5.2767,5.1681,5.1229,0.0,0.0,0.0,4.1672,4.4775,4.7462,4.9591,5.236,5.4656,5.517,0.0,0.0,0.0,0.0,0.0,0.0,0.0,0.0,0.0,0.0,0.0,0.0,0.0,0.0,0.0,0.0,0.0,0.0,0.0,6.1942,6.1942,6.1942,6.1942,6.1942,6.1942,6.1687,6.1171,6.1659,6.1659,6.1171,6.1171,6.1171,6.1142,6.064,6.0211,5.9928,5.9606,5.8909,5.7881,5.7881,5.8174,5.8633,5.8101,5.8244,5.8703,5.8703,5.8352,5.7991,5.8494,5.8317,5.7881,5.7881,5.7881,5.7881,5.7881,5.7881,5.7881,5.7881,5.7881,5.7881,5.7881,5.7881,5.7881,5.7881,5.7881,5.7881,5.7881,5.7881,5.7881,5.7881,5.7881,5.7881,5.7881,5.7881,5.7881,5.7881,5.7881,5.7881,5.7881,5.7881,5.7881,5.7881,5.7881,5.7881,5.7881,5.7881,5.7881,5.7881,5.7881,5.7881,5.7881,5.7881,5.7881,5.7881,5.7881,5.7147,5.5618,5.4515,5.3613,5.2856,5.1727,5.1229,3.2569,0.0,0.0,0.0,0.0,4.3763,4.6927,0.0,5.1715,0.0,0.0,0.0,0.0,0.0,0.0,0.0,0.0,0.0,0.0,0.0,0.0,0.0,0.0,0.0,0.0,0.0,0.0,0.0,0.0,0.0,6.278,6.278,6.278,6.278,6.278,6.2541,6.2023,6.2541,6.2541,6.1996,6.1996,6.1996,6.1996,6.1464,6.1055,6.079,6.079,6.0023,5.8737,5.8737,5.9044,5.9476,5.8943,5.9078,5.9541,5.9541,5.9212,5.8772,5.9044,5.8737,5.8246,5.7991,5.7881,5.7881,5.7881,5.7881,5.7881,5.7881,5.7881,5.7881,5.7881,5.7881,5.7881,5.7881,5.7881,5.7881,5.7881,5.7881,5.7881,5.7881,5.7881,5.7881,5.7881,5.7881,5.7881,5.7881,5.7881,5.7881,5.7881,5.7881,5.7881,5.7881,5.7881,5.7881,5.7881,5.7881,5.7881,5.7881,5.7881,5.7881,5.7881,5.7881,5.7881,5.7881,5.7881,5.7554,5.6778,5.5691,5.4723,5.3967,5.2856,5.2154,0.0,0.0,0.0,0.0,0.0,0.0,4.5131,0.0,4.8194,0.0,0.0,0.0,0.0,0.0,0.0,0.0,0.0,0.0,0.0,0.0,0.0,0.0,0.0,0.0,0.0,0.0,0.0,0.0,6.2743,6.2743,6.2743,6.2743,6.2743,6.2768,6.2743,6.278,6.278,6.278,6.278,6.278,6.278,6.278,6.278,6.278,6.2376,6.1632,6.1632,6.1171,6.0458,6.0397,6.0397,6.0427,6.0397,6.0397,6.0463,6.0463,6.0397,6.0273,5.9476,5.9144,5.8942,5.8209,5.7918,5.7881,5.7881,5.7881,5.7881,5.7881,5.7881,5.7881,5.7881,5.7881,5.7881,5.7881,5.7881,5.7881,5.7881,5.7881,5.7881,5.7881,5.7881,5.7881,5.7881,5.7881,5.7881,5.7881,5.7881,5.7881,5.7881,5.7881,5.7881,5.7881,5.7881,5.7881,5.7881,5.7881,5.7881,5.7881,5.7881,5.7881,5.7881,5.7881,5.7881,5.7881,5.7881,5.7881,5.7881,5.6739,5.6204,5.6165,5.5125,5.3999,3.2096,0.0,0.0,0.0,0.0,0.0,0.0,0.0,0.0,0.0,0.0,0.0,0.0,0.0,0.0,0.0,0.0,0.0,0.0,0.0,0.0,0.0,0.0,0.0,0.0,0.0,0.0,0.0,6.1924,6.1924,6.1924,6.1374,6.1337,6.1924,6.1924,6.2218,6.278,6.278,6.278,6.278,6.278,6.278,6.278,6.278,6.2705,6.249,6.249,6.2324,6.2023,6.0879,6.073,6.12,6.061,6.076,6.1257,6.1257,6.0879,6.0427,6.0784,6.0113,5.9044,5.884,5.8388,5.7881,5.7881,5.7881,5.7881,5.7881,5.7881,5.7881,5.7881,5.7881,5.7881,5.7881,5.7881,5.7881,5.7881,5.7881,5.7881,5.7881,5.7881,5.7881,5.7881,5.7881,5.7881,5.7881,5.7881,5.7881,5.7881,5.7881,5.7881,5.7881,5.7881,5.7881,5.7881,5.7881,5.7881,5.7881,5.7881,5.7881,5.7881,5.7881,5.7881,5.7881,5.7881,5.7881,5.7881,5.6739,5.6204,5.6165,5.5125,5.3999,0.0,0.0,0.0,0.0,0.0,0.0,0.0,4.0401,0.0,0.0,0.0,0.0,0.0,0.0,0.0,0.0,0.0,0.0,0.0,0.0,0.0,0.0,0.0,0.0,0.0,6.0309,6.075,6.108,6.108,6.108,6.108,6.0639,6.0603,6.108,6.141,6.1814,6.2291,6.2658,6.278,6.278,6.278,6.278,6.278,6.278,6.278,6.278,6.278,6.278,6.273,6.1806,6.1659,6.2049,6.1576,6.1687,6.2103,6.2103,6.1797,6.1436,6.1576,6.0961,6.0082,5.9768,5.9346,5.8943,5.8943,5.8943,5.8943,5.8943,5.8943,5.8943,5.8943,5.8943,5.8943,5.8943,5.8668,5.8423,5.8423,5.8137,5.7881,5.7881,5.7881,5.7881,5.7881,5.7881,5.7881,5.7881,5.7881,5.7881,5.7881,5.7881,5.7881,5.7881,5.7881,5.7881,5.7881,5.7881,5.7881,5.7881,5.7881,5.7881,5.7881,5.7881,5.7881,5.7881,5.7881,5.7881,5.7881,5.726,5.6925,5.6887,5.577,5.4888,3.6385,3.6577,0.0,0.0,0.0,0.0,4.0225,3.9814,3.9934,0.0,0.0,0.0,0.0,0.0,0.0,0.0,0.0,0.0,0.0,0.0,0.0,0.0,0.0,0.0,5.9001,5.9148,5.9478,6.0236,6.0272,6.0236,6.0126,6.0126,6.0162,6.0272,6.097,6.1374,6.1484,6.2254,6.2695,6.2695,6.2768,6.278,6.278,6.278,6.278,6.278,6.278,6.278,6.278,6.278,6.278,6.278,6.278,6.278,6.278,6.278,6.278,6.2705,6.1996,6.1687,6.1492,6.076,6.0458,6.0397,6.0397,6.0397,6.0397,6.0397,6.0397,6.0397,6.0397,6.0397,6.0397,6.0397,5.98,5.9211,5.9111,5.8529,5.8027,5.7918,5.7881,5.7881,5.7881,5.7881,5.7881,5.7881,5.7881,5.7881,5.7881,5.7881,5.7881,5.7881,5.7881,5.7881,5.7881,5.7881,5.7881,5.7881,5.7881,5.7881,5.7881,5.7881,5.7881,5.7881,5.7881,5.7881,5.7881,5.7881,5.7881,5.7881,5.6887,5.6321,3.9008,3.9662,4.0508,3.9354,0.0,0.0,3.8946,3.89,3.9363,0.0,0.0,0.0,0.0,0.0,0.0,0.0,0.0,0.0,0.0,0.0,0.0,0.0,0.0,0.0,5.8217,5.8841,5.9258,5.9404,5.9404,5.9171,5.851,5.8474,5.8767,5.9404,5.9588,5.9979,6.0639,6.1447,6.1814,6.1851,6.2511,6.278,6.278,6.278,6.278,6.278,6.278,6.278,6.278,6.278,6.278,6.278,6.278,6.278,6.278,6.278,6.278,6.278,6.2618,6.2129,6.1576,6.1436,6.0909,6.0397,6.0397,6.0397,6.0397,6.0397,6.0397,6.0397,6.0397,6.0397,6.0397,6.0397,6.0273,5.996,5.9245,5.9011,5.8668,5.8027,5.7881,5.7881,5.7881,5.7881,5.7881,5.7881,5.7881,5.7881,5.7881,5.7881,5.7881,5.7881,5.7881,5.7881,5.7881,5.7881,5.7881,5.7881,5.7881,5.7881,5.7881,5.7881,5.7881,5.7881,5.7881,5.7881,5.7881,5.7881,5.7881,5.7881,5.7665,5.7076,4.1777,4.1816,4.2239,4.1393,0.0,0.0,0.0,3.9585,3.9592,4.0658,4.0498,0.0,0.0,0.0,0.0,0.0,0.0,0.0,0.0,0.0,0.0,0.0,0.0,0.0,5.7373,5.7776,5.8157,5.8584,5.8621,5.8437,5.8033,5.7997,5.818,5.8584,5.8964,5.9368,5.9795,6.0603,6.119,6.1594,6.1998,6.2401,6.278,6.278,6.278,6.278,6.278,6.278,6.278,6.278,6.278,6.278,6.278,6.278,6.278,6.278,6.278,6.278,6.278,6.2541,6.2219,6.2219,6.1942,6.1576,6.1576,6.1576,6.1576,6.1576,6.1576,6.1576,6.1576,6.1576,6.1576,6.1576,6.1293,6.0879,6.0453,5.9701,5.8976,5.8599,5.8173,5.7881,5.7881,5.7881,5.7881,5.7881,5.7881,5.7881,5.7881,5.7881,5.7881,5.7881,5.7881,5.7881,5.7881,5.7881,5.7881,5.7881,5.7881,5.7881,5.7881,5.7881,5.7881,5.7881,5.7881,5.7881,5.7881,5.7881,5.7881,5.7881,5.7881,5.7591,0.0,0.0,0.0,0.0,0.0,4.1662,0.0,0.0,0.0,4.1777,0.0,0.0,0.0,0.0,0.0,0.0,0.0,0.0,0.0,0.0,0.0,0.0,0.0,0.0,0.0,5.5978,5.6345,5.7446,5.7262,5.7262,5.774,5.7923,5.7997,5.7997,5.8621,5.8964,5.8964,5.9795,6.0493,6.1153,6.1447,6.1924,6.2585,6.2732,6.278,6.278,6.278,6.278,6.278,6.278,6.278,6.278,6.278,6.278,6.278,6.278,6.278,6.278,6.278,6.278,6.278,6.278,6.278,6.278,6.278,6.278,6.278,6.278,6.278,6.278,6.278,6.278,6.278,6.278,6.2298,6.177,6.1632,6.0544,5.9539,5.9377,5.8841,5.828,5.7954,5.7881,5.7881,5.7881,5.7881,5.7881,5.7881,5.7881,5.7881,5.7881,5.7881,5.7881,5.7881,5.7881,5.7881,5.7881,5.7881,5.7881,5.7881,5.7881,5.7881,5.7881,5.7881,5.7881,5.7881,5.7881,5.7881,5.7881,5.7881,5.7881,0.0,0.0,0.0,0.0,4.5163,0.0,0.0,0.0,4.0969,3.9008,0.0,0.0,0.0,0.0,0.0,0.0,0.0,0.0,0.0,0.0,0.0,0.0,0.0,0.0,0.0,5.2968,5.3445,5.5684,5.4546,5.4693,5.6822,5.7593,5.7997,5.7997,5.8107,5.8143,5.8143,5.8951,5.9368,5.9478,6.0933,6.163,6.1741,6.2475,6.278,6.278,6.278,6.278,6.278,6.278,6.278,6.278,6.278,6.278,6.278,6.278,6.278,6.278,6.278,6.278,6.278,6.278,6.278,6.278,6.278,6.278,6.278,6.278,6.278,6.278,6.278,6.278,6.278,6.278,6.273,6.249,6.1742,6.1428,6.1113,6.0397,6.018,5.9639,5.8137,5.7881,5.7881,5.7881,5.7881,5.7881,5.7881,5.7881,5.7881,5.7881,5.7881,5.7881,5.7881,5.7881,5.7881,5.7881,5.7881,5.7881,5.7881,5.7881,5.7881,5.7881,5.7881,5.7881,5.7881,5.7881,5.7881,5.7881,5.7881,5.7881,0.0,0.0,0.0,0.0,0.0,0.0,4.2316,0.0,4.1046,0.0,0.0,0.0,0.0,0.0,0.0,0.0,0.0,0.0,0.0,0.0,0.0,0.0,0.0,0.0,0.0,0.0,0.0,0.0,5.2894,5.3555,5.5978,5.6859,5.7519,5.7997,5.7997,5.7997,5.7997,5.8327,5.8767,5.9184,6.0382,6.1153,6.163,6.2438,6.278,6.278,6.278,6.278,6.278,6.278,6.278,6.278,6.278,6.278,6.278,6.278,6.278,6.278,6.278,6.278,6.278,6.278,6.278,6.278,6.278,6.278,6.278,6.278,6.278,6.278,6.278,6.278,6.278,6.278,6.278,6.2705,6.235,6.1942,6.152,6.1142,6.07,6.018,5.9478,5.8909,5.8599,5.8599,5.8209,5.7881,5.7881,5.7881,5.7881,5.7881,5.7881,5.7881,5.7881,5.7881,5.8084,5.8524,5.893,5.9167,5.9167,5.9167,5.9167,5.9167,5.9167,5.9167,5.9167,5.8761,5.8558,5.8524,5.8084,5.7881,4.7952,0.0,0.0,0.0,0.0,0.0,0.0,0.0,0.0,0.0,0.0,0.0,0.0,0.0,0.0,0.0,0.0,0.0,0.0,0.0,0.0,0.0,0.0,0.0,0.0,0.0,0.0,0.0,0.0,5.1683,5.4766,5.5904,5.6859,5.7666,5.7886,5.7997,5.7997,5.7997,5.829,5.8854,5.9905,6.0713,6.13,6.2328,6.278,6.278,6.278,6.278,6.278,6.278,6.278,6.278,6.278,6.278,6.278,6.278,6.278,6.278,6.278,6.278,6.278,6.278,6.278,6.278,6.278,6.278,6.278,6.278,6.278,6.278,6.278,6.278,6.278,6.278,6.278,6.278,6.278,6.235,6.1942,6.1942,6.1464,6.1062,6.1062,5.9956,5.9111,5.9111,5.8423,5.7881,5.7881,5.7881,5.7881,5.7881,5.7881,5.7881,5.7881,5.8084,5.8524,5.9268,5.981,6.0114,6.0114,6.0114,6.0114,6.0114,6.0114,6.0114,6.0114,5.9573,5.9302,5.9302,5.8321,5.7881,0.0,0.0,0.0,4.6781,0.0,0.0,0.0,0.0,4.3739,0.0,0.0,0.0,0.0,0.0,0.0,0.0,0.0,0.0,0.0,0.0,0.0,0.0,0.0,0.0,0.0,0.0,0.0,0.0,0.0,0.0,5.3041,5.4766,5.6014,5.6822,5.7593,5.7997,5.7997,5.7997,5.7997,5.807,5.9648,6.0419,6.0493,6.2108,6.278,6.278,6.278,6.278,6.278,6.278,6.278,6.278,6.278,6.278,6.278,6.278,6.278,6.278,6.278,6.278,6.278,6.278,6.278,6.278,6.278,6.278,6.278,6.278,6.278,6.278,6.278,6.278,6.278,6.278,6.278,6.278,6.278,6.278,6.2755,6.2755,6.273,6.273,6.273,6.0725,5.9111,5.9111,5.8423,5.7881,5.7881,5.7881,5.7881,5.7881,5.7881,5.7881,5.7881,5.8558,5.9302,6.0013,6.008,6.0114,6.0114,6.0114,6.0114,6.0114,6.0114,6.0114,6.0114,6.008,6.0047,6.0047,5.8558,5.7881,0.0,0.0,5.4224,4.9337,0.0,0.0,0.0,0.0,0.0,0.0,0.0,0.0,0.0,0.0,0.0,0.0,0.0,0.0,0.0,0.0,0.0,0.0,0.0,0.0,0.0,0.0,0.0,0.0,4.6581,0.0,0.0,5.4436,5.5978,5.6785,5.7593,5.7997,5.7997,5.7997,5.7997,5.8033,5.9648,6.0419,6.0456,6.2071,6.278,6.278,6.278,6.278,6.278,6.278,6.278,6.278,6.278,6.278,6.278,6.278,6.278,6.278,6.278,6.278,6.278,6.278,6.278,6.278,6.278,6.278,6.278,6.278,6.278,6.278,6.278,6.278,6.278,6.278,6.278,6.278,6.278,6.278,6.278,6.278,6.278,6.2989,6.3576,6.2482,6.1356,6.0762,5.9494,5.8795,5.9302,5.937,5.937,5.937,5.937,5.937,5.937,6.008,6.0622,6.0892,6.1332,6.1603,6.1603,6.1603,6.1603,6.1603,6.1603,6.1603,6.1603,6.1129,6.0892,6.0858,5.9844,5.937,5.3572,5.5006,0.0,5.1334,5.0468,0.0,4.4867,0.0,0.0,0.0,0.0,0.0,0.0,0.0,0.0,0.0,0.0,0.0,0.0,0.0,0.0,0.0,0.0,0.0,0.0,0.0,4.214,4.4525,4.5131,0.0,0.0,0.0,5.5244,5.6345,5.7446,5.7997,5.7997,5.7997,5.7997,5.8033,5.9648,6.0419,6.0456,6.2071,6.278,6.278,6.278,6.278,6.278,6.278,6.278,6.278,6.278,6.278,6.278,6.278,6.278,6.278,6.278,6.278,6.278,6.278,6.278,6.278,6.278,6.278,6.278,6.278,6.278,6.278,6.278,6.278,6.278,6.278,6.278,6.278,6.278,6.278,6.278,6.278,6.3062,6.3429,6.398,6.3621,6.3048,6.248,6.121,6.0421,6.0574,6.0606,6.0458,6.0152,6.0114,6.0216,6.0486,6.0994,6.14,6.167,6.2144,6.2381,6.2381,6.2381,6.2381,6.2381,6.2381,6.2381,6.2381,6.1907,6.167,6.167,6.1163,6.0926]}]]